Time,TemperatureF,DewpointF,PressureIn,WindDirection,WindDirectionDegrees,WindSpeedMPH,WindSpeedGustMPH,Humidity,HourlyPrecipIn,Conditions,Clouds,dailyrainin,SoftwareType,DateUTC
2013-01-25 00:00:00,53.4,51.2,29.94,ESE,112,3.4,3.4,92,0.00,,,0.00,VWS V14.01,2013-01-25 08:00:00,
2013-01-25 00:01:00,53.4,51.2,29.94,ESE,112,3.6,3.6,92,0.00,,,0.00,VWS V14.01,2013-01-25 08:01:00,
2013-01-25 00:02:00,53.4,51.2,29.94,East,90,3.4,3.6,92,0.00,,,0.00,VWS V14.01,2013-01-25 08:02:00,
2013-01-25 00:03:00,53.4,51.2,29.94,ESE,112,2.7,3.4,92,0.00,,,0.00,VWS V14.01,2013-01-25 08:03:00,
2013-01-25 00:04:00,53.4,51.2,29.94,ESE,112,2.7,2.7,92,0.00,,,0.00,VWS V14.01,2013-01-25 08:04:00,
2013-01-25 00:05:00,53.4,51.2,29.94,SE,135,3.1,3.1,92,0.00,,,0.00,VWS V14.01,2013-01-25 08:05:00,
2013-01-25 00:06:00,53.4,51.2,29.94,ESE,112,2.9,3.1,92,0.00,,,0.00,VWS V14.01,2013-01-25 08:06:00,
2013-01-25 00:07:00,53.4,51.2,29.94,ESE,112,3.1,3.1,92,0.00,,,0.00,VWS V14.01,2013-01-25 08:07:00,
2013-01-25 00:08:00,53.4,51.2,29.94,SE,135,1.6,3.1,92,0.00,,,0.00,VWS V14.01,2013-01-25 08:08:00,
2013-01-25 00:09:00,53.4,50.9,29.94,SSE,158,2.2,2.2,91,0.00,,,0.00,VWS V14.01,2013-01-25 08:09:00,
2013-01-25 00:10:00,53.4,50.9,29.94,SE,135,2.5,2.5,91,0.00,,,0.00,VWS V14.01,2013-01-25 08:10:00,
2013-01-25 00:11:00,53.4,50.9,29.94,SSE,158,2.5,2.5,91,0.00,,,0.00,VWS V14.01,2013-01-25 08:11:00,
2013-01-25 00:12:00,53.4,50.9,29.94,SSE,158,2.9,2.9,91,0.00,,,0.00,VWS V14.01,2013-01-25 08:12:00,
2013-01-25 00:13:00,53.4,50.9,29.94,SSE,158,2.0,2.9,91,0.00,,,0.00,VWS V14.01,2013-01-25 08:13:00,
2013-01-25 00:14:00,53.4,50.9,29.91,SSE,158,3.4,3.4,91,0.00,,,0.00,VWS V14.01,2013-01-25 08:14:00,
2013-01-25 00:15:00,53.4,50.9,29.91,SSE,158,3.8,3.8,91,0.00,,,0.00,VWS V14.01,2013-01-25 08:15:00,
2013-01-25 00:16:00,53.2,50.7,29.91,SE,135,2.9,3.8,91,0.00,,,0.00,VWS V14.01,2013-01-25 08:16:00,
2013-01-25 00:17:00,53.2,50.7,29.91,SE,135,3.6,3.6,91,0.00,,,0.00,VWS V14.01,2013-01-25 08:17:00,
2013-01-25 00:18:00,53.2,50.7,29.91,SE,135,2.9,3.6,91,0.00,,,0.00,VWS V14.01,2013-01-25 08:18:00,
2013-01-25 00:19:00,53.2,50.7,29.91,ESE,112,3.1,3.1,91,0.00,,,0.00,VWS V14.01,2013-01-25 08:19:00,
2013-01-25 00:20:00,53.2,50.7,29.91,SSE,158,3.1,3.1,91,0.00,,,0.00,VWS V14.01,2013-01-25 08:20:00,
2013-01-25 00:21:00,53.2,50.7,29.91,SSE,158,2.7,3.1,91,0.00,,,0.00,VWS V14.01,2013-01-25 08:21:00,
2013-01-25 00:22:00,53.2,50.7,29.91,SSE,158,3.1,4.0,91,0.00,,,0.00,VWS V14.01,2013-01-25 08:22:00,
2013-01-25 00:23:00,53.2,50.7,29.91,SSE,158,3.1,3.1,91,0.00,,,0.00,VWS V14.01,2013-01-25 08:23:00,
2013-01-25 00:24:00,53.2,50.7,29.91,ESE,112,2.0,2.9,91,0.00,,,0.00,VWS V14.01,2013-01-25 08:24:00,
2013-01-25 00:25:00,53.2,50.7,29.91,ESE,112,2.9,2.9,91,0.00,,,0.00,VWS V14.01,2013-01-25 08:25:00,
2013-01-25 00:26:00,53.2,50.7,29.91,ESE,112,2.7,2.9,91,0.00,,,0.00,VWS V14.01,2013-01-25 08:26:00,
2013-01-25 00:27:00,53.2,50.7,29.91,SSE,158,2.5,2.7,91,0.00,,,0.00,VWS V14.01,2013-01-25 08:27:00,
2013-01-25 00:28:00,53.2,50.7,29.91,SE,135,2.9,2.9,91,0.00,,,0.00,VWS V14.01,2013-01-25 08:28:00,
2013-01-25 00:29:00,53.2,50.7,29.91,SE,135,2.5,2.9,91,0.00,,,0.00,VWS V14.01,2013-01-25 08:29:00,
2013-01-25 00:30:00,53.2,50.7,29.91,ESE,112,2.5,2.5,91,0.00,,,0.00,VWS V14.01,2013-01-25 08:30:00,
2013-01-25 00:31:00,53.2,50.7,29.91,ESE,112,2.7,2.7,91,0.00,,,0.00,VWS V14.01,2013-01-25 08:31:00,
2013-01-25 00:33:00,53.2,50.7,29.91,SE,135,2.2,2.7,91,0.00,,,0.00,VWS V14.01,2013-01-25 08:33:00,
2013-01-25 00:34:00,53.2,50.7,29.91,ESE,112,2.9,2.9,91,0.00,,,0.00,VWS V14.01,2013-01-25 08:34:00,
2013-01-25 00:35:00,53.2,50.7,29.91,ESE,112,2.5,2.9,91,0.00,,,0.00,VWS V14.01,2013-01-25 08:35:00,
2013-01-25 00:36:00,53.2,50.7,29.91,ESE,112,2.5,2.5,91,0.00,,,0.00,VWS V14.01,2013-01-25 08:36:00,
2013-01-25 00:37:00,53.2,50.7,29.91,SE,135,3.4,3.4,91,0.00,,,0.00,VWS V14.01,2013-01-25 08:37:00,
2013-01-25 00:38:00,53.2,50.7,29.91,SE,135,3.4,3.4,91,0.00,,,0.00,VWS V14.01,2013-01-25 08:38:00,
2013-01-25 00:39:00,53.1,50.5,29.91,SE,135,2.5,3.4,91,0.00,,,0.00,VWS V14.01,2013-01-25 08:39:00,
2013-01-25 00:40:00,53.1,50.5,29.91,SE,135,1.6,2.5,91,0.00,,,0.00,VWS V14.01,2013-01-25 08:40:00,
2013-01-25 00:41:00,53.1,50.5,29.91,SSE,158,2.9,2.9,91,0.00,,,0.00,VWS V14.01,2013-01-25 08:41:00,
2013-01-25 00:42:00,53.1,50.5,29.91,ESE,112,2.5,2.9,91,0.00,,,0.00,VWS V14.01,2013-01-25 08:42:00,
2013-01-25 00:43:00,53.1,50.5,29.91,SE,135,1.3,2.5,91,0.00,,,0.00,VWS V14.01,2013-01-25 08:43:00,
2013-01-25 00:44:00,53.1,50.5,29.91,SE,135,1.3,1.3,91,0.00,,,0.00,VWS V14.01,2013-01-25 08:44:00,
2013-01-25 00:45:00,53.2,50.7,29.91,SE,135,2.0,2.0,91,0.00,,,0.00,VWS V14.01,2013-01-25 08:45:00,
2013-01-25 00:46:00,53.2,50.7,29.91,SE,135,1.6,2.0,91,0.00,,,0.00,VWS V14.01,2013-01-25 08:46:00,
2013-01-25 00:47:00,53.2,50.7,29.91,SE,135,1.6,1.6,91,0.00,,,0.00,VWS V14.01,2013-01-25 08:47:00,
2013-01-25 00:48:00,53.2,50.7,29.91,SSE,158,0.0,1.6,91,0.00,,,0.00,VWS V14.01,2013-01-25 08:48:00,
2013-01-25 00:49:00,53.2,50.7,29.91,SSE,158,2.2,2.7,91,0.00,,,0.00,VWS V14.01,2013-01-25 08:49:00,
2013-01-25 00:50:00,53.2,50.7,29.91,South,180,3.4,3.4,91,0.00,,,0.00,VWS V14.01,2013-01-25 08:50:00,
2013-01-25 00:51:00,53.2,50.7,29.91,South,180,4.0,4.0,91,0.00,,,0.00,VWS V14.01,2013-01-25 08:51:00,
2013-01-25 00:52:00,53.2,50.7,29.91,South,180,4.0,4.0,91,0.00,,,0.00,VWS V14.01,2013-01-25 08:52:00,
2013-01-25 00:53:00,53.2,50.7,29.91,South,180,3.1,4.0,91,0.00,,,0.00,VWS V14.01,2013-01-25 08:53:00,
2013-01-25 00:54:00,53.2,50.7,29.91,South,180,2.7,3.1,91,0.00,,,0.00,VWS V14.01,2013-01-25 08:54:00,
2013-01-25 00:55:00,53.2,50.7,29.91,South,180,2.7,2.7,91,0.00,,,0.00,VWS V14.01,2013-01-25 08:55:00,
2013-01-25 00:56:00,53.2,50.7,29.91,South,180,2.0,2.7,91,0.00,,,0.00,VWS V14.01,2013-01-25 08:56:00,
2013-01-25 00:57:00,53.4,50.9,29.91,SSE,158,2.0,2.0,91,0.00,,,0.00,VWS V14.01,2013-01-25 08:57:00,
2013-01-25 00:58:00,53.4,50.9,29.91,South,180,2.0,2.0,91,0.00,,,0.00,VWS V14.01,2013-01-25 08:58:00,
2013-01-25 00:59:00,53.4,50.9,29.91,South,180,1.1,2.0,91,0.00,,,0.00,VWS V14.01,2013-01-25 08:59:00,
2013-01-25 01:00:00,53.4,50.9,29.91,SSW,202,1.3,1.3,91,0.00,,,0.00,VWS V14.01,2013-01-25 09:00:00,
2013-01-25 01:01:00,53.4,50.9,29.91,SSW,202,1.3,1.3,91,0.00,,,0.00,VWS V14.01,2013-01-25 09:01:00,
2013-01-25 01:02:00,53.4,50.9,29.91,SSW,202,0.0,1.3,91,0.00,,,0.00,VWS V14.01,2013-01-25 09:02:00,
2013-01-25 01:03:00,53.4,50.9,29.91,SSW,202,0.0,0.0,91,0.00,,,0.00,VWS V14.01,2013-01-25 09:03:00,
2013-01-25 01:04:00,53.4,50.9,29.91,SSW,202,0.0,0.0,91,0.00,,,0.00,VWS V14.01,2013-01-25 09:04:00,
2013-01-25 01:05:00,53.4,50.9,29.91,SSW,202,0.0,0.0,91,0.00,,,0.00,VWS V14.01,2013-01-25 09:05:00,
2013-01-25 01:06:00,53.6,51.0,29.91,SSW,202,0.0,0.0,91,0.00,,,0.00,VWS V14.01,2013-01-25 09:06:00,
2013-01-25 01:07:00,53.6,51.0,29.91,SSW,202,0.0,0.0,91,0.00,,,0.00,VWS V14.01,2013-01-25 09:07:00,
2013-01-25 01:08:00,53.6,51.0,29.91,SSW,202,0.0,0.0,91,0.00,,,0.00,VWS V14.01,2013-01-25 09:08:00,
2013-01-25 01:09:00,53.6,51.0,29.91,South,180,0.0,0.0,91,0.00,,,0.00,VWS V14.01,2013-01-25 09:09:00,
2013-01-25 01:10:00,53.6,51.0,29.91,South,180,1.6,1.6,91,0.00,,,0.00,VWS V14.01,2013-01-25 09:10:00,
2013-01-25 01:11:00,53.6,51.0,29.91,South,180,0.0,1.6,91,0.00,,,0.00,VWS V14.01,2013-01-25 09:11:00,
2013-01-25 01:12:00,53.6,51.0,29.91,South,180,0.0,0.0,91,0.00,,,0.00,VWS V14.01,2013-01-25 09:12:00,
2013-01-25 01:13:00,53.6,51.0,29.91,South,180,0.0,0.0,91,0.00,,,0.00,VWS V14.01,2013-01-25 09:13:00,
2013-01-25 01:14:00,53.6,51.0,29.91,South,180,0.0,0.0,91,0.00,,,0.00,VWS V14.01,2013-01-25 09:14:00,
2013-01-25 01:15:00,53.6,51.0,29.91,South,180,0.0,0.0,91,0.00,,,0.00,VWS V14.01,2013-01-25 09:15:00,
2013-01-25 01:16:00,53.6,51.0,29.91,South,180,0.0,0.0,91,0.00,,,0.00,VWS V14.01,2013-01-25 09:16:00,
2013-01-25 01:17:00,53.6,51.0,29.91,South,180,0.0,0.0,91,0.00,,,0.00,VWS V14.01,2013-01-25 09:17:00,
2013-01-25 01:18:00,53.6,50.7,29.91,South,180,0.0,0.0,90,0.00,,,0.00,VWS V14.01,2013-01-25 09:18:00,
2013-01-25 01:19:00,53.6,50.7,29.91,South,180,0.0,0.0,90,0.00,,,0.00,VWS V14.01,2013-01-25 09:19:00,
2013-01-25 01:20:00,53.6,50.7,29.91,South,180,0.0,0.0,90,0.00,,,0.00,VWS V14.01,2013-01-25 09:20:00,
2013-01-25 01:21:00,53.6,50.7,29.91,South,180,0.0,0.0,90,0.00,,,0.00,VWS V14.01,2013-01-25 09:21:00,
2013-01-25 01:22:00,53.6,50.7,29.91,South,180,0.0,0.0,90,0.00,,,0.00,VWS V14.01,2013-01-25 09:22:00,
2013-01-25 01:23:00,53.6,50.7,29.91,South,180,0.0,0.0,90,0.00,,,0.00,VWS V14.01,2013-01-25 09:23:00,
2013-01-25 01:24:00,53.6,50.7,29.91,South,180,0.0,0.0,90,0.00,,,0.00,VWS V14.01,2013-01-25 09:24:00,
2013-01-25 01:25:00,53.6,50.7,29.91,South,180,0.0,0.0,90,0.00,,,0.00,VWS V14.01,2013-01-25 09:25:00,
2013-01-25 01:26:00,53.6,50.7,29.91,South,180,0.0,0.0,90,0.00,,,0.00,VWS V14.01,2013-01-25 09:26:00,
2013-01-25 01:27:00,53.6,50.7,29.91,South,180,0.0,0.0,90,0.00,,,0.00,VWS V14.01,2013-01-25 09:27:00,
2013-01-25 01:28:00,53.6,50.7,29.91,SSE,158,1.3,1.3,90,0.00,,,0.00,VWS V14.01,2013-01-25 09:28:00,
2013-01-25 01:29:00,53.6,50.7,29.94,SSE,158,1.6,1.6,90,0.00,,,0.00,VWS V14.01,2013-01-25 09:29:00,
2013-01-25 01:30:00,53.6,50.7,29.94,SSE,158,2.0,2.0,90,0.00,,,0.00,VWS V14.01,2013-01-25 09:30:00,
2013-01-25 01:31:00,53.6,50.7,29.94,SSE,158,2.5,2.5,90,0.00,,,0.00,VWS V14.01,2013-01-25 09:31:00,
2013-01-25 01:32:00,53.6,50.7,29.94,SSE,158,2.0,2.5,90,0.00,,,0.00,VWS V14.01,2013-01-25 09:32:00,
2013-01-25 01:33:00,53.6,50.7,29.94,SSE,158,2.0,2.0,90,0.00,,,0.00,VWS V14.01,2013-01-25 09:33:00,
2013-01-25 01:34:00,53.6,50.7,29.94,SSE,158,2.7,2.7,90,0.00,,,0.00,VWS V14.01,2013-01-25 09:34:00,
2013-01-25 01:35:00,53.6,50.7,29.94,SSE,158,3.1,3.4,90,0.00,,,0.00,VWS V14.01,2013-01-25 09:35:00,
2013-01-25 01:36:00,53.6,50.7,29.94,SSE,158,3.1,3.1,90,0.00,,,0.00,VWS V14.01,2013-01-25 09:36:00,
2013-01-25 01:37:00,53.6,50.7,29.94,SSE,158,2.2,2.2,90,0.00,,,0.00,VWS V14.01,2013-01-25 09:37:00,
2013-01-25 01:38:00,53.6,50.7,29.94,SSE,158,2.5,2.5,90,0.00,,,0.00,VWS V14.01,2013-01-25 09:38:00,
2013-01-25 01:39:00,53.6,50.7,29.94,SSE,158,2.5,2.5,90,0.00,,,0.00,VWS V14.01,2013-01-25 09:39:00,
2013-01-25 01:40:00,53.6,50.7,29.94,SSE,158,2.7,2.7,90,0.00,,,0.00,VWS V14.01,2013-01-25 09:40:00,
2013-01-25 01:41:00,53.6,50.7,29.94,SSE,158,2.7,2.7,90,0.00,,,0.00,VWS V14.01,2013-01-25 09:41:00,
2013-01-25 01:42:00,53.6,50.7,29.94,SSE,158,2.2,2.7,90,0.00,,,0.00,VWS V14.01,2013-01-25 09:42:00,
2013-01-25 01:43:00,53.4,50.9,29.94,SSE,158,2.7,2.7,91,0.00,,,0.00,VWS V14.01,2013-01-25 09:43:00,
2013-01-25 01:44:00,53.4,50.9,29.94,SSE,158,2.9,2.9,91,0.00,,,0.00,VWS V14.01,2013-01-25 09:44:00,
2013-01-25 01:45:00,53.4,50.9,29.94,SSE,158,2.9,2.9,91,0.00,,,0.00,VWS V14.01,2013-01-25 09:45:00,
2013-01-25 01:46:00,53.4,50.9,29.94,SSE,158,2.9,2.9,91,0.00,,,0.00,VWS V14.01,2013-01-25 09:46:00,
2013-01-25 01:47:00,53.4,50.9,29.94,SSE,158,2.9,2.9,91,0.00,,,0.00,VWS V14.01,2013-01-25 09:47:00,
2013-01-25 01:48:00,53.6,51.0,29.94,SSE,158,1.1,2.9,91,0.00,,,0.00,VWS V14.01,2013-01-25 09:48:00,
2013-01-25 01:49:00,53.6,51.0,29.94,SE,135,0.9,1.1,91,0.00,,,0.00,VWS V14.01,2013-01-25 09:49:00,
2013-01-25 01:50:00,53.4,50.9,29.94,SE,135,0.9,0.9,91,0.00,,,0.00,VWS V14.01,2013-01-25 09:50:00,
2013-01-25 01:51:00,53.4,50.9,29.94,SE,135,0.0,0.9,91,0.00,,,0.00,VWS V14.01,2013-01-25 09:51:00,
2013-01-25 01:52:00,53.4,50.9,29.94,SE,135,0.0,0.0,91,0.00,,,0.00,VWS V14.01,2013-01-25 09:52:00,
2013-01-25 01:53:00,53.4,50.9,29.94,SE,135,0.0,0.0,91,0.00,,,0.00,VWS V14.01,2013-01-25 09:53:00,
2013-01-25 01:54:00,53.4,50.9,29.94,SE,135,1.3,1.3,91,0.00,,,0.00,VWS V14.01,2013-01-25 09:54:00,
2013-01-25 01:55:00,53.4,50.9,29.94,SE,135,1.3,1.3,91,0.00,,,0.00,VWS V14.01,2013-01-25 09:55:00,
2013-01-25 01:56:00,53.4,50.9,29.94,SE,135,1.3,1.3,91,0.00,,,0.00,VWS V14.01,2013-01-25 09:56:00,
2013-01-25 01:57:00,53.4,50.9,29.94,ESE,112,2.2,2.2,91,0.00,,,0.00,VWS V14.01,2013-01-25 09:57:00,
2013-01-25 01:58:00,53.4,50.9,29.94,ESE,112,2.2,2.2,91,0.00,,,0.00,VWS V14.01,2013-01-25 09:58:00,
2013-01-25 01:59:00,53.4,50.9,29.94,ESE,112,0.0,2.2,91,0.00,,,0.00,VWS V14.01,2013-01-25 09:59:00,
2013-01-25 02:00:00,53.4,50.9,29.94,ESE,112,0.0,0.0,91,0.00,,,0.00,VWS V14.01,2013-01-25 10:00:00,
2013-01-25 02:01:00,53.2,50.7,29.94,ESE,112,0.0,0.0,91,0.00,,,0.00,VWS V14.01,2013-01-25 10:01:00,
2013-01-25 02:02:00,53.2,50.7,29.94,ESE,112,0.0,0.0,91,0.00,,,0.00,VWS V14.01,2013-01-25 10:02:00,
2013-01-25 02:03:00,53.2,50.7,29.94,ESE,112,0.0,0.0,91,0.00,,,0.00,VWS V14.01,2013-01-25 10:03:00,
2013-01-25 02:04:00,53.2,50.7,29.94,ESE,112,0.0,0.0,91,0.00,,,0.00,VWS V14.01,2013-01-25 10:04:00,
2013-01-25 02:05:00,53.2,50.7,29.94,ESE,112,0.0,0.0,91,0.00,,,0.00,VWS V14.01,2013-01-25 10:05:00,
2013-01-25 02:06:00,53.2,50.7,29.94,ESE,112,0.0,0.0,91,0.00,,,0.00,VWS V14.01,2013-01-25 10:06:00,
2013-01-25 02:07:00,53.2,50.7,29.94,ESE,112,0.0,0.0,91,0.00,,,0.00,VWS V14.01,2013-01-25 10:07:00,
2013-01-25 02:08:00,53.2,50.7,29.94,ESE,112,0.0,0.0,91,0.00,,,0.00,VWS V14.01,2013-01-25 10:08:00,
2013-01-25 02:09:00,53.2,50.7,29.94,ESE,112,0.0,0.0,91,0.00,,,0.00,VWS V14.01,2013-01-25 10:09:00,
2013-01-25 02:10:00,53.2,50.7,29.94,ESE,112,0.0,0.0,91,0.00,,,0.00,VWS V14.01,2013-01-25 10:10:00,
2013-01-25 02:11:00,53.2,50.7,29.94,ESE,112,0.0,0.0,91,0.00,,,0.00,VWS V14.01,2013-01-25 10:11:00,
2013-01-25 02:12:00,53.1,50.5,29.94,ESE,112,0.0,0.0,91,0.00,,,0.00,VWS V14.01,2013-01-25 10:12:00,
2013-01-25 02:13:00,53.1,50.5,29.94,ESE,112,0.0,0.0,91,0.00,,,0.00,VWS V14.01,2013-01-25 10:13:00,
2013-01-25 02:14:00,53.1,50.5,29.94,East,90,0.0,0.0,91,0.00,,,0.00,VWS V14.01,2013-01-25 10:14:00,
2013-01-25 02:15:00,53.2,50.7,29.94,East,90,0.0,0.0,91,0.00,,,0.00,VWS V14.01,2013-01-25 10:15:00,
2013-01-25 02:16:00,53.2,50.7,29.94,East,90,2.7,2.7,91,0.00,,,0.00,VWS V14.01,2013-01-25 10:16:00,
2013-01-25 02:17:00,53.2,50.7,29.94,East,90,2.7,2.7,91,0.00,,,0.00,VWS V14.01,2013-01-25 10:17:00,
2013-01-25 02:18:00,53.2,50.7,29.94,East,90,2.7,2.7,91,0.00,,,0.00,VWS V14.01,2013-01-25 10:18:00,
2013-01-25 02:19:00,53.2,50.7,29.94,East,90,2.9,2.9,91,0.00,,,0.00,VWS V14.01,2013-01-25 10:19:00,
2013-01-25 02:20:00,53.1,50.5,29.94,East,90,2.5,2.9,91,0.00,,,0.00,VWS V14.01,2013-01-25 10:20:00,
2013-01-25 02:21:00,53.1,50.5,29.94,East,90,2.0,2.5,91,0.00,,,0.00,VWS V14.01,2013-01-25 10:21:00,
2013-01-25 02:22:00,53.1,50.5,29.94,East,90,0.0,2.0,91,0.00,,,0.00,VWS V14.01,2013-01-25 10:22:00,
2013-01-25 02:23:00,53.1,50.5,29.94,East,90,0.0,2.0,91,0.00,,,0.00,VWS V14.01,2013-01-25 10:23:00,
2013-01-25 02:24:00,53.1,50.5,29.94,East,90,1.6,1.6,91,0.00,,,0.00,VWS V14.01,2013-01-25 10:24:00,
2013-01-25 02:25:00,53.1,50.8,29.94,East,90,0.0,1.6,92,0.00,,,0.00,VWS V14.01,2013-01-25 10:25:00,
2013-01-25 02:26:00,53.1,50.8,29.94,East,90,0.0,0.0,92,0.00,,,0.00,VWS V14.01,2013-01-25 10:26:00,
2013-01-25 02:27:00,53.1,50.8,29.94,East,90,0.0,0.0,92,0.00,,,0.00,VWS V14.01,2013-01-25 10:27:00,
2013-01-25 02:28:00,53.1,50.8,29.94,East,90,0.0,0.0,92,0.00,,,0.00,VWS V14.01,2013-01-25 10:28:00,
2013-01-25 02:29:00,53.1,50.8,29.94,East,90,0.0,0.0,92,0.00,,,0.00,VWS V14.01,2013-01-25 10:29:00,
2013-01-25 02:30:00,53.1,50.8,29.94,East,90,0.0,0.0,92,0.00,,,0.00,VWS V14.01,2013-01-25 10:30:00,
2013-01-25 02:31:00,52.7,50.5,29.94,East,90,0.0,0.0,92,0.00,,,0.00,VWS V14.01,2013-01-25 10:31:00,
2013-01-25 02:32:00,52.7,50.5,29.94,East,90,0.0,0.0,92,0.00,,,0.00,VWS V14.01,2013-01-25 10:32:00,
2013-01-25 02:33:00,52.7,50.5,29.94,East,90,0.0,0.0,92,0.00,,,0.00,VWS V14.01,2013-01-25 10:33:00,
2013-01-25 02:34:00,52.7,50.5,29.94,East,90,0.0,0.0,92,0.00,,,0.00,VWS V14.01,2013-01-25 10:34:00,
2013-01-25 02:35:00,52.7,50.5,29.94,East,90,0.0,0.0,92,0.00,,,0.00,VWS V14.01,2013-01-25 10:35:00,
2013-01-25 02:36:00,52.7,50.5,29.94,East,90,0.0,0.0,92,0.00,,,0.00,VWS V14.01,2013-01-25 10:36:00,
2013-01-25 02:37:00,52.7,50.5,29.94,East,90,0.0,0.0,92,0.00,,,0.00,VWS V14.01,2013-01-25 10:37:00,
2013-01-25 02:38:00,52.7,50.5,29.94,East,90,0.0,0.0,92,0.00,,,0.00,VWS V14.01,2013-01-25 10:38:00,
2013-01-25 02:39:00,52.5,50.3,29.94,East,90,0.0,0.0,92,0.00,,,0.00,VWS V14.01,2013-01-25 10:39:00,
2013-01-25 02:40:00,52.5,50.3,29.94,East,90,0.0,0.0,92,0.00,,,0.00,VWS V14.01,2013-01-25 10:40:00,
2013-01-25 02:41:00,52.5,50.3,29.94,East,90,0.0,0.0,92,0.00,,,0.00,VWS V14.01,2013-01-25 10:41:00,
2013-01-25 02:42:00,52.5,50.3,29.94,East,90,0.0,0.0,92,0.00,,,0.00,VWS V14.01,2013-01-25 10:42:00,
2013-01-25 02:43:00,52.5,50.3,29.94,East,90,0.0,0.0,92,0.00,,,0.00,VWS V14.01,2013-01-25 10:43:00,
2013-01-25 02:44:00,52.5,50.3,29.94,East,90,0.0,0.0,92,0.00,,,0.00,VWS V14.01,2013-01-25 10:44:00,
2013-01-25 02:45:00,52.5,50.3,29.94,East,90,0.0,0.0,92,0.00,,,0.00,VWS V14.01,2013-01-25 10:45:00,
2013-01-25 02:46:00,52.5,50.3,29.94,East,90,0.0,0.0,92,0.00,,,0.00,VWS V14.01,2013-01-25 10:46:00,
2013-01-25 02:47:00,52.5,50.3,29.94,SSE,158,0.0,0.0,92,0.00,,,0.00,VWS V14.01,2013-01-25 10:47:00,
2013-01-25 02:48:00,52.5,50.3,29.94,SSE,158,0.0,0.0,92,0.00,,,0.00,VWS V14.01,2013-01-25 10:48:00,
2013-01-25 02:49:00,52.5,50.3,29.94,SSE,158,2.0,2.0,92,0.00,,,0.00,VWS V14.01,2013-01-25 10:49:00,
2013-01-25 02:50:00,52.5,50.3,29.94,SSE,158,1.1,2.0,92,0.00,,,0.00,VWS V14.01,2013-01-25 10:50:00,
2013-01-25 02:51:00,52.5,50.3,29.94,SSE,158,3.1,3.1,92,0.00,,,0.00,VWS V14.01,2013-01-25 10:51:00,
2013-01-25 02:52:00,52.5,50.3,29.94,SSE,158,2.9,2.9,92,0.00,,,0.00,VWS V14.01,2013-01-25 10:52:00,
2013-01-25 02:53:00,52.5,50.3,29.94,SSE,158,2.9,2.9,92,0.00,,,0.00,VWS V14.01,2013-01-25 10:53:00,
2013-01-25 02:54:00,52.5,50.3,29.94,SSE,158,2.9,2.9,92,0.00,,,0.00,VWS V14.01,2013-01-25 10:54:00,
2013-01-25 02:55:00,52.5,50.3,29.94,SSE,158,3.1,3.1,92,0.00,,,0.00,VWS V14.01,2013-01-25 10:55:00,
2013-01-25 02:56:00,52.5,50.3,29.94,SE,135,3.6,3.6,92,0.00,,,0.00,VWS V14.01,2013-01-25 10:56:00,
2013-01-25 02:57:00,52.5,50.3,29.94,SE,135,2.9,2.9,92,0.00,,,0.00,VWS V14.01,2013-01-25 10:57:00,
2013-01-25 02:58:00,52.5,50.3,29.94,SSE,158,2.7,2.9,92,0.00,,,0.00,VWS V14.01,2013-01-25 10:58:00,
2013-01-25 02:59:00,52.5,50.3,29.94,SE,135,3.1,3.1,92,0.00,,,0.00,VWS V14.01,2013-01-25 10:59:00,
2013-01-25 03:00:00,52.5,50.3,29.91,SSE,158,2.7,3.1,92,0.00,,,0.00,VWS V14.01,2013-01-25 11:00:00,
2013-01-25 03:01:00,52.5,50.3,29.91,SE,135,2.7,2.7,92,0.00,,,0.00,VWS V14.01,2013-01-25 11:01:00,
2013-01-25 03:02:00,52.5,50.3,29.91,ESE,112,2.5,2.5,92,0.00,,,0.00,VWS V14.01,2013-01-25 11:02:00,
2013-01-25 03:03:00,52.5,50.3,29.91,ESE,112,2.5,2.5,92,0.00,,,0.00,VWS V14.01,2013-01-25 11:03:00,
2013-01-25 03:04:00,52.5,50.6,29.91,ESE,112,1.3,2.5,93,0.00,,,0.00,VWS V14.01,2013-01-25 11:04:00,
2013-01-25 03:05:00,52.5,50.6,29.91,ESE,112,3.4,3.4,93,0.00,,,0.00,VWS V14.01,2013-01-25 11:05:00,
2013-01-25 03:06:00,52.5,50.6,29.91,ESE,112,0.0,3.4,93,0.00,,,0.00,VWS V14.01,2013-01-25 11:06:00,
2013-01-25 03:07:00,52.5,50.6,29.91,ESE,112,1.3,1.3,93,0.00,,,0.00,VWS V14.01,2013-01-25 11:07:00,
2013-01-25 03:08:00,52.5,50.6,29.91,SE,135,0.0,1.3,93,0.00,,,0.00,VWS V14.01,2013-01-25 11:08:00,
2013-01-25 03:09:00,52.5,50.6,29.91,SE,135,0.0,0.0,93,0.00,,,0.00,VWS V14.01,2013-01-25 11:09:00,
2013-01-25 03:10:00,52.5,50.6,29.91,SE,135,1.6,1.6,93,0.00,,,0.00,VWS V14.01,2013-01-25 11:10:00,
2013-01-25 03:11:00,52.5,50.6,29.91,SE,135,0.0,1.6,93,0.00,,,0.00,VWS V14.01,2013-01-25 11:11:00,
2013-01-25 03:12:00,52.5,50.6,29.91,SE,135,0.0,0.0,93,0.00,,,0.00,VWS V14.01,2013-01-25 11:12:00,
2013-01-25 03:13:00,52.5,50.6,29.91,SE,135,0.0,0.0,93,0.00,,,0.00,VWS V14.01,2013-01-25 11:13:00,
2013-01-25 03:14:00,52.5,50.6,29.91,SE,135,0.9,0.9,93,0.00,,,0.00,VWS V14.01,2013-01-25 11:14:00,
2013-01-25 03:15:00,52.5,50.6,29.91,ESE,112,0.0,0.9,93,0.00,,,0.00,VWS V14.01,2013-01-25 11:15:00,
2013-01-25 03:16:00,52.5,50.6,29.91,ESE,112,1.1,1.1,93,0.00,,,0.00,VWS V14.01,2013-01-25 11:16:00,
2013-01-25 03:17:00,52.5,50.6,29.91,East,90,2.0,2.0,93,0.00,,,0.00,VWS V14.01,2013-01-25 11:17:00,
2013-01-25 03:18:00,52.5,50.6,29.91,East,90,3.4,3.4,93,0.00,,,0.00,VWS V14.01,2013-01-25 11:18:00,
2013-01-25 03:19:00,52.5,50.6,29.91,ESE,112,1.6,3.4,93,0.00,,,0.00,VWS V14.01,2013-01-25 11:19:00,
2013-01-25 03:20:00,52.5,50.6,29.91,ESE,112,2.9,2.9,93,0.00,,,0.00,VWS V14.01,2013-01-25 11:20:00,
2013-01-25 03:21:00,52.5,50.6,29.91,ESE,112,2.5,2.9,93,0.00,,,0.00,VWS V14.01,2013-01-25 11:21:00,
2013-01-25 03:22:00,52.5,50.6,29.91,ESE,112,2.5,2.5,93,0.00,,,0.00,VWS V14.01,2013-01-25 11:22:00,
2013-01-25 03:23:00,52.5,50.6,29.91,ESE,112,2.5,2.5,93,0.00,,,0.00,VWS V14.01,2013-01-25 11:23:00,
2013-01-25 03:24:00,52.3,50.4,29.91,East,90,3.8,3.8,93,0.00,,,0.00,VWS V14.01,2013-01-25 11:24:00,
2013-01-25 03:25:00,52.3,50.4,29.91,ESE,112,2.9,3.8,93,0.00,,,0.00,VWS V14.01,2013-01-25 11:25:00,
2013-01-25 03:26:00,52.3,50.4,29.91,ESE,112,3.4,3.4,93,0.00,,,0.00,VWS V14.01,2013-01-25 11:26:00,
2013-01-25 03:27:00,52.2,50.2,29.91,East,90,2.0,2.0,93,0.00,,,0.00,VWS V14.01,2013-01-25 11:27:00,
2013-01-25 03:28:00,52.2,50.2,29.91,East,90,1.1,2.0,93,0.00,,,0.00,VWS V14.01,2013-01-25 11:28:00,
2013-01-25 03:29:00,52.2,50.2,29.91,East,90,1.6,1.6,93,0.00,,,0.00,VWS V14.01,2013-01-25 11:29:00,
2013-01-25 03:30:00,52.2,50.2,29.91,ESE,112,2.5,2.5,93,0.00,,,0.00,VWS V14.01,2013-01-25 11:30:00,
2013-01-25 03:31:00,52.2,50.2,29.91,ESE,112,2.7,2.7,93,0.00,,,0.00,VWS V14.01,2013-01-25 11:31:00,
2013-01-25 03:32:00,52.2,50.2,29.91,East,90,3.1,3.1,93,0.00,,,0.00,VWS V14.01,2013-01-25 11:32:00,
2013-01-25 03:33:00,52.2,50.2,29.91,East,90,3.1,3.1,93,0.00,,,0.00,VWS V14.01,2013-01-25 11:33:00,
2013-01-25 03:34:00,52.2,50.2,29.91,East,90,3.6,3.6,93,0.00,,,0.00,VWS V14.01,2013-01-25 11:34:00,
2013-01-25 03:35:00,52.2,50.2,29.91,SSE,158,2.0,3.6,93,0.00,,,0.00,VWS V14.01,2013-01-25 11:35:00,
2013-01-25 03:36:00,52.2,50.2,29.91,ESE,112,2.0,2.0,93,0.00,,,0.00,VWS V14.01,2013-01-25 11:36:00,
2013-01-25 03:37:00,52.2,50.2,29.91,SE,135,1.3,1.3,93,0.00,,,0.00,VWS V14.01,2013-01-25 11:37:00,
2013-01-25 03:38:00,52.2,50.2,29.91,SSE,158,2.7,2.7,93,0.00,,,0.00,VWS V14.01,2013-01-25 11:38:00,
2013-01-25 03:39:00,52.2,50.2,29.91,SSE,158,2.7,2.7,93,0.00,,,0.00,VWS V14.01,2013-01-25 11:39:00,
2013-01-25 03:40:00,52.2,50.2,29.91,ESE,112,3.1,3.1,93,0.00,,,0.00,VWS V14.01,2013-01-25 11:40:00,
2013-01-25 03:41:00,52.2,50.2,29.91,SE,135,3.4,3.4,93,0.00,,,0.00,VWS V14.01,2013-01-25 11:41:00,
2013-01-25 03:42:00,52.2,50.2,29.91,SE,135,3.6,3.6,93,0.00,,,0.00,VWS V14.01,2013-01-25 11:42:00,
2013-01-25 03:43:00,52.2,50.2,29.91,SE,135,4.7,4.7,93,0.00,,,0.00,VWS V14.01,2013-01-25 11:43:00,
2013-01-25 03:44:00,52.2,50.2,29.91,SE,135,3.6,4.7,93,0.00,,,0.00,VWS V14.01,2013-01-25 11:44:00,
2013-01-25 03:45:00,52.2,50.2,29.91,ESE,112,2.9,3.6,93,0.00,,,0.00,VWS V14.01,2013-01-25 11:45:00,
2013-01-25 03:46:00,52.2,50.2,29.91,SE,135,2.9,2.9,93,0.00,,,0.00,VWS V14.01,2013-01-25 11:46:00,
2013-01-25 03:47:00,52.2,50.5,29.91,SE,135,2.5,2.7,94,0.00,,,0.00,VWS V14.01,2013-01-25 11:47:00,
2013-01-25 03:48:00,52.2,50.5,29.91,SE,135,2.5,2.7,94,0.00,,,0.00,VWS V14.01,2013-01-25 11:48:00,
2013-01-25 03:49:00,52.2,50.5,29.91,ESE,112,3.1,3.1,94,0.00,,,0.00,VWS V14.01,2013-01-25 11:49:00,
2013-01-25 03:50:00,52.2,50.5,29.91,ESE,112,2.7,3.1,94,0.00,,,0.00,VWS V14.01,2013-01-25 11:50:00,
2013-01-25 03:51:00,52.2,50.5,29.91,ESE,112,2.7,2.7,94,0.00,,,0.00,VWS V14.01,2013-01-25 11:51:00,
2013-01-25 03:52:00,52.2,50.5,29.91,ESE,112,3.1,3.1,94,0.00,,,0.00,VWS V14.01,2013-01-25 11:52:00,
2013-01-25 03:53:00,52.2,50.5,29.91,SE,135,2.0,3.1,94,0.00,,,0.00,VWS V14.01,2013-01-25 11:53:00,
2013-01-25 03:54:00,52.2,50.5,29.91,ESE,112,2.7,2.7,94,0.00,,,0.00,VWS V14.01,2013-01-25 11:54:00,
2013-01-25 03:55:00,52.2,50.5,29.91,East,90,2.2,2.7,94,0.00,,,0.00,VWS V14.01,2013-01-25 11:55:00,
2013-01-25 03:56:00,52.2,50.5,29.91,SE,135,2.0,2.2,94,0.00,,,0.00,VWS V14.01,2013-01-25 11:56:00,
2013-01-25 03:57:00,52.2,50.5,29.91,SE,135,1.6,2.9,94,0.00,,,0.00,VWS V14.01,2013-01-25 11:57:00,
2013-01-25 03:58:00,52.2,50.5,29.91,SE,135,1.6,2.9,94,0.00,,,0.00,VWS V14.01,2013-01-25 11:58:00,
2013-01-25 03:59:00,52.0,50.3,29.91,ESE,112,2.5,2.5,94,0.00,,,0.00,VWS V14.01,2013-01-25 11:59:00,
2013-01-25 04:00:00,52.0,50.3,29.91,ESE,112,2.5,2.5,94,0.00,,,0.00,VWS V14.01,2013-01-25 12:00:00,
2013-01-25 04:01:00,52.0,50.3,29.91,ESE,112,1.6,2.5,94,0.00,,,0.00,VWS V14.01,2013-01-25 12:01:00,
2013-01-25 04:02:00,52.0,50.3,29.91,ESE,112,2.5,2.5,94,0.00,,,0.00,VWS V14.01,2013-01-25 12:02:00,
2013-01-25 04:03:00,52.0,50.3,29.91,ESE,112,2.5,2.5,94,0.00,,,0.00,VWS V14.01,2013-01-25 12:03:00,
2013-01-25 04:04:00,52.0,50.3,29.91,East,90,1.3,2.5,94,0.00,,,0.00,VWS V14.01,2013-01-25 12:04:00,
2013-01-25 04:05:00,52.0,50.3,29.91,East,90,2.0,2.2,94,0.00,,,0.00,VWS V14.01,2013-01-25 12:05:00,
2013-01-25 04:06:00,52.0,50.3,29.91,East,90,2.0,2.0,94,0.00,,,0.00,VWS V14.01,2013-01-25 12:06:00,
2013-01-25 04:07:00,52.0,50.3,29.91,East,90,2.7,2.7,94,0.00,,,0.00,VWS V14.01,2013-01-25 12:07:00,
2013-01-25 04:08:00,52.0,50.3,29.91,East,90,2.7,2.7,94,0.00,,,0.00,VWS V14.01,2013-01-25 12:08:00,
2013-01-25 04:09:00,52.0,50.3,29.91,East,90,1.6,2.7,94,0.00,,,0.00,VWS V14.01,2013-01-25 12:09:00,
2013-01-25 04:10:00,52.0,50.3,29.91,East,90,1.6,1.6,94,0.00,,,0.00,VWS V14.01,2013-01-25 12:10:00,
2013-01-25 04:11:00,52.0,50.3,29.91,East,90,0.9,1.6,94,0.00,,,0.00,VWS V14.01,2013-01-25 12:11:00,
2013-01-25 04:12:00,52.0,50.3,29.91,East,90,0.0,0.0,94,0.00,,,0.00,VWS V14.01,2013-01-25 12:12:00,
2013-01-25 04:13:00,52.0,50.3,29.91,East,90,0.0,0.0,94,0.00,,,0.00,VWS V14.01,2013-01-25 12:13:00,
2013-01-25 04:14:00,52.0,50.3,29.91,East,90,0.0,0.0,94,0.00,,,0.00,VWS V14.01,2013-01-25 12:14:00,
2013-01-25 04:15:00,52.0,50.3,29.91,East,90,0.0,0.0,94,0.00,,,0.00,VWS V14.01,2013-01-25 12:15:00,
2013-01-25 04:16:00,52.0,50.3,29.91,East,90,0.0,0.0,94,0.00,,,0.00,VWS V14.01,2013-01-25 12:16:00,
2013-01-25 04:17:00,52.0,50.3,29.91,East,90,0.0,0.0,94,0.00,,,0.00,VWS V14.01,2013-01-25 12:17:00,
2013-01-25 04:18:00,51.8,50.1,29.91,East,90,0.0,0.0,94,0.00,,,0.00,VWS V14.01,2013-01-25 12:18:00,
2013-01-25 04:19:00,51.8,50.1,29.91,East,90,0.0,0.0,94,0.00,,,0.00,VWS V14.01,2013-01-25 12:19:00,
2013-01-25 04:20:00,51.8,50.1,29.91,East,90,0.0,0.0,94,0.00,,,0.00,VWS V14.01,2013-01-25 12:20:00,
2013-01-25 04:21:00,51.8,50.1,29.91,East,90,0.0,0.0,94,0.00,,,0.00,VWS V14.01,2013-01-25 12:21:00,
2013-01-25 04:22:00,51.8,50.1,29.91,NNW,338,0.0,0.0,94,0.00,,,0.00,VWS V14.01,2013-01-25 12:22:00,
2013-01-25 04:23:00,51.8,50.1,29.91,NNW,338,0.0,0.0,94,0.00,,,0.00,VWS V14.01,2013-01-25 12:23:00,
2013-01-25 04:24:00,51.8,50.1,29.91,NNW,338,0.0,0.0,94,0.00,,,0.00,VWS V14.01,2013-01-25 12:24:00,
2013-01-25 04:25:00,51.8,50.1,29.91,NNW,338,0.0,0.0,94,0.00,,,0.00,VWS V14.01,2013-01-25 12:25:00,
2013-01-25 04:26:00,51.8,50.1,29.91,NNW,338,0.0,0.0,94,0.00,,,0.00,VWS V14.01,2013-01-25 12:26:00,
2013-01-25 04:27:00,51.8,50.1,29.91,NNW,338,0.0,0.0,94,0.00,,,0.00,VWS V14.01,2013-01-25 12:27:00,
2013-01-25 04:28:00,51.8,50.1,29.91,NNW,338,0.0,0.0,94,0.00,,,0.00,VWS V14.01,2013-01-25 12:28:00,
2013-01-25 04:29:00,51.8,50.1,29.91,NNW,338,0.0,0.0,94,0.00,,,0.00,VWS V14.01,2013-01-25 12:29:00,
2013-01-25 04:30:00,51.8,50.1,29.91,NNW,338,0.0,0.0,94,0.00,,,0.00,VWS V14.01,2013-01-25 12:30:00,
2013-01-25 04:31:00,51.8,50.1,29.91,NNW,338,0.0,0.0,94,0.00,,,0.00,VWS V14.01,2013-01-25 12:31:00,
2013-01-25 04:32:00,52.0,50.3,29.91,NNW,338,0.0,0.0,94,0.00,,,0.00,VWS V14.01,2013-01-25 12:32:00,
2013-01-25 04:33:00,52.0,50.3,29.91,NNW,338,0.0,0.0,94,0.00,,,0.00,VWS V14.01,2013-01-25 12:33:00,
2013-01-25 04:34:00,52.0,50.3,29.91,NNW,338,0.0,0.0,94,0.00,,,0.00,VWS V14.01,2013-01-25 12:34:00,
2013-01-25 04:35:00,52.0,50.3,29.91,NNW,338,0.0,0.0,94,0.00,,,0.00,VWS V14.01,2013-01-25 12:35:00,
2013-01-25 04:36:00,52.0,50.3,29.91,NNW,338,0.0,0.0,94,0.00,,,0.00,VWS V14.01,2013-01-25 12:36:00,
2013-01-25 04:37:00,52.0,50.3,29.91,NNW,338,0.0,0.0,94,0.00,,,0.00,VWS V14.01,2013-01-25 12:37:00,
2013-01-25 04:38:00,52.0,50.3,29.91,NNW,338,0.0,0.0,94,0.00,,,0.00,VWS V14.01,2013-01-25 12:38:00,
2013-01-25 04:39:00,52.0,50.3,29.91,NNW,338,0.0,0.0,94,0.00,,,0.00,VWS V14.01,2013-01-25 12:39:00,
2013-01-25 04:40:00,52.0,50.3,29.91,NNW,338,0.0,0.0,94,0.00,,,0.00,VWS V14.01,2013-01-25 12:40:00,
2013-01-25 04:41:00,52.0,50.3,29.91,NNW,338,0.0,0.0,94,0.00,,,0.00,VWS V14.01,2013-01-25 12:41:00,
2013-01-25 04:42:00,52.0,50.6,29.91,NNW,338,0.0,0.0,95,0.00,,,0.00,VWS V14.01,2013-01-25 12:42:00,
2013-01-25 04:43:00,52.0,50.6,29.91,NNW,338,0.0,0.0,95,0.00,,,0.00,VWS V14.01,2013-01-25 12:43:00,
2013-01-25 04:44:00,52.0,50.6,29.91,NNW,338,0.0,0.0,95,0.00,,,0.00,VWS V14.01,2013-01-25 12:44:00,
2013-01-25 04:45:00,52.0,50.6,29.91,NNW,338,0.0,0.0,95,0.00,,,0.00,VWS V14.01,2013-01-25 12:45:00,
2013-01-25 04:46:00,52.0,50.6,29.91,NNE,22,2.5,2.5,95,0.00,,,0.00,VWS V14.01,2013-01-25 12:46:00,
2013-01-25 04:47:00,52.0,50.3,29.91,ENE,68,3.6,3.6,94,0.00,,,0.00,VWS V14.01,2013-01-25 12:47:00,
2013-01-25 04:48:00,52.0,50.3,29.91,ENE,68,3.4,3.6,94,0.00,,,0.00,VWS V14.01,2013-01-25 12:48:00,
2013-01-25 04:49:00,52.0,50.3,29.91,ENE,68,3.8,3.8,94,0.00,,,0.00,VWS V14.01,2013-01-25 12:49:00,
2013-01-25 04:50:00,52.0,50.3,29.91,ENE,68,3.1,3.8,94,0.00,,,0.00,VWS V14.01,2013-01-25 12:50:00,
2013-01-25 04:51:00,52.0,50.3,29.91,ESE,112,2.5,3.1,94,0.00,,,0.00,VWS V14.01,2013-01-25 12:51:00,
2013-01-25 04:52:00,52.0,50.3,29.91,SE,135,0.0,0.0,94,0.00,,,0.00,VWS V14.01,2013-01-25 12:52:00,
2013-01-25 04:53:00,52.0,50.3,29.91,SSE,158,2.2,2.2,94,0.00,,,0.00,VWS V14.01,2013-01-25 12:53:00,
2013-01-25 04:54:00,52.0,50.3,29.91,SSE,158,3.1,3.1,94,0.00,,,0.00,VWS V14.01,2013-01-25 12:54:00,
2013-01-25 04:55:00,52.0,50.3,29.91,SSE,158,3.1,3.1,94,0.00,,,0.00,VWS V14.01,2013-01-25 12:55:00,
2013-01-25 04:56:00,52.0,50.3,29.91,SSE,158,3.6,3.6,94,0.00,,,0.00,VWS V14.01,2013-01-25 12:56:00,
2013-01-25 04:57:00,52.0,50.3,29.91,SE,135,2.9,2.9,94,0.00,,,0.00,VWS V14.01,2013-01-25 12:57:00,
2013-01-25 04:58:00,52.0,50.3,29.91,SE,135,2.9,2.9,94,0.00,,,0.00,VWS V14.01,2013-01-25 12:58:00,
2013-01-25 04:59:00,52.0,50.3,29.91,ESE,112,3.4,3.4,94,0.00,,,0.00,VWS V14.01,2013-01-25 12:59:00,
2013-01-25 05:00:00,52.0,50.3,29.91,SE,135,3.4,3.4,94,0.00,,,0.00,VWS V14.01,2013-01-25 13:00:00,
2013-01-25 05:01:00,52.0,50.3,29.91,ESE,112,2.5,3.4,94,0.00,,,0.00,VWS V14.01,2013-01-25 13:01:00,
2013-01-25 05:02:00,52.0,50.3,29.91,ESE,112,3.1,3.1,94,0.00,,,0.00,VWS V14.01,2013-01-25 13:02:00,
2013-01-25 05:03:00,52.0,50.3,29.91,ESE,112,3.4,3.4,94,0.00,,,0.00,VWS V14.01,2013-01-25 13:03:00,
2013-01-25 05:04:00,52.0,50.6,29.91,SE,135,2.7,3.4,95,0.00,,,0.00,VWS V14.01,2013-01-25 13:04:00,
2013-01-25 05:05:00,52.0,50.6,29.91,SE,135,2.9,2.9,95,0.00,,,0.00,VWS V14.01,2013-01-25 13:05:00,
2013-01-25 05:06:00,52.0,50.6,29.91,ESE,112,2.7,2.9,95,0.00,,,0.00,VWS V14.01,2013-01-25 13:06:00,
2013-01-25 05:07:00,52.0,50.6,29.91,ESE,112,2.7,2.7,95,0.00,,,0.00,VWS V14.01,2013-01-25 13:07:00,
2013-01-25 05:08:00,52.0,50.6,29.91,SSE,158,2.7,2.7,95,0.00,,,0.00,VWS V14.01,2013-01-25 13:08:00,
2013-01-25 05:09:00,52.0,50.6,29.91,ESE,112,2.9,2.9,95,0.00,,,0.00,VWS V14.01,2013-01-25 13:09:00,
2013-01-25 05:10:00,52.0,50.6,29.91,ESE,112,2.9,2.9,95,0.00,,,0.00,VWS V14.01,2013-01-25 13:10:00,
2013-01-25 05:11:00,52.0,50.6,29.91,ESE,112,3.1,3.1,95,0.00,,,0.00,VWS V14.01,2013-01-25 13:11:00,
2013-01-25 05:12:00,52.0,50.6,29.91,East,90,3.8,3.8,95,0.00,,,0.00,VWS V14.01,2013-01-25 13:12:00,
2013-01-25 05:13:00,52.0,50.6,29.91,East,90,3.8,3.8,95,0.00,,,0.00,VWS V14.01,2013-01-25 13:13:00,
2013-01-25 05:14:00,52.0,50.6,29.91,ENE,68,2.7,3.8,95,0.00,,,0.00,VWS V14.01,2013-01-25 13:14:00,
2013-01-25 05:15:00,52.0,50.6,29.91,NNE,22,2.5,2.9,95,0.00,,,0.00,VWS V14.01,2013-01-25 13:15:00,
2013-01-25 05:16:00,52.0,50.6,29.91,NNE,22,0.0,2.5,95,0.00,,,0.00,VWS V14.01,2013-01-25 13:16:00,
2013-01-25 05:17:00,52.0,50.6,29.91,NNE,22,0.0,0.0,95,0.00,,,0.00,VWS V14.01,2013-01-25 13:17:00,
2013-01-25 05:18:00,52.0,50.6,29.91,NNE,22,0.0,0.0,95,0.00,,,0.00,VWS V14.01,2013-01-25 13:18:00,
2013-01-25 05:19:00,52.0,50.6,29.91,NNE,22,1.3,1.3,95,0.00,,,0.00,VWS V14.01,2013-01-25 13:19:00,
2013-01-25 05:20:00,52.0,50.6,29.91,NE,45,0.0,1.3,95,0.00,,,0.00,VWS V14.01,2013-01-25 13:20:00,
2013-01-25 05:21:00,52.0,50.6,29.91,ESE,112,0.0,0.0,95,0.00,,,0.00,VWS V14.01,2013-01-25 13:21:00,
2013-01-25 05:22:00,52.0,50.6,29.91,ESE,112,0.0,0.0,95,0.00,,,0.00,VWS V14.01,2013-01-25 13:22:00,
2013-01-25 05:23:00,52.0,50.6,29.91,ESE,112,0.0,0.0,95,0.00,,,0.00,VWS V14.01,2013-01-25 13:23:00,
2013-01-25 05:24:00,52.0,50.6,29.91,ESE,112,0.0,0.0,95,0.00,,,0.00,VWS V14.01,2013-01-25 13:24:00,
2013-01-25 05:25:00,52.0,50.6,29.91,ESE,112,0.0,0.0,95,0.00,,,0.00,VWS V14.01,2013-01-25 13:25:00,
2013-01-25 05:26:00,52.0,50.6,29.91,ESE,112,0.0,0.0,95,0.00,,,0.00,VWS V14.01,2013-01-25 13:26:00,
2013-01-25 05:27:00,52.0,50.6,29.91,East,90,0.0,2.0,95,0.00,,,0.00,VWS V14.01,2013-01-25 13:27:00,
2013-01-25 05:28:00,52.0,50.6,29.91,East,90,0.0,2.0,95,0.00,,,0.00,VWS V14.01,2013-01-25 13:28:00,
2013-01-25 05:29:00,52.0,50.6,29.91,ESE,112,0.0,0.0,95,0.00,,,0.00,VWS V14.01,2013-01-25 13:29:00,
2013-01-25 05:30:00,52.0,50.6,29.91,ESE,112,0.0,0.0,95,0.00,,,0.00,VWS V14.01,2013-01-25 13:30:00,
2013-01-25 05:31:00,52.0,50.6,29.91,ESE,112,0.0,0.0,95,0.00,,,0.00,VWS V14.01,2013-01-25 13:31:00,
2013-01-25 05:32:00,52.0,50.6,29.91,ESE,112,0.0,0.0,95,0.00,,,0.00,VWS V14.01,2013-01-25 13:32:00,
2013-01-25 05:33:00,52.0,50.6,29.91,ESE,112,0.0,0.0,95,0.00,,,0.00,VWS V14.01,2013-01-25 13:33:00,
2013-01-25 05:34:00,52.0,50.6,29.91,ESE,112,1.3,1.3,95,0.00,,,0.00,VWS V14.01,2013-01-25 13:34:00,
2013-01-25 05:35:00,52.0,50.6,29.91,SE,135,1.6,1.6,95,0.00,,,0.00,VWS V14.01,2013-01-25 13:35:00,
2013-01-25 05:36:00,52.0,50.6,29.91,ESE,112,2.2,2.2,95,0.00,,,0.00,VWS V14.01,2013-01-25 13:36:00,
2013-01-25 05:37:00,52.0,50.6,29.91,ESE,112,2.0,2.5,95,0.00,,,0.00,VWS V14.01,2013-01-25 13:37:00,
2013-01-25 05:38:00,52.0,50.6,29.91,ESE,112,2.0,2.5,95,0.00,,,0.00,VWS V14.01,2013-01-25 13:38:00,
2013-01-25 05:39:00,52.0,50.6,29.91,ESE,112,1.6,2.0,95,0.00,,,0.00,VWS V14.01,2013-01-25 13:39:00,
2013-01-25 05:40:00,52.0,50.6,29.91,East,90,2.7,2.7,95,0.00,,,0.00,VWS V14.01,2013-01-25 13:40:00,
2013-01-25 05:41:00,52.0,50.6,29.91,East,90,1.3,2.7,95,0.00,,,0.00,VWS V14.01,2013-01-25 13:41:00,
2013-01-25 05:42:00,52.0,50.6,29.91,East,90,1.6,1.6,95,0.00,,,0.00,VWS V14.01,2013-01-25 13:42:00,
2013-01-25 05:43:00,52.0,50.6,29.91,East,90,1.3,1.6,95,0.00,,,0.00,VWS V14.01,2013-01-25 13:43:00,
2013-01-25 05:44:00,52.0,50.6,29.91,East,90,0.0,1.3,95,0.00,,,0.00,VWS V14.01,2013-01-25 13:44:00,
2013-01-25 05:45:00,52.0,50.6,29.91,East,90,0.0,0.0,95,0.00,,,0.00,VWS V14.01,2013-01-25 13:45:00,
2013-01-25 05:46:00,52.0,50.6,29.91,East,90,0.0,0.0,95,0.00,,,0.00,VWS V14.01,2013-01-25 13:46:00,
2013-01-25 05:47:00,52.0,50.6,29.91,East,90,0.0,0.0,95,0.00,,,0.00,VWS V14.01,2013-01-25 13:47:00,
2013-01-25 05:48:00,52.0,50.6,29.91,East,90,0.0,0.0,95,0.00,,,0.00,VWS V14.01,2013-01-25 13:48:00,
2013-01-25 05:49:00,52.0,50.6,29.91,East,90,0.0,0.0,95,0.00,,,0.00,VWS V14.01,2013-01-25 13:49:00,
2013-01-25 05:50:00,52.0,50.6,29.91,East,90,0.0,0.0,95,0.00,,,0.00,VWS V14.01,2013-01-25 13:50:00,
2013-01-25 05:51:00,52.0,50.6,29.91,East,90,0.0,0.0,95,0.00,,,0.00,VWS V14.01,2013-01-25 13:51:00,
2013-01-25 05:52:00,52.0,50.6,29.91,East,90,0.0,0.0,95,0.00,,,0.00,VWS V14.01,2013-01-25 13:52:00,
2013-01-25 05:53:00,52.0,50.6,29.91,East,90,0.0,0.0,95,0.00,,,0.00,VWS V14.01,2013-01-25 13:53:00,
2013-01-25 05:54:00,52.0,50.6,29.91,East,90,0.0,0.0,95,0.00,,,0.00,VWS V14.01,2013-01-25 13:54:00,
2013-01-25 05:55:00,52.0,50.6,29.91,East,90,0.0,0.0,95,0.00,,,0.00,VWS V14.01,2013-01-25 13:55:00,
2013-01-25 05:56:00,52.0,50.6,29.91,East,90,0.0,0.0,95,0.00,,,0.00,VWS V14.01,2013-01-25 13:56:00,
2013-01-25 05:57:00,52.0,50.6,29.91,East,90,0.0,0.0,95,0.00,,,0.00,VWS V14.01,2013-01-25 13:57:00,
2013-01-25 05:58:00,52.0,50.6,29.91,East,90,0.0,0.0,95,0.00,,,0.00,VWS V14.01,2013-01-25 13:58:00,
2013-01-25 05:59:00,52.0,50.6,29.91,East,90,0.0,0.0,95,0.00,,,0.00,VWS V14.01,2013-01-25 13:59:00,
2013-01-25 06:00:00,52.0,50.6,29.91,East,90,0.0,0.0,95,0.00,,,0.00,VWS V14.01,2013-01-25 14:00:00,
2013-01-25 06:01:00,52.2,50.8,29.91,ENE,68,1.1,1.1,95,0.00,,,0.00,VWS V14.01,2013-01-25 14:01:00,
2013-01-25 06:02:00,52.2,50.8,29.91,ENE,68,2.0,2.7,95,0.00,,,0.00,VWS V14.01,2013-01-25 14:02:00,
2013-01-25 06:03:00,52.2,50.8,29.91,ENE,68,2.0,2.7,95,0.00,,,0.00,VWS V14.01,2013-01-25 14:03:00,
2013-01-25 06:04:00,52.2,50.8,29.91,NNE,22,2.2,2.2,95,0.00,,,0.00,VWS V14.01,2013-01-25 14:04:00,
2013-01-25 06:05:00,52.2,50.8,29.91,NNE,22,2.5,2.5,95,0.00,,,0.00,VWS V14.01,2013-01-25 14:05:00,
2013-01-25 06:06:00,52.3,51.0,29.91,NNE,22,3.4,3.4,95,0.00,,,0.00,VWS V14.01,2013-01-25 14:06:00,
2013-01-25 06:07:00,52.3,51.0,29.91,NNE,22,3.8,3.8,95,0.00,,,0.00,VWS V14.01,2013-01-25 14:07:00,
2013-01-25 06:08:00,52.3,51.0,29.91,NNE,22,2.7,3.8,95,0.00,,,0.00,VWS V14.01,2013-01-25 14:08:00,
2013-01-25 06:09:00,52.3,51.0,29.91,NNE,22,2.5,2.7,95,0.00,,,0.00,VWS V14.01,2013-01-25 14:09:00,
2013-01-25 06:10:00,52.5,51.4,29.91,NNE,22,3.8,3.8,96,0.00,,,0.00,VWS V14.01,2013-01-25 14:10:00,
2013-01-25 06:11:00,52.5,51.4,29.91,ENE,68,3.8,3.8,96,0.00,,,0.00,VWS V14.01,2013-01-25 14:11:00,
2013-01-25 06:12:00,52.5,51.4,29.91,NE,45,3.1,3.1,96,0.00,,,0.00,VWS V14.01,2013-01-25 14:12:00,
2013-01-25 06:13:00,52.5,51.4,29.91,North,0,3.6,3.6,96,0.00,,,0.00,VWS V14.01,2013-01-25 14:13:00,
2013-01-25 06:14:00,52.5,51.4,29.91,NE,45,4.9,4.9,96,0.00,,,0.00,VWS V14.01,2013-01-25 14:14:00,
2013-01-25 06:15:00,52.5,51.1,29.91,NE,45,4.0,4.9,95,0.00,,,0.00,VWS V14.01,2013-01-25 14:15:00,
2013-01-25 06:16:00,52.5,51.1,29.91,ENE,68,3.4,4.0,95,0.00,,,0.00,VWS V14.01,2013-01-25 14:16:00,
2013-01-25 06:17:00,52.5,51.1,29.91,NNE,22,3.8,3.8,95,0.00,,,0.00,VWS V14.01,2013-01-25 14:17:00,
2013-01-25 06:18:00,52.5,51.1,29.91,NNE,22,5.6,5.6,95,0.00,,,0.00,VWS V14.01,2013-01-25 14:18:00,
2013-01-25 06:19:00,52.5,51.1,29.91,NNE,22,4.9,5.6,95,0.00,,,0.00,VWS V14.01,2013-01-25 14:19:00,
2013-01-25 06:20:00,52.7,51.3,29.91,NNE,22,4.3,4.9,95,0.00,,,0.00,VWS V14.01,2013-01-25 14:20:00,
2013-01-25 06:21:00,52.7,51.3,29.91,NNE,22,3.6,4.3,95,0.00,,,0.00,VWS V14.01,2013-01-25 14:21:00,
2013-01-25 06:22:00,52.5,51.1,29.91,NE,45,4.0,4.0,95,0.00,,,0.00,VWS V14.01,2013-01-25 14:22:00,
2013-01-25 06:23:00,52.5,51.1,29.91,NNE,22,4.7,4.7,95,0.00,,,0.00,VWS V14.01,2013-01-25 14:23:00,
2013-01-25 06:24:00,52.5,51.4,29.91,NNE,22,6.5,6.5,96,0.00,,,0.00,VWS V14.01,2013-01-25 14:24:00,
2013-01-25 06:25:00,52.5,51.4,29.91,NE,45,3.6,6.5,96,0.00,,,0.00,VWS V14.01,2013-01-25 14:25:00,
2013-01-25 06:26:00,52.5,51.4,29.91,ENE,68,3.8,3.8,96,0.00,,,0.00,VWS V14.01,2013-01-25 14:26:00,
2013-01-25 06:27:00,52.5,51.4,29.91,NE,45,3.4,3.8,96,0.00,,,0.00,VWS V14.01,2013-01-25 14:27:00,
2013-01-25 06:28:00,52.5,51.4,29.91,NE,45,3.4,3.8,96,0.00,,,0.00,VWS V14.01,2013-01-25 14:28:00,
2013-01-25 06:29:00,52.5,51.4,29.91,NE,45,2.7,3.4,96,0.00,,,0.00,VWS V14.01,2013-01-25 14:29:00,
2013-01-25 06:30:00,52.5,51.4,29.91,NNE,22,0.0,3.1,96,0.00,,,0.00,VWS V14.01,2013-01-25 14:30:00,
2013-01-25 06:31:00,52.5,51.4,29.91,NNE,22,4.0,4.0,96,0.00,,,0.00,VWS V14.01,2013-01-25 14:31:00,
2013-01-25 06:32:00,52.5,51.4,29.91,NNE,22,4.3,4.3,96,0.00,,,0.00,VWS V14.01,2013-01-25 14:32:00,
2013-01-25 06:33:00,52.5,51.4,29.91,North,0,6.0,6.0,96,0.00,,,0.00,VWS V14.01,2013-01-25 14:33:00,
2013-01-25 06:34:00,52.5,51.4,29.91,NNE,22,0.0,6.0,96,0.00,,,0.00,VWS V14.01,2013-01-25 14:34:00,
2013-01-25 06:35:00,52.5,51.4,29.91,NE,45,0.0,0.0,96,0.00,,,0.00,VWS V14.01,2013-01-25 14:35:00,
2013-01-25 06:36:00,52.5,51.4,29.91,NNE,22,3.8,3.8,96,0.00,,,0.00,VWS V14.01,2013-01-25 14:36:00,
2013-01-25 06:37:00,52.5,51.4,29.91,NNW,338,2.7,2.7,96,0.00,,,0.00,VWS V14.01,2013-01-25 14:37:00,
2013-01-25 06:38:00,52.5,51.4,29.91,NNE,22,5.6,5.6,96,0.00,,,0.00,VWS V14.01,2013-01-25 14:38:00,
2013-01-25 06:39:00,52.5,51.4,29.91,NNE,22,4.7,5.6,96,0.00,,,0.00,VWS V14.01,2013-01-25 14:39:00,
2013-01-25 06:40:00,52.5,51.4,29.91,NNE,22,3.6,4.7,96,0.00,,,0.00,VWS V14.01,2013-01-25 14:40:00,
2013-01-25 06:41:00,52.7,51.6,29.91,NE,45,2.9,3.6,96,0.00,,,0.00,VWS V14.01,2013-01-25 14:41:00,
2013-01-25 06:42:00,52.7,51.6,29.91,NNE,22,5.8,5.8,96,0.00,,,0.00,VWS V14.01,2013-01-25 14:42:00,
2013-01-25 06:43:00,52.7,51.6,29.91,NNE,22,5.8,5.8,96,0.00,,,0.00,VWS V14.01,2013-01-25 14:43:00,
2013-01-25 06:44:00,52.7,51.6,29.91,ENE,68,5.4,5.8,96,0.00,,,0.00,VWS V14.01,2013-01-25 14:44:00,
2013-01-25 06:45:00,52.7,51.6,29.91,East,90,5.8,5.8,96,0.00,,,0.00,VWS V14.01,2013-01-25 14:45:00,
2013-01-25 06:46:00,52.7,51.6,29.91,ENE,68,3.6,5.8,96,0.00,,,0.00,VWS V14.01,2013-01-25 14:46:00,
2013-01-25 06:47:00,52.7,51.6,29.91,East,90,2.7,2.7,96,0.00,,,0.00,VWS V14.01,2013-01-25 14:47:00,
2013-01-25 06:48:00,52.7,51.6,29.91,East,90,2.7,2.7,96,0.00,,,0.00,VWS V14.01,2013-01-25 14:48:00,
2013-01-25 06:49:00,52.7,51.6,29.91,East,90,2.9,2.9,96,0.00,,,0.00,VWS V14.01,2013-01-25 14:49:00,
2013-01-25 06:50:00,52.7,51.6,29.91,ENE,68,2.7,2.9,96,0.00,,,0.00,VWS V14.01,2013-01-25 14:50:00,
2013-01-25 06:51:00,52.7,51.6,29.91,ENE,68,3.6,3.6,96,0.00,,,0.00,VWS V14.01,2013-01-25 14:51:00,
2013-01-25 06:52:00,52.9,51.8,29.91,NNE,22,3.8,3.8,96,0.00,,,0.00,VWS V14.01,2013-01-25 14:52:00,
2013-01-25 06:53:00,52.9,51.8,29.91,NNE,22,3.8,3.8,96,0.00,,,0.00,VWS V14.01,2013-01-25 14:53:00,
2013-01-25 06:54:00,52.9,51.8,29.91,NNE,22,3.8,3.8,96,0.00,,,0.00,VWS V14.01,2013-01-25 14:54:00,
2013-01-25 06:55:00,52.9,51.8,29.91,NE,45,3.6,3.8,96,0.00,,,0.00,VWS V14.01,2013-01-25 14:55:00,
2013-01-25 06:56:00,52.9,51.8,29.91,NE,45,2.7,3.6,96,0.00,,,0.00,VWS V14.01,2013-01-25 14:56:00,
2013-01-25 06:57:00,52.9,51.8,29.91,NE,45,3.4,4.0,96,0.00,,,0.00,VWS V14.01,2013-01-25 14:57:00,
2013-01-25 06:58:00,52.9,51.8,29.91,NE,45,4.0,4.0,96,0.00,,,0.00,VWS V14.01,2013-01-25 14:58:00,
2013-01-25 06:59:00,52.9,51.8,29.91,NE,45,3.6,4.0,96,0.00,,,0.00,VWS V14.01,2013-01-25 14:59:00,
2013-01-25 07:00:00,52.9,51.8,29.91,NE,45,2.9,3.6,96,0.00,,,0.00,VWS V14.01,2013-01-25 15:00:00,
2013-01-25 07:01:00,52.9,51.8,29.91,NE,45,3.1,3.1,96,0.00,,,0.00,VWS V14.01,2013-01-25 15:01:00,
2013-01-25 07:02:00,52.9,51.8,29.91,NE,45,2.9,2.9,96,0.00,,,0.00,VWS V14.01,2013-01-25 15:02:00,
2013-01-25 07:03:00,52.9,51.8,29.91,NE,45,3.1,3.1,96,0.00,,,0.00,VWS V14.01,2013-01-25 15:03:00,
2013-01-25 07:04:00,52.9,51.8,29.91,NE,45,2.9,3.1,96,0.00,,,0.00,VWS V14.01,2013-01-25 15:04:00,
2013-01-25 07:05:00,52.9,51.8,29.91,NE,45,2.2,2.9,96,0.00,,,0.00,VWS V14.01,2013-01-25 15:05:00,
2013-01-25 07:06:00,52.9,51.8,29.91,NE,45,2.2,2.2,96,0.00,,,0.00,VWS V14.01,2013-01-25 15:06:00,
2013-01-25 07:07:00,52.9,51.8,29.91,ESE,112,2.9,2.9,96,0.00,,,0.00,VWS V14.01,2013-01-25 15:07:00,
2013-01-25 07:08:00,52.9,51.8,29.91,ESE,112,2.9,2.9,96,0.00,,,0.00,VWS V14.01,2013-01-25 15:08:00,
2013-01-25 07:09:00,52.9,51.8,29.91,ESE,112,2.9,2.9,96,0.00,,,0.00,VWS V14.01,2013-01-25 15:09:00,
2013-01-25 07:10:00,52.9,51.8,29.91,ESE,112,1.1,2.9,96,0.00,,,0.00,VWS V14.01,2013-01-25 15:10:00,
2013-01-25 07:11:00,52.9,51.8,29.91,ESE,112,3.1,3.1,96,0.00,,,0.00,VWS V14.01,2013-01-25 15:11:00,
2013-01-25 07:12:00,52.9,51.8,29.91,ESE,112,3.1,3.1,96,0.00,,,0.00,VWS V14.01,2013-01-25 15:12:00,
2013-01-25 07:13:00,52.9,51.8,29.91,SE,135,2.2,3.1,96,0.00,,,0.00,VWS V14.01,2013-01-25 15:13:00,
2013-01-25 07:14:00,52.9,51.8,29.91,SSE,158,4.0,4.0,96,0.00,,,0.00,VWS V14.01,2013-01-25 15:14:00,
2013-01-25 07:15:00,52.9,51.8,29.91,SE,135,3.1,4.0,96,0.00,,,0.00,VWS V14.01,2013-01-25 15:15:00,
2013-01-25 07:16:00,52.9,51.8,29.91,SE,135,2.9,3.1,96,0.00,,,0.00,VWS V14.01,2013-01-25 15:16:00,
2013-01-25 07:17:00,52.9,51.8,29.91,SSE,158,3.6,3.6,96,0.00,,,0.00,VWS V14.01,2013-01-25 15:17:00,
2013-01-25 07:18:00,52.9,51.8,29.91,ESE,112,3.1,3.6,96,0.00,,,0.00,VWS V14.01,2013-01-25 15:18:00,
2013-01-25 07:19:00,52.9,51.8,29.91,ENE,68,3.4,3.4,96,0.00,,,0.00,VWS V14.01,2013-01-25 15:19:00,
2013-01-25 07:20:00,52.9,51.8,29.91,East,90,2.9,3.4,96,0.00,,,0.00,VWS V14.01,2013-01-25 15:20:00,
2013-01-25 07:21:00,52.9,51.8,29.91,SE,135,1.6,2.9,96,0.00,,,0.00,VWS V14.01,2013-01-25 15:21:00,
2013-01-25 07:22:00,52.3,51.2,29.91,SE,135,1.6,1.6,96,0.00,,,0.00,VWS V14.01,2013-01-25 15:22:00,
2013-01-25 07:23:00,52.3,51.2,29.91,SE,135,1.6,1.6,96,0.00,,,0.00,VWS V14.01,2013-01-25 15:23:00,
2013-01-25 07:24:00,52.3,51.2,29.91,SE,135,4.3,4.3,96,0.00,,,0.00,VWS V14.01,2013-01-25 15:24:00,
2013-01-25 07:25:00,52.3,51.2,29.91,ESE,112,3.8,4.3,96,0.00,,,0.00,VWS V14.01,2013-01-25 15:25:00,
2013-01-25 07:26:00,52.3,51.2,29.91,ESE,112,3.8,3.8,96,0.00,,,0.00,VWS V14.01,2013-01-25 15:26:00,
2013-01-25 07:27:00,52.2,51.1,29.91,ESE,112,4.9,4.9,96,0.00,,,0.00,VWS V14.01,2013-01-25 15:27:00,
2013-01-25 07:28:00,52.2,51.1,29.91,ESE,112,1.6,4.9,96,0.00,,,0.00,VWS V14.01,2013-01-25 15:28:00,
2013-01-25 07:29:00,52.2,51.1,29.91,ESE,112,4.0,4.0,96,0.00,,,0.00,VWS V14.01,2013-01-25 15:29:00,
2013-01-25 07:30:00,52.2,51.1,29.88,East,90,2.9,4.0,96,0.00,,,0.00,VWS V14.01,2013-01-25 15:30:00,
2013-01-25 07:31:00,52.2,51.1,29.88,ESE,112,4.0,4.0,96,0.00,,,0.00,VWS V14.01,2013-01-25 15:31:00,
2013-01-25 07:32:00,52.2,51.1,29.88,ESE,112,5.8,5.8,96,0.00,,,0.00,VWS V14.01,2013-01-25 15:32:00,
2013-01-25 07:33:00,52.2,51.1,29.88,ESE,112,3.1,5.8,96,0.00,,,0.00,VWS V14.01,2013-01-25 15:33:00,
2013-01-25 07:34:00,52.2,51.1,29.88,East,90,4.9,4.9,96,0.00,,,0.00,VWS V14.01,2013-01-25 15:34:00,
2013-01-25 07:35:00,52.0,50.9,29.88,SE,135,2.9,4.9,96,0.00,,,0.00,VWS V14.01,2013-01-25 15:35:00,
2013-01-25 07:36:00,52.0,50.9,29.88,ENE,68,3.6,3.6,96,0.00,,,0.00,VWS V14.01,2013-01-25 15:36:00,
2013-01-25 07:37:00,52.0,50.9,29.88,East,90,3.1,4.3,96,0.00,,,0.00,VWS V14.01,2013-01-25 15:37:00,
2013-01-25 07:38:00,52.0,50.9,29.88,East,90,3.1,4.3,96,0.00,,,0.00,VWS V14.01,2013-01-25 15:38:00,
2013-01-25 07:39:00,52.0,50.9,29.88,East,90,3.6,4.0,96,0.00,,,0.00,VWS V14.01,2013-01-25 15:39:00,
2013-01-25 07:40:00,52.0,50.9,29.88,ENE,68,3.4,3.6,96,0.00,,,0.00,VWS V14.01,2013-01-25 15:40:00,
2013-01-25 07:41:00,52.0,50.9,29.88,NE,45,2.7,3.4,96,0.00,,,0.00,VWS V14.01,2013-01-25 15:41:00,
2013-01-25 07:42:00,52.0,50.9,29.88,NE,45,1.6,2.7,96,0.00,,,0.00,VWS V14.01,2013-01-25 15:42:00,
2013-01-25 07:43:00,52.0,50.9,29.88,NNE,22,0.0,2.7,96,0.00,,,0.00,VWS V14.01,2013-01-25 15:43:00,
2013-01-25 07:44:00,52.0,50.9,29.88,NNE,22,0.0,0.0,96,0.00,,,0.00,VWS V14.01,2013-01-25 15:44:00,
2013-01-25 07:45:00,52.0,50.9,29.91,NNE,22,0.0,0.0,96,0.00,,,0.00,VWS V14.01,2013-01-25 15:45:00,
2013-01-25 07:46:00,52.0,50.9,29.91,NNE,22,0.0,0.0,96,0.00,,,0.00,VWS V14.01,2013-01-25 15:46:00,
2013-01-25 07:47:00,52.0,50.9,29.91,ESE,112,0.0,0.0,96,0.00,,,0.00,VWS V14.01,2013-01-25 15:47:00,
2013-01-25 07:48:00,52.0,50.9,29.91,East,90,0.0,0.0,96,0.00,,,0.00,VWS V14.01,2013-01-25 15:48:00,
2013-01-25 07:49:00,52.0,50.9,29.91,ESE,112,0.9,0.9,96,0.00,,,0.00,VWS V14.01,2013-01-25 15:49:00,
2013-01-25 07:50:00,52.0,50.9,29.91,ESE,112,3.1,3.1,96,0.00,,,0.00,VWS V14.01,2013-01-25 15:50:00,
2013-01-25 07:51:00,52.0,50.9,29.91,ESE,112,4.9,4.9,96,0.00,,,0.00,VWS V14.01,2013-01-25 15:51:00,
2013-01-25 07:52:00,52.0,50.9,29.91,ESE,112,4.9,4.9,96,0.00,,,0.00,VWS V14.01,2013-01-25 15:52:00,
2013-01-25 07:53:00,52.0,50.9,29.91,ESE,112,4.9,4.9,96,0.00,,,0.00,VWS V14.01,2013-01-25 15:53:00,
2013-01-25 07:54:00,52.0,50.9,29.91,ESE,112,3.6,4.9,96,0.00,,,0.00,VWS V14.01,2013-01-25 15:54:00,
2013-01-25 07:55:00,52.0,50.9,29.91,SE,135,3.6,3.6,96,0.00,,,0.00,VWS V14.01,2013-01-25 15:55:00,
2013-01-25 07:56:00,52.0,50.9,29.91,SE,135,3.6,3.6,96,0.00,,,0.00,VWS V14.01,2013-01-25 15:56:00,
2013-01-25 07:57:00,52.0,50.9,29.91,ESE,112,2.9,2.9,96,0.00,,,0.00,VWS V14.01,2013-01-25 15:57:00,
2013-01-25 07:58:00,52.0,50.9,29.91,ESE,112,2.9,2.9,96,0.00,,,0.00,VWS V14.01,2013-01-25 15:58:00,
2013-01-25 07:59:00,52.0,50.9,29.91,SE,135,3.1,3.1,96,0.00,,,0.00,VWS V14.01,2013-01-25 15:59:00,
2013-01-25 08:00:00,52.0,50.9,29.91,SE,135,3.1,3.1,96,0.00,,,0.00,VWS V14.01,2013-01-25 16:00:00,
2013-01-25 08:01:00,52.0,50.9,29.91,ESE,112,3.1,3.1,96,0.00,,,0.00,VWS V14.01,2013-01-25 16:01:00,
2013-01-25 08:02:00,52.0,50.9,29.91,East,90,3.6,3.6,96,0.00,,,0.00,VWS V14.01,2013-01-25 16:02:00,
2013-01-25 08:03:00,52.0,50.9,29.91,ENE,68,2.9,3.6,96,0.00,,,0.00,VWS V14.01,2013-01-25 16:03:00,
2013-01-25 08:04:00,52.0,51.2,29.91,ESE,112,0.9,2.9,97,0.00,,,0.00,VWS V14.01,2013-01-25 16:04:00,
2013-01-25 08:05:00,52.0,51.2,29.91,ESE,112,1.6,1.6,97,0.00,,,0.00,VWS V14.01,2013-01-25 16:05:00,
2013-01-25 08:06:00,52.0,51.2,29.91,ESE,112,2.2,2.2,97,0.00,,,0.00,VWS V14.01,2013-01-25 16:06:00,
2013-01-25 08:07:00,52.0,51.2,29.91,ESE,112,1.6,1.6,97,0.00,,,0.00,VWS V14.01,2013-01-25 16:07:00,
2013-01-25 08:08:00,52.0,51.2,29.91,ESE,112,0.0,1.6,97,0.00,,,0.00,VWS V14.01,2013-01-25 16:08:00,
2013-01-25 08:09:00,52.0,51.2,29.91,ESE,112,0.0,0.0,97,0.00,,,0.00,VWS V14.01,2013-01-25 16:09:00,
2013-01-25 08:10:00,52.0,51.2,29.91,ESE,112,0.0,0.0,97,0.00,,,0.00,VWS V14.01,2013-01-25 16:10:00,
2013-01-25 08:11:00,52.0,51.2,29.91,ESE,112,0.0,0.0,97,0.00,,,0.00,VWS V14.01,2013-01-25 16:11:00,
2013-01-25 08:12:00,52.0,51.2,29.91,ESE,112,0.0,0.0,97,0.00,,,0.00,VWS V14.01,2013-01-25 16:12:00,
2013-01-25 08:13:00,52.0,51.2,29.91,ESE,112,0.0,0.0,97,0.00,,,0.00,VWS V14.01,2013-01-25 16:13:00,
2013-01-25 08:14:00,52.2,51.1,29.91,ESE,112,0.0,0.0,96,0.00,,,0.00,VWS V14.01,2013-01-25 16:14:00,
2013-01-25 08:15:00,52.2,51.1,29.91,ESE,112,0.0,0.0,96,0.00,,,0.00,VWS V14.01,2013-01-25 16:15:00,
2013-01-25 08:16:00,52.2,51.1,29.91,ESE,112,0.0,0.0,96,0.00,,,0.00,VWS V14.01,2013-01-25 16:16:00,
2013-01-25 08:17:00,52.2,51.3,29.91,ESE,112,0.0,0.0,97,0.00,,,0.00,VWS V14.01,2013-01-25 16:17:00,
2013-01-25 08:18:00,52.2,51.3,29.91,ESE,112,0.0,0.0,97,0.00,,,0.00,VWS V14.01,2013-01-25 16:18:00,
2013-01-25 08:19:00,52.2,51.3,29.91,ESE,112,0.0,0.0,97,0.00,,,0.00,VWS V14.01,2013-01-25 16:19:00,
2013-01-25 08:20:00,52.2,51.3,29.91,ESE,112,0.0,0.0,97,0.00,,,0.00,VWS V14.01,2013-01-25 16:20:00,
2013-01-25 08:21:00,52.2,51.3,29.91,ESE,112,0.0,0.0,97,0.00,,,0.00,VWS V14.01,2013-01-25 16:21:00,
2013-01-25 08:22:00,52.2,51.3,29.91,ESE,112,0.0,0.0,97,0.00,,,0.00,VWS V14.01,2013-01-25 16:22:00,
2013-01-25 08:23:00,52.2,51.3,29.91,ESE,112,0.0,0.0,97,0.00,,,0.00,VWS V14.01,2013-01-25 16:23:00,
2013-01-25 08:24:00,52.2,51.3,29.91,ESE,112,0.0,0.0,97,0.00,,,0.00,VWS V14.01,2013-01-25 16:24:00,
2013-01-25 08:25:00,52.2,51.3,29.91,ESE,112,0.0,0.0,97,0.00,,,0.00,VWS V14.01,2013-01-25 16:25:00,
2013-01-25 08:26:00,52.2,51.3,29.91,ESE,112,0.0,0.0,97,0.00,,,0.00,VWS V14.01,2013-01-25 16:26:00,
2013-01-25 08:27:00,52.5,51.7,29.91,ESE,112,0.0,0.0,97,0.00,,,0.00,VWS V14.01,2013-01-25 16:27:00,
2013-01-25 08:28:00,52.7,51.9,29.91,ESE,112,0.0,0.0,97,0.00,,,0.00,VWS V14.01,2013-01-25 16:28:00,
2013-01-25 08:29:00,52.7,51.9,29.91,ESE,112,0.0,0.0,97,0.00,,,0.00,VWS V14.01,2013-01-25 16:29:00,
2013-01-25 08:30:00,52.7,51.9,29.91,ESE,112,0.0,0.0,97,0.00,,,0.00,VWS V14.01,2013-01-25 16:30:00,
2013-01-25 08:31:00,52.7,51.9,29.91,ESE,112,0.0,0.0,97,0.00,,,0.00,VWS V14.01,2013-01-25 16:31:00,
2013-01-25 08:32:00,52.7,51.9,29.91,ESE,112,0.0,0.0,97,0.00,,,0.00,VWS V14.01,2013-01-25 16:32:00,
2013-01-25 08:33:00,52.7,51.9,29.91,ESE,112,0.0,0.0,97,0.00,,,0.00,VWS V14.01,2013-01-25 16:33:00,
2013-01-25 08:34:00,52.7,51.9,29.91,ESE,112,0.0,0.0,97,0.00,,,0.00,VWS V14.01,2013-01-25 16:34:00,
2013-01-25 08:35:00,52.7,51.9,29.91,ESE,112,0.0,0.0,97,0.00,,,0.00,VWS V14.01,2013-01-25 16:35:00,
2013-01-25 08:36:00,52.7,51.9,29.91,East,90,2.2,2.2,97,0.00,,,0.00,VWS V14.01,2013-01-25 16:36:00,
2013-01-25 08:37:00,52.9,52.0,29.91,East,90,0.0,0.0,97,0.00,,,0.00,VWS V14.01,2013-01-25 16:37:00,
2013-01-25 08:38:00,52.9,52.0,29.91,SE,135,0.0,0.0,97,0.00,,,0.00,VWS V14.01,2013-01-25 16:38:00,
2013-01-25 08:39:00,53.1,52.2,29.91,SE,135,1.1,1.1,97,0.00,,,0.00,VWS V14.01,2013-01-25 16:39:00,
2013-01-25 08:40:00,53.1,52.2,29.91,SE,135,1.6,1.6,97,0.00,,,0.00,VWS V14.01,2013-01-25 16:40:00,
2013-01-25 08:41:00,53.1,52.2,29.91,SE,135,2.5,2.5,97,0.00,,,0.00,VWS V14.01,2013-01-25 16:41:00,
2013-01-25 08:42:00,53.1,52.2,29.91,ESE,112,1.1,2.7,97,0.00,,,0.00,VWS V14.01,2013-01-25 16:42:00,
2013-01-25 08:43:00,53.1,52.2,29.91,ESE,112,1.1,2.7,97,0.00,,,0.00,VWS V14.01,2013-01-25 16:43:00,
2013-01-25 08:44:00,52.9,52.0,29.91,SE,135,2.2,2.2,97,0.00,,,0.00,VWS V14.01,2013-01-25 16:44:00,
2013-01-25 08:45:00,52.9,52.0,29.91,SE,135,2.5,2.5,97,0.00,,,0.00,VWS V14.01,2013-01-25 16:45:00,
2013-01-25 08:46:00,52.9,52.0,29.91,SE,135,2.5,2.5,97,0.00,,,0.00,VWS V14.01,2013-01-25 16:46:00,
2013-01-25 08:47:00,52.9,51.8,29.91,SSE,158,1.3,1.3,96,0.00,,,0.00,VWS V14.01,2013-01-25 16:47:00,
2013-01-25 08:48:00,52.9,51.8,29.91,SSE,158,1.6,1.6,96,0.00,,,0.00,VWS V14.01,2013-01-25 16:48:00,
2013-01-25 08:49:00,52.9,51.8,29.91,SSE,158,2.0,2.0,96,0.00,,,0.00,VWS V14.01,2013-01-25 16:49:00,
2013-01-25 08:50:00,52.9,51.8,29.91,SE,135,2.0,2.0,96,0.00,,,0.00,VWS V14.01,2013-01-25 16:50:00,
2013-01-25 08:51:00,52.9,51.8,29.91,SE,135,2.0,2.0,96,0.00,,,0.00,VWS V14.01,2013-01-25 16:51:00,
2013-01-25 08:52:00,52.9,51.8,29.91,ESE,112,1.6,1.6,96,0.00,,,0.00,VWS V14.01,2013-01-25 16:52:00,
2013-01-25 08:53:00,53.1,52.0,29.91,ESE,112,2.7,2.7,96,0.00,,,0.00,VWS V14.01,2013-01-25 16:53:00,
2013-01-25 08:54:00,53.1,52.0,29.91,ESE,112,0.9,2.7,96,0.00,,,0.00,VWS V14.01,2013-01-25 16:54:00,
2013-01-25 08:55:00,53.1,52.2,29.91,ESE,112,2.2,2.2,97,0.00,,,0.00,VWS V14.01,2013-01-25 16:55:00,
2013-01-25 08:56:00,53.1,52.2,29.91,ESE,112,2.0,2.2,97,0.00,,,0.00,VWS V14.01,2013-01-25 16:56:00,
2013-01-25 08:57:00,53.2,52.4,29.91,ESE,112,1.6,1.6,97,0.00,,,0.00,VWS V14.01,2013-01-25 16:57:00,
2013-01-25 08:58:00,53.2,52.4,29.91,ESE,112,1.6,1.6,97,0.00,,,0.00,VWS V14.01,2013-01-25 16:58:00,
2013-01-25 08:59:00,53.2,52.4,29.91,ESE,112,0.0,1.6,97,0.00,,,0.00,VWS V14.01,2013-01-25 16:59:00,
2013-01-25 09:00:00,53.4,52.6,29.91,ESE,112,0.0,0.0,97,0.00,,,0.00,VWS V14.01,2013-01-25 17:00:00,
2013-01-25 09:01:00,53.4,52.6,29.91,ESE,112,1.1,1.1,97,0.00,,,0.00,VWS V14.01,2013-01-25 17:01:00,
2013-01-25 09:02:00,53.4,52.6,29.91,ESE,112,0.0,0.0,97,0.00,,,0.00,VWS V14.01,2013-01-25 17:02:00,
2013-01-25 09:03:00,53.4,52.6,29.91,ESE,112,1.1,1.1,97,0.00,,,0.00,VWS V14.01,2013-01-25 17:03:00,
2013-01-25 09:04:00,53.4,52.6,29.91,SE,135,1.3,1.3,97,0.00,,,0.00,VWS V14.01,2013-01-25 17:04:00,
2013-01-25 09:05:00,53.4,52.6,29.91,ESE,112,2.9,2.9,97,0.00,,,0.00,VWS V14.01,2013-01-25 17:05:00,
2013-01-25 09:06:00,53.6,52.5,29.91,ESE,112,3.1,3.1,96,0.00,,,0.00,VWS V14.01,2013-01-25 17:06:00,
2013-01-25 09:07:00,53.6,52.5,29.91,ESE,112,3.4,3.4,96,0.00,,,0.00,VWS V14.01,2013-01-25 17:07:00,
2013-01-25 09:08:00,53.6,52.5,29.91,East,90,3.6,3.6,96,0.00,,,0.00,VWS V14.01,2013-01-25 17:08:00,
2013-01-25 09:09:00,53.6,52.5,29.91,SE,135,1.1,3.6,96,0.00,,,0.00,VWS V14.01,2013-01-25 17:09:00,
2013-01-25 09:10:00,53.6,52.5,29.91,ESE,112,3.1,3.1,96,0.00,,,0.00,VWS V14.01,2013-01-25 17:10:00,
2013-01-25 09:11:00,53.8,52.7,29.91,SE,135,2.7,3.1,96,0.00,,,0.00,VWS V14.01,2013-01-25 17:11:00,
2013-01-25 09:12:00,53.8,52.7,29.91,SE,135,4.9,4.9,96,0.00,,,0.00,VWS V14.01,2013-01-25 17:12:00,
2013-01-25 09:13:00,53.8,52.7,29.91,ESE,112,2.7,4.9,96,0.00,,,0.00,VWS V14.01,2013-01-25 17:13:00,
2013-01-25 09:14:00,53.8,52.7,29.91,ESE,112,3.6,3.6,96,0.00,,,0.00,VWS V14.01,2013-01-25 17:14:00,
2013-01-25 09:15:00,53.8,52.7,29.91,NNW,338,4.3,4.3,96,0.00,,,0.00,VWS V14.01,2013-01-25 17:15:00,
2013-01-25 09:16:00,53.8,52.7,29.91,ESE,112,5.4,5.4,96,0.00,,,0.00,VWS V14.01,2013-01-25 17:16:00,
2013-01-25 09:17:00,53.8,52.7,29.91,East,90,5.6,5.6,96,0.00,,,0.00,VWS V14.01,2013-01-25 17:17:00,
2013-01-25 09:18:00,53.8,52.7,29.91,East,90,5.6,5.6,96,0.00,,,0.00,VWS V14.01,2013-01-25 17:18:00,
2013-01-25 09:19:00,53.8,52.7,29.91,SSW,202,4.0,5.6,96,0.00,,,0.00,VWS V14.01,2013-01-25 17:19:00,
2013-01-25 09:20:00,54.0,52.8,29.91,SSW,202,4.0,4.0,96,0.00,,,0.00,VWS V14.01,2013-01-25 17:20:00,
2013-01-25 09:21:00,54.0,52.8,29.91,ESE,112,6.3,6.3,96,0.00,,,0.00,VWS V14.01,2013-01-25 17:21:00,
2013-01-25 09:22:00,54.0,52.8,29.91,NE,45,7.4,7.4,96,0.00,,,0.00,VWS V14.01,2013-01-25 17:22:00,
2013-01-25 09:23:00,53.8,52.7,29.91,South,180,4.0,7.4,96,0.00,,,0.00,VWS V14.01,2013-01-25 17:23:00,
2013-01-25 09:24:00,53.8,52.7,29.91,ESE,112,3.4,4.0,96,0.00,,,0.00,VWS V14.01,2013-01-25 17:24:00,
2013-01-25 09:25:00,53.8,52.7,29.91,ESE,112,3.4,3.4,96,0.00,,,0.00,VWS V14.01,2013-01-25 17:25:00,
2013-01-25 09:26:00,53.8,52.7,29.91,SSE,158,2.7,3.4,96,0.00,,,0.00,VWS V14.01,2013-01-25 17:26:00,
2013-01-25 09:27:00,54.0,52.8,29.91,SSE,158,4.3,4.3,96,0.00,,,0.00,VWS V14.01,2013-01-25 17:27:00,
2013-01-25 09:28:00,54.0,52.8,29.91,South,180,3.1,3.1,96,0.00,,,0.00,VWS V14.01,2013-01-25 17:28:00,
2013-01-25 09:29:00,54.0,52.8,29.91,ESE,112,2.9,3.1,96,0.00,,,0.00,VWS V14.01,2013-01-25 17:29:00,
2013-01-25 09:30:00,54.0,52.8,29.91,ESE,112,2.9,2.9,96,0.00,,,0.00,VWS V14.01,2013-01-25 17:30:00,
2013-01-25 09:31:00,54.0,52.8,29.91,ESE,112,2.9,2.9,96,0.00,,,0.00,VWS V14.01,2013-01-25 17:31:00,
2013-01-25 09:32:00,54.0,52.8,29.91,East,90,3.1,3.1,96,0.00,,,0.00,VWS V14.01,2013-01-25 17:32:00,
2013-01-25 09:33:00,54.0,52.8,29.91,East,90,3.1,3.1,96,0.00,,,0.00,VWS V14.01,2013-01-25 17:33:00,
2013-01-25 09:34:00,54.0,52.8,29.91,ENE,68,5.6,5.6,96,0.00,,,0.00,VWS V14.01,2013-01-25 17:34:00,
2013-01-25 09:35:00,54.0,52.8,29.91,ENE,68,5.6,5.6,96,0.00,,,0.00,VWS V14.01,2013-01-25 17:35:00,
2013-01-25 09:36:00,54.0,52.8,29.91,NE,45,4.9,5.6,96,0.00,,,0.00,VWS V14.01,2013-01-25 17:36:00,
2013-01-25 09:37:00,54.0,52.8,29.91,NNE,22,3.8,3.8,96,0.00,,,0.00,VWS V14.01,2013-01-25 17:37:00,
2013-01-25 09:38:00,54.0,52.8,29.91,NE,45,3.1,3.8,96,0.00,,,0.00,VWS V14.01,2013-01-25 17:38:00,
2013-01-25 09:39:00,54.0,52.8,29.91,ENE,68,2.7,3.1,96,0.00,,,0.00,VWS V14.01,2013-01-25 17:39:00,
2013-01-25 09:40:00,54.0,52.8,29.91,East,90,3.6,3.6,96,0.00,,,0.00,VWS V14.01,2013-01-25 17:40:00,
2013-01-25 09:41:00,54.3,52.9,29.91,ESE,112,1.6,3.6,95,0.00,,,0.00,VWS V14.01,2013-01-25 17:41:00,
2013-01-25 09:42:00,54.9,53.7,29.91,SSE,158,2.7,2.7,96,0.00,,,0.00,VWS V14.01,2013-01-25 17:42:00,
2013-01-25 09:43:00,54.9,53.7,29.91,ESE,112,3.6,3.6,96,0.00,,,0.00,VWS V14.01,2013-01-25 17:43:00,
2013-01-25 09:44:00,55.2,54.1,29.91,SE,135,4.9,4.9,96,0.00,,,0.00,VWS V14.01,2013-01-25 17:44:00,
2013-01-25 09:45:00,55.2,54.1,29.91,SE,135,1.3,4.9,96,0.00,,,0.00,VWS V14.01,2013-01-25 17:45:00,
2013-01-25 09:46:00,55.6,54.2,29.91,ESE,112,6.0,6.0,95,0.00,,,0.00,VWS V14.01,2013-01-25 17:46:00,
2013-01-25 09:47:00,55.8,54.3,29.91,ENE,68,3.6,3.6,95,0.00,,,0.00,VWS V14.01,2013-01-25 17:47:00,
2013-01-25 09:48:00,55.8,54.3,29.91,ENE,68,4.3,4.3,95,0.00,,,0.00,VWS V14.01,2013-01-25 17:48:00,
2013-01-25 09:49:00,55.8,54.3,29.91,ENE,68,4.3,4.3,95,0.00,,,0.00,VWS V14.01,2013-01-25 17:49:00,
2013-01-25 09:50:00,55.6,54.2,29.91,ENE,68,5.8,5.8,95,0.00,,,0.00,VWS V14.01,2013-01-25 17:50:00,
2013-01-25 09:51:00,55.4,54.0,29.91,ENE,68,4.9,5.8,95,0.00,,,0.00,VWS V14.01,2013-01-25 17:51:00,
2013-01-25 09:52:00,55.4,54.0,29.91,ENE,68,5.6,5.6,95,0.00,,,0.00,VWS V14.01,2013-01-25 17:52:00,
2013-01-25 09:53:00,55.0,53.6,29.91,ENE,68,6.5,6.5,95,0.00,,,0.00,VWS V14.01,2013-01-25 17:53:00,
2013-01-25 09:54:00,55.0,53.6,29.91,ENE,68,6.3,6.5,95,0.00,,,0.00,VWS V14.01,2013-01-25 17:54:00,
2013-01-25 09:55:00,55.0,53.6,29.91,ENE,68,5.6,6.3,95,0.00,,,0.00,VWS V14.01,2013-01-25 17:55:00,
2013-01-25 09:56:00,55.0,53.6,29.91,ENE,68,4.9,5.6,95,0.00,,,0.00,VWS V14.01,2013-01-25 17:56:00,
2013-01-25 09:57:00,55.0,53.6,29.91,ENE,68,4.9,4.9,95,0.00,,,0.00,VWS V14.01,2013-01-25 17:57:00,
2013-01-25 09:58:00,55.0,53.6,29.91,East,90,3.1,4.9,95,0.00,,,0.00,VWS V14.01,2013-01-25 17:58:00,
2013-01-25 09:59:00,55.4,53.7,29.91,ENE,68,4.7,4.7,94,0.00,,,0.00,VWS V14.01,2013-01-25 17:59:00,
2013-01-25 10:00:00,55.4,53.7,29.91,NE,45,3.1,4.7,94,0.00,,,0.00,VWS V14.01,2013-01-25 18:00:00,
2013-01-25 10:01:00,55.4,53.7,29.91,NE,45,3.1,3.1,94,0.00,,,0.00,VWS V14.01,2013-01-25 18:01:00,
2013-01-25 10:02:00,55.2,53.5,29.91,NE,45,3.1,3.1,94,0.00,,,0.00,VWS V14.01,2013-01-25 18:02:00,
2013-01-25 10:03:00,55.2,53.5,29.91,ENE,68,4.7,4.7,94,0.00,,,0.00,VWS V14.01,2013-01-25 18:03:00,
2013-01-25 10:04:00,55.6,53.9,29.91,South,180,2.7,4.7,94,0.00,,,0.00,VWS V14.01,2013-01-25 18:04:00,
2013-01-25 10:05:00,55.6,53.9,29.91,South,180,2.7,2.7,94,0.00,,,0.00,VWS V14.01,2013-01-25 18:05:00,
2013-01-25 10:06:00,56.1,54.4,29.91,ENE,68,1.6,2.7,94,0.00,,,0.00,VWS V14.01,2013-01-25 18:06:00,
2013-01-25 10:07:00,56.7,55.0,29.91,SSE,158,0.0,0.0,94,0.00,,,0.00,VWS V14.01,2013-01-25 18:07:00,
2013-01-25 10:08:00,56.7,55.0,29.91,SE,135,0.0,0.0,94,0.00,,,0.00,VWS V14.01,2013-01-25 18:08:00,
2013-01-25 10:09:00,57.0,55.3,29.91,SSE,158,0.0,0.0,94,0.00,,,0.00,VWS V14.01,2013-01-25 18:09:00,
2013-01-25 10:10:00,57.0,55.3,29.91,SSE,158,4.0,4.0,94,0.00,,,0.00,VWS V14.01,2013-01-25 18:10:00,
2013-01-25 10:11:00,57.4,55.7,29.91,ESE,112,2.2,4.0,94,0.00,,,0.00,VWS V14.01,2013-01-25 18:11:00,
2013-01-25 10:12:00,57.4,55.7,29.91,SE,135,2.2,2.2,94,0.00,,,0.00,VWS V14.01,2013-01-25 18:12:00,
2013-01-25 10:13:00,57.4,55.7,29.91,SSE,158,2.5,2.5,94,0.00,,,0.00,VWS V14.01,2013-01-25 18:13:00,
2013-01-25 10:14:00,57.9,56.2,29.91,WSW,248,0.0,2.5,94,0.00,,,0.00,VWS V14.01,2013-01-25 18:14:00,
2013-01-25 10:15:00,57.9,56.2,29.91,East,90,2.5,2.5,94,0.00,,,0.00,VWS V14.01,2013-01-25 18:15:00,
2013-01-25 10:16:00,58.1,56.4,29.91,SE,135,3.4,3.4,94,0.00,,,0.00,VWS V14.01,2013-01-25 18:16:00,
2013-01-25 10:17:00,58.1,56.4,29.91,SE,135,3.4,3.4,94,0.00,,,0.00,VWS V14.01,2013-01-25 18:17:00,
2013-01-25 10:18:00,58.1,56.4,29.91,SE,135,3.8,3.8,94,0.00,,,0.00,VWS V14.01,2013-01-25 18:18:00,
2013-01-25 10:19:00,58.1,56.4,29.91,SSE,158,1.3,3.8,94,0.00,,,0.00,VWS V14.01,2013-01-25 18:19:00,
2013-01-25 10:20:00,58.3,56.3,29.91,East,90,3.8,3.8,93,0.00,,,0.00,VWS V14.01,2013-01-25 18:20:00,
2013-01-25 10:21:00,58.5,56.5,29.91,ESE,112,5.6,5.6,93,0.00,,,0.00,VWS V14.01,2013-01-25 18:21:00,
2013-01-25 10:22:00,58.5,56.5,29.91,South,180,3.4,3.4,93,0.00,,,0.00,VWS V14.01,2013-01-25 18:22:00,
2013-01-25 10:23:00,58.5,56.5,29.91,ENE,68,3.4,3.4,93,0.00,,,0.00,VWS V14.01,2013-01-25 18:23:00,
2013-01-25 10:24:00,58.5,56.5,29.91,East,90,3.1,3.4,93,0.00,,,0.00,VWS V14.01,2013-01-25 18:24:00,
2013-01-25 10:25:00,58.5,56.5,29.91,SSE,158,3.6,3.6,93,0.00,,,0.00,VWS V14.01,2013-01-25 18:25:00,
2013-01-25 10:26:00,58.5,56.5,29.91,SE,135,4.9,4.9,93,0.00,,,0.00,VWS V14.01,2013-01-25 18:26:00,
2013-01-25 10:27:00,58.5,56.2,29.91,SE,135,8.1,8.1,92,0.00,,,0.00,VWS V14.01,2013-01-25 18:27:00,
2013-01-25 10:28:00,58.5,56.2,29.91,SE,135,8.1,8.1,92,0.00,,,0.00,VWS V14.01,2013-01-25 18:28:00,
2013-01-25 10:29:00,58.5,56.2,29.91,SSE,158,1.3,8.1,92,0.00,,,0.00,VWS V14.01,2013-01-25 18:29:00,
2013-01-25 10:30:00,58.6,56.3,29.88,NW,315,2.5,6.5,92,0.00,,,0.00,VWS V14.01,2013-01-25 18:30:00,
2013-01-25 10:31:00,58.6,56.3,29.88,NW,315,2.5,2.5,92,0.00,,,0.00,VWS V14.01,2013-01-25 18:31:00,
2013-01-25 10:32:00,58.8,56.5,29.88,SE,135,3.6,3.6,92,0.00,,,0.00,VWS V14.01,2013-01-25 18:32:00,
2013-01-25 10:33:00,58.8,56.5,29.88,ESE,112,9.0,9.0,92,0.00,,,0.00,VWS V14.01,2013-01-25 18:33:00,
2013-01-25 10:34:00,58.8,56.2,29.88,SE,135,5.4,9.0,91,0.00,,,0.00,VWS V14.01,2013-01-25 18:34:00,
2013-01-25 10:35:00,58.8,56.2,29.88,SE,135,5.4,5.4,91,0.00,,,0.00,VWS V14.01,2013-01-25 18:35:00,
2013-01-25 10:36:00,58.8,56.2,29.88,ENE,68,5.8,5.8,91,0.00,,,0.00,VWS V14.01,2013-01-25 18:36:00,
2013-01-25 10:37:00,59.0,56.1,29.88,SSW,202,5.4,5.4,90,0.00,,,0.00,VWS V14.01,2013-01-25 18:37:00,
2013-01-25 10:38:00,59.0,56.1,29.88,East,90,5.6,5.6,90,0.00,,,0.00,VWS V14.01,2013-01-25 18:38:00,
2013-01-25 10:39:00,59.0,56.1,29.88,South,180,2.0,5.6,90,0.00,,,0.00,VWS V14.01,2013-01-25 18:39:00,
2013-01-25 10:40:00,59.0,56.1,29.88,ESE,112,5.6,5.6,90,0.00,,,0.00,VWS V14.01,2013-01-25 18:40:00,
2013-01-25 10:41:00,59.2,56.2,29.88,South,180,3.1,5.6,90,0.00,,,0.00,VWS V14.01,2013-01-25 18:41:00,
2013-01-25 10:42:00,59.0,55.8,29.88,SSE,158,3.8,5.4,89,0.00,,,0.00,VWS V14.01,2013-01-25 18:42:00,
2013-01-25 10:43:00,59.0,55.8,29.88,SSE,158,3.8,5.4,89,0.00,,,0.00,VWS V14.01,2013-01-25 18:43:00,
2013-01-25 10:44:00,59.0,55.8,29.88,ESE,112,7.8,7.8,89,0.00,,,0.00,VWS V14.01,2013-01-25 18:44:00,
2013-01-25 10:45:00,59.0,55.8,29.88,ESE,112,7.8,7.8,89,0.00,,,0.00,VWS V14.01,2013-01-25 18:45:00,
2013-01-25 10:46:00,59.0,55.8,29.88,SSE,158,5.6,7.8,89,0.00,,,0.00,VWS V14.01,2013-01-25 18:46:00,
2013-01-25 10:47:00,58.6,55.1,29.88,SSE,158,4.3,4.3,88,0.00,,,0.00,VWS V14.01,2013-01-25 18:47:00,
2013-01-25 10:48:00,58.6,55.1,29.88,South,180,1.3,4.3,88,0.00,,,0.00,VWS V14.01,2013-01-25 18:48:00,
2013-01-25 10:49:00,58.6,55.1,29.88,South,180,2.5,2.5,88,0.00,,,0.00,VWS V14.01,2013-01-25 18:49:00,
2013-01-25 10:50:00,58.8,55.3,29.88,SE,135,0.9,2.5,88,0.00,,,0.00,VWS V14.01,2013-01-25 18:50:00,
2013-01-25 10:51:00,58.8,55.3,29.88,SE,135,5.6,5.6,88,0.00,,,0.00,VWS V14.01,2013-01-25 18:51:00,
2013-01-25 10:52:00,58.8,55.3,29.88,SSE,158,0.0,0.0,88,0.00,,,0.00,VWS V14.01,2013-01-25 18:52:00,
2013-01-25 10:53:00,59.2,55.6,29.88,SSE,158,2.2,2.2,88,0.00,,,0.00,VWS V14.01,2013-01-25 18:53:00,
2013-01-25 10:54:00,59.2,55.6,29.88,SSE,158,2.0,2.2,88,0.00,,,0.00,VWS V14.01,2013-01-25 18:54:00,
2013-01-25 10:55:00,59.4,55.8,29.88,South,180,1.3,2.0,88,0.00,,,0.00,VWS V14.01,2013-01-25 18:55:00,
2013-01-25 10:56:00,59.4,55.8,29.88,NE,45,2.9,2.9,88,0.00,,,0.00,VWS V14.01,2013-01-25 18:56:00,
2013-01-25 10:57:00,59.2,55.6,29.88,ESE,112,2.9,4.0,88,0.00,,,0.00,VWS V14.01,2013-01-25 18:57:00,
2013-01-25 10:58:00,59.2,55.6,29.88,ESE,112,2.9,4.0,88,0.00,,,0.00,VWS V14.01,2013-01-25 18:58:00,
2013-01-25 10:59:00,59.2,55.3,29.88,SE,135,3.1,3.1,87,0.00,,,0.00,VWS V14.01,2013-01-25 18:59:00,
2013-01-25 11:00:00,59.2,55.3,29.91,SSE,158,0.9,3.1,87,0.00,,,0.00,VWS V14.01,2013-01-25 19:00:00,
2013-01-25 11:01:00,59.2,55.3,29.91,SSE,158,3.8,3.8,87,0.00,,,0.00,VWS V14.01,2013-01-25 19:01:00,
2013-01-25 11:02:00,59.2,55.3,29.91,South,180,6.5,6.5,87,0.00,,,0.00,VWS V14.01,2013-01-25 19:02:00,
2013-01-25 11:03:00,59.2,55.3,29.91,SE,135,1.6,6.5,87,0.00,,,0.00,VWS V14.01,2013-01-25 19:03:00,
2013-01-25 11:04:00,59.2,55.3,29.91,SE,135,2.7,2.7,87,0.00,,,0.00,VWS V14.01,2013-01-25 19:04:00,
2013-01-25 11:05:00,59.2,55.3,29.91,SSE,158,5.8,5.8,87,0.00,,,0.00,VWS V14.01,2013-01-25 19:05:00,
2013-01-25 11:06:00,59.4,55.2,29.91,SE,135,3.4,5.8,86,0.00,,,0.00,VWS V14.01,2013-01-25 19:06:00,
2013-01-25 11:07:00,59.4,55.2,29.91,SSE,158,2.7,2.7,86,0.00,,,0.00,VWS V14.01,2013-01-25 19:07:00,
2013-01-25 11:08:00,59.4,55.2,29.91,WSW,248,2.0,2.7,86,0.00,,,0.00,VWS V14.01,2013-01-25 19:08:00,
2013-01-25 11:09:00,59.7,55.5,29.91,SSE,158,1.3,2.0,86,0.00,,,0.00,VWS V14.01,2013-01-25 19:09:00,
2013-01-25 11:10:00,59.7,55.5,29.91,SE,135,4.9,4.9,86,0.00,,,0.00,VWS V14.01,2013-01-25 19:10:00,
2013-01-25 11:11:00,59.9,55.7,29.91,SE,135,2.5,4.9,86,0.00,,,0.00,VWS V14.01,2013-01-25 19:11:00,
2013-01-25 11:12:00,59.7,55.2,29.91,SSE,158,6.0,6.0,85,0.00,,,0.00,VWS V14.01,2013-01-25 19:12:00,
2013-01-25 11:13:00,59.7,55.2,29.91,SE,135,3.1,6.0,85,0.00,,,0.00,VWS V14.01,2013-01-25 19:13:00,
2013-01-25 11:14:00,59.7,55.2,29.91,SE,135,3.1,3.1,85,0.00,,,0.00,VWS V14.01,2013-01-25 19:14:00,
2013-01-25 11:15:00,59.7,55.2,29.88,East,90,0.0,3.1,85,0.00,,,0.00,VWS V14.01,2013-01-25 19:15:00,
2013-01-25 11:16:00,60.1,55.6,29.88,NE,45,6.3,6.3,85,0.00,,,0.00,VWS V14.01,2013-01-25 19:16:00,
2013-01-25 11:17:00,60.1,55.6,29.88,NNE,22,4.7,4.7,85,0.00,,,0.00,VWS V14.01,2013-01-25 19:17:00,
2013-01-25 11:18:00,60.1,55.2,29.88,ESE,112,2.5,4.7,84,0.00,,,0.00,VWS V14.01,2013-01-25 19:18:00,
2013-01-25 11:19:00,60.1,55.2,29.88,ESE,112,2.7,2.7,84,0.00,,,0.00,VWS V14.01,2013-01-25 19:19:00,
2013-01-25 11:20:00,60.3,55.4,29.88,SSW,202,3.4,3.4,84,0.00,,,0.00,VWS V14.01,2013-01-25 19:20:00,
2013-01-25 11:21:00,60.3,55.4,29.88,SSE,158,1.3,3.4,84,0.00,,,0.00,VWS V14.01,2013-01-25 19:21:00,
2013-01-25 11:22:00,60.4,55.6,29.88,South,180,2.9,2.9,84,0.00,,,0.00,VWS V14.01,2013-01-25 19:22:00,
2013-01-25 11:23:00,60.6,55.8,29.88,ESE,112,2.2,2.9,84,0.00,,,0.00,VWS V14.01,2013-01-25 19:23:00,
2013-01-25 11:24:00,60.6,55.8,29.88,ESE,112,0.0,2.2,84,0.00,,,0.00,VWS V14.01,2013-01-25 19:24:00,
2013-01-25 11:25:00,60.8,55.6,29.88,SSE,158,1.1,1.1,83,0.00,,,0.00,VWS V14.01,2013-01-25 19:25:00,
2013-01-25 11:26:00,60.8,55.6,29.88,SE,135,2.5,4.7,83,0.00,,,0.00,VWS V14.01,2013-01-25 19:26:00,
2013-01-25 11:27:00,61.0,55.8,29.88,South,180,0.9,0.9,83,0.00,,,0.00,VWS V14.01,2013-01-25 19:27:00,
2013-01-25 11:28:00,61.0,55.8,29.88,South,180,0.9,0.9,83,0.00,,,0.00,VWS V14.01,2013-01-25 19:28:00,
2013-01-25 11:29:00,61.2,56.0,29.88,East,90,3.1,3.1,83,0.00,,,0.00,VWS V14.01,2013-01-25 19:29:00,
2013-01-25 11:30:00,60.6,55.4,29.88,SSE,158,2.9,3.4,83,0.00,,,0.00,VWS V14.01,2013-01-25 19:30:00,
2013-01-25 11:31:00,60.6,55.4,29.88,SSE,158,2.9,2.9,83,0.00,,,0.00,VWS V14.01,2013-01-25 19:31:00,
2013-01-25 11:32:00,60.6,55.4,29.88,SSE,158,2.9,2.9,83,0.00,,,0.00,VWS V14.01,2013-01-25 19:32:00,
2013-01-25 11:33:00,60.6,55.4,29.88,SSE,158,0.0,0.0,83,0.00,,,0.00,VWS V14.01,2013-01-25 19:33:00,
2013-01-25 11:34:00,61.3,56.1,29.88,South,180,0.0,0.0,83,0.00,,,0.00,VWS V14.01,2013-01-25 19:34:00,
2013-01-25 11:35:00,61.3,56.1,29.88,ENE,68,2.5,2.5,83,0.00,,,0.00,VWS V14.01,2013-01-25 19:35:00,
2013-01-25 11:36:00,61.3,55.8,29.88,SE,135,0.0,2.5,82,0.00,,,0.00,VWS V14.01,2013-01-25 19:36:00,
2013-01-25 11:37:00,61.3,55.8,29.88,SE,135,0.0,0.0,82,0.00,,,0.00,VWS V14.01,2013-01-25 19:37:00,
2013-01-25 11:38:00,61.3,55.8,29.88,SE,135,0.0,0.0,82,0.00,,,0.00,VWS V14.01,2013-01-25 19:38:00,
2013-01-25 11:39:00,61.3,55.8,29.88,SSE,158,0.0,0.0,82,0.00,,,0.00,VWS V14.01,2013-01-25 19:39:00,
2013-01-25 11:40:00,61.3,55.8,29.88,ESE,112,2.9,2.9,82,0.00,,,0.00,VWS V14.01,2013-01-25 19:40:00,
2013-01-25 11:41:00,61.9,56.3,29.88,SE,135,0.0,3.6,82,0.00,,,0.00,VWS V14.01,2013-01-25 19:41:00,
2013-01-25 11:42:00,61.7,55.8,29.88,South,180,3.1,3.1,81,0.00,,,0.00,VWS V14.01,2013-01-25 19:42:00,
2013-01-25 11:43:00,61.7,55.8,29.88,East,90,3.8,3.8,81,0.00,,,0.00,VWS V14.01,2013-01-25 19:43:00,
2013-01-25 11:44:00,61.7,55.8,29.88,East,90,3.8,3.8,81,0.00,,,0.00,VWS V14.01,2013-01-25 19:44:00,
2013-01-25 11:45:00,61.7,55.8,29.88,SW,225,2.9,3.8,81,0.00,,,0.00,VWS V14.01,2013-01-25 19:45:00,
2013-01-25 11:46:00,61.5,55.6,29.88,SSW,202,2.9,2.9,81,0.00,,,0.00,VWS V14.01,2013-01-25 19:46:00,
2013-01-25 11:47:00,61.5,55.6,29.88,SSW,202,2.9,2.9,81,0.00,,,0.00,VWS V14.01,2013-01-25 19:47:00,
2013-01-25 11:48:00,61.7,55.8,29.88,South,180,2.9,2.9,81,0.00,,,0.00,VWS V14.01,2013-01-25 19:48:00,
2013-01-25 11:49:00,61.7,55.8,29.88,SE,135,3.1,3.1,81,0.00,,,0.00,VWS V14.01,2013-01-25 19:49:00,
2013-01-25 11:50:00,61.7,55.5,29.88,SSE,158,5.8,5.8,80,0.00,,,0.00,VWS V14.01,2013-01-25 19:50:00,
2013-01-25 11:51:00,61.7,55.5,29.88,South,180,3.4,5.8,80,0.00,,,0.00,VWS V14.01,2013-01-25 19:51:00,
2013-01-25 11:52:00,61.7,55.5,29.88,South,180,0.0,4.5,80,0.00,,,0.00,VWS V14.01,2013-01-25 19:52:00,
2013-01-25 11:53:00,61.7,55.5,29.88,South,180,0.0,4.5,80,0.00,,,0.00,VWS V14.01,2013-01-25 19:53:00,
2013-01-25 11:54:00,61.7,55.5,29.88,SE,135,2.9,2.9,80,0.00,,,0.00,VWS V14.01,2013-01-25 19:54:00,
2013-01-25 11:55:00,61.7,55.5,29.88,SE,135,4.0,4.0,80,0.00,,,0.00,VWS V14.01,2013-01-25 19:55:00,
2013-01-25 11:56:00,61.7,55.5,29.88,SSE,158,2.5,4.0,80,0.00,,,0.00,VWS V14.01,2013-01-25 19:56:00,
2013-01-25 11:57:00,61.7,55.1,29.88,SSE,158,0.0,0.0,79,0.00,,,0.00,VWS V14.01,2013-01-25 19:57:00,
2013-01-25 11:58:00,61.7,55.1,29.88,SSE,158,0.0,0.0,79,0.00,,,0.00,VWS V14.01,2013-01-25 19:58:00,
2013-01-25 11:59:00,62.2,55.7,29.88,South,180,0.0,0.0,79,0.00,,,0.00,VWS V14.01,2013-01-25 19:59:00,
2013-01-25 12:00:00,62.4,55.8,29.88,South,180,0.0,0.0,79,0.00,,,0.00,VWS V14.01,2013-01-25 20:00:00,
2013-01-25 12:01:00,62.4,55.8,29.88,ENE,68,2.7,2.7,79,0.00,,,0.00,VWS V14.01,2013-01-25 20:01:00,
2013-01-25 12:02:00,62.4,55.8,29.88,East,90,3.4,3.4,79,0.00,,,0.00,VWS V14.01,2013-01-25 20:02:00,
2013-01-25 12:03:00,62.4,55.8,29.88,SE,135,1.1,3.4,79,0.00,,,0.00,VWS V14.01,2013-01-25 20:03:00,
2013-01-25 12:04:00,62.4,55.8,29.88,SSE,158,1.6,1.6,79,0.00,,,0.00,VWS V14.01,2013-01-25 20:04:00,
2013-01-25 12:05:00,62.4,55.8,29.88,ESE,112,0.9,1.6,79,0.00,,,0.00,VWS V14.01,2013-01-25 20:05:00,
2013-01-25 12:06:00,62.8,55.8,29.88,SE,135,1.6,1.6,78,0.00,,,0.00,VWS V14.01,2013-01-25 20:06:00,
2013-01-25 12:07:00,63.1,56.2,29.88,ENE,68,0.0,1.6,78,0.00,,,0.00,VWS V14.01,2013-01-25 20:07:00,
2013-01-25 12:08:00,63.1,56.2,29.88,ENE,68,0.0,1.6,78,0.00,,,0.00,VWS V14.01,2013-01-25 20:08:00,
2013-01-25 12:09:00,63.0,55.7,29.88,NE,45,0.0,2.5,77,0.00,,,0.00,VWS V14.01,2013-01-25 20:09:00,
2013-01-25 12:10:00,63.0,55.7,29.88,SSW,202,1.6,1.6,77,0.00,,,0.00,VWS V14.01,2013-01-25 20:10:00,
2013-01-25 12:11:00,63.1,55.8,29.88,South,180,1.3,1.6,77,0.00,,,0.00,VWS V14.01,2013-01-25 20:11:00,
2013-01-25 12:12:00,63.3,56.0,29.88,SSW,202,0.0,0.0,77,0.00,,,0.00,VWS V14.01,2013-01-25 20:12:00,
2013-01-25 12:13:00,63.3,56.0,29.88,South,180,0.9,0.9,77,0.00,,,0.00,VWS V14.01,2013-01-25 20:13:00,
2013-01-25 12:14:00,63.3,56.0,29.88,South,180,0.0,0.9,77,0.00,,,0.00,VWS V14.01,2013-01-25 20:14:00,
2013-01-25 12:15:00,63.5,56.2,29.88,South,180,0.0,0.0,77,0.00,,,0.00,VWS V14.01,2013-01-25 20:15:00,
2013-01-25 12:17:00,63.5,56.2,29.85,ENE,68,4.3,4.3,77,0.00,,,0.00,VWS V14.01,2013-01-25 20:17:00,
2013-01-25 12:18:00,61.7,54.1,29.85,ENE,68,4.3,4.3,76,0.00,,,0.00,VWS V14.01,2013-01-25 20:18:00,
2013-01-25 12:19:00,61.7,54.1,29.85,NNE,22,5.8,5.8,76,0.00,,,0.00,VWS V14.01,2013-01-25 20:19:00,
2013-01-25 12:20:00,61.3,53.4,29.85,NNE,22,2.7,5.8,75,0.00,,,0.00,VWS V14.01,2013-01-25 20:20:00,
2013-01-25 12:21:00,61.3,53.4,29.85,NE,45,2.5,2.7,75,0.00,,,0.00,VWS V14.01,2013-01-25 20:21:00,
2013-01-25 12:22:00,61.2,53.2,29.85,North,0,0.0,0.0,75,0.00,,,0.00,VWS V14.01,2013-01-25 20:22:00,
2013-01-25 12:23:00,61.7,54.1,29.85,East,90,2.2,2.2,76,0.00,,,0.00,VWS V14.01,2013-01-25 20:23:00,
2013-01-25 12:24:00,61.7,54.1,29.85,South,180,0.9,2.2,76,0.00,,,0.00,VWS V14.01,2013-01-25 20:24:00,
2013-01-25 12:25:00,62.1,54.4,29.85,South,180,0.9,0.9,76,0.00,,,0.00,VWS V14.01,2013-01-25 20:25:00,
2013-01-25 12:26:00,62.1,54.4,29.85,East,90,2.9,2.9,76,0.00,,,0.00,VWS V14.01,2013-01-25 20:26:00,
2013-01-25 12:27:00,62.4,54.8,29.85,ESE,112,5.6,5.6,76,0.00,,,0.00,VWS V14.01,2013-01-25 20:27:00,
2013-01-25 12:28:00,62.4,54.8,29.85,SE,135,2.7,5.6,76,0.00,,,0.00,VWS V14.01,2013-01-25 20:28:00,
2013-01-25 12:29:00,63.0,55.3,29.85,East,90,3.8,3.8,76,0.00,,,0.00,VWS V14.01,2013-01-25 20:29:00,
2013-01-25 12:30:00,63.1,55.1,29.85,SE,135,1.3,3.8,75,0.00,,,0.00,VWS V14.01,2013-01-25 20:30:00,
2013-01-25 12:31:00,63.1,55.1,29.85,SSW,202,2.2,2.2,75,0.00,,,0.00,VWS V14.01,2013-01-25 20:31:00,
2013-01-25 12:32:00,63.5,55.4,29.85,ESE,112,0.0,0.0,75,0.00,,,0.00,VWS V14.01,2013-01-25 20:32:00,
2013-01-25 12:33:00,63.5,55.4,29.85,East,90,4.7,4.7,75,0.00,,,0.00,VWS V14.01,2013-01-25 20:33:00,
2013-01-25 12:34:00,63.7,56.0,29.85,ENE,68,6.0,6.0,76,0.00,,,0.00,VWS V14.01,2013-01-25 20:34:00,
2013-01-25 12:35:00,63.7,56.0,29.85,NNE,22,4.3,6.0,76,0.00,,,0.00,VWS V14.01,2013-01-25 20:35:00,
2013-01-25 12:36:00,62.6,53.8,29.85,NNE,22,3.4,4.9,73,0.00,,,0.00,VWS V14.01,2013-01-25 20:36:00,
2013-01-25 12:37:00,62.4,54.0,29.85,WNW,292,2.2,3.4,74,0.00,,,0.00,VWS V14.01,2013-01-25 20:37:00,
2013-01-25 12:38:00,62.4,54.0,29.85,ENE,68,5.6,5.6,74,0.00,,,0.00,VWS V14.01,2013-01-25 20:38:00,
2013-01-25 12:39:00,62.1,53.7,29.85,NNE,22,4.9,5.6,74,0.00,,,0.00,VWS V14.01,2013-01-25 20:39:00,
2013-01-25 12:40:00,62.1,53.7,29.85,ENE,68,3.4,4.9,74,0.00,,,0.00,VWS V14.01,2013-01-25 20:40:00,
2013-01-25 12:41:00,61.7,53.3,29.85,ENE,68,5.6,5.6,74,0.00,,,0.00,VWS V14.01,2013-01-25 20:41:00,
2013-01-25 12:42:00,61.5,53.2,29.85,NE,45,4.9,4.9,74,0.00,,,0.00,VWS V14.01,2013-01-25 20:42:00,
2013-01-25 12:43:00,61.5,53.2,29.85,North,0,0.0,4.9,74,0.00,,,0.00,VWS V14.01,2013-01-25 20:43:00,
2013-01-25 12:44:00,61.5,53.2,29.85,North,0,0.0,0.0,74,0.00,,,0.00,VWS V14.01,2013-01-25 20:44:00,
2013-01-25 12:45:00,61.3,52.6,29.85,North,0,0.0,0.0,73,0.00,,,0.00,VWS V14.01,2013-01-25 20:45:00,
2013-01-25 12:46:00,61.5,52.8,29.85,NNE,22,3.1,3.1,73,0.00,,,0.00,VWS V14.01,2013-01-25 20:46:00,
2013-01-25 12:47:00,61.5,52.8,29.85,ENE,68,3.4,3.4,73,0.00,,,0.00,VWS V14.01,2013-01-25 20:47:00,
2013-01-25 12:48:00,61.7,53.3,29.85,NNE,22,4.9,4.9,74,0.00,,,0.00,VWS V14.01,2013-01-25 20:48:00,
2013-01-25 12:49:00,61.7,53.3,29.85,NE,45,4.9,4.9,74,0.00,,,0.00,VWS V14.01,2013-01-25 20:49:00,
2013-01-25 12:50:00,61.7,53.3,29.85,NNE,22,6.0,6.0,74,0.00,,,0.00,VWS V14.01,2013-01-25 20:50:00,
2013-01-25 12:51:00,61.7,53.3,29.85,ENE,68,7.4,7.4,74,0.00,,,0.00,VWS V14.01,2013-01-25 20:51:00,
2013-01-25 12:52:00,61.3,53.0,29.85,NE,45,5.4,6.3,74,0.00,,,0.00,VWS V14.01,2013-01-25 20:52:00,
2013-01-25 12:53:00,61.3,53.0,29.85,NE,45,2.5,6.3,74,0.00,,,0.00,VWS V14.01,2013-01-25 20:53:00,
2013-01-25 12:54:00,61.3,53.0,29.85,NE,45,3.1,3.1,74,0.00,,,0.00,VWS V14.01,2013-01-25 20:54:00,
2013-01-25 12:55:00,61.5,53.5,29.85,NNE,22,6.5,6.5,75,0.00,,,0.00,VWS V14.01,2013-01-25 20:55:00,
2013-01-25 12:56:00,61.5,53.5,29.85,NE,45,4.0,6.5,75,0.00,,,0.00,VWS V14.01,2013-01-25 20:56:00,
2013-01-25 12:57:00,61.3,53.0,29.85,NNE,22,3.8,3.8,74,0.00,,,0.00,VWS V14.01,2013-01-25 20:57:00,
2013-01-25 12:58:00,61.3,53.0,29.85,NE,45,2.7,3.8,74,0.00,,,0.00,VWS V14.01,2013-01-25 20:58:00,
2013-01-25 12:59:00,61.3,53.0,29.85,East,90,4.5,4.5,74,0.00,,,0.00,VWS V14.01,2013-01-25 20:59:00,
2013-01-25 13:00:00,61.3,53.0,29.82,East,90,2.5,4.5,74,0.00,,,0.00,VWS V14.01,2013-01-25 21:00:00,
2013-01-25 13:01:00,61.5,53.2,29.82,East,90,3.1,3.1,74,0.00,,,0.00,VWS V14.01,2013-01-25 21:01:00,
2013-01-25 13:02:00,61.7,53.3,29.82,NE,45,2.2,2.2,74,0.00,,,0.00,VWS V14.01,2013-01-25 21:02:00,
2013-01-25 13:03:00,61.7,53.3,29.82,East,90,4.0,4.0,74,0.00,,,0.00,VWS V14.01,2013-01-25 21:03:00,
2013-01-25 13:04:00,61.7,53.3,29.82,NE,45,5.4,5.4,74,0.00,,,0.00,VWS V14.01,2013-01-25 21:04:00,
2013-01-25 13:05:00,61.7,53.3,29.82,NNE,22,4.0,5.4,74,0.00,,,0.00,VWS V14.01,2013-01-25 21:05:00,
2013-01-25 13:06:00,61.7,53.3,29.82,NE,45,3.4,4.0,74,0.00,,,0.00,VWS V14.01,2013-01-25 21:06:00,
2013-01-25 13:07:00,61.9,53.5,29.82,ENE,68,3.4,3.4,74,0.00,,,0.00,VWS V14.01,2013-01-25 21:07:00,
2013-01-25 13:08:00,61.9,53.5,29.82,ENE,68,3.4,3.4,74,0.00,,,0.00,VWS V14.01,2013-01-25 21:08:00,
2013-01-25 13:09:00,61.7,53.3,29.82,ENE,68,0.0,3.4,74,0.00,,,0.00,VWS V14.01,2013-01-25 21:09:00,
2013-01-25 13:10:00,61.7,53.3,29.82,ENE,68,0.0,0.0,74,0.00,,,0.00,VWS V14.01,2013-01-25 21:10:00,
2013-01-25 13:11:00,62.4,54.0,29.82,ENE,68,1.6,1.6,74,0.00,,,0.00,VWS V14.01,2013-01-25 21:11:00,
2013-01-25 13:12:00,62.4,54.0,29.82,ENE,68,3.6,3.6,74,0.00,,,0.00,VWS V14.01,2013-01-25 21:12:00,
2013-01-25 13:13:00,62.2,53.9,29.82,East,90,2.7,3.6,74,0.00,,,0.00,VWS V14.01,2013-01-25 21:13:00,
2013-01-25 13:14:00,62.2,53.9,29.82,NE,45,3.6,3.6,74,0.00,,,0.00,VWS V14.01,2013-01-25 21:14:00,
2013-01-25 13:15:00,62.1,53.7,29.82,NE,45,4.9,4.9,74,0.00,,,0.00,VWS V14.01,2013-01-25 21:15:00,
2013-01-25 13:16:00,62.1,53.3,29.82,ENE,68,4.0,4.9,73,0.00,,,0.00,VWS V14.01,2013-01-25 21:16:00,
2013-01-25 13:17:00,62.1,53.3,29.82,ENE,68,0.0,4.0,73,0.00,,,0.00,VWS V14.01,2013-01-25 21:17:00,
2013-01-25 13:18:00,62.6,53.8,29.82,NW,315,0.9,2.2,73,0.00,,,0.00,VWS V14.01,2013-01-25 21:18:00,
2013-01-25 13:19:00,62.6,53.8,29.82,NE,45,4.3,4.3,73,0.00,,,0.00,VWS V14.01,2013-01-25 21:19:00,
2013-01-25 13:20:00,63.1,54.3,29.82,ENE,68,2.7,4.3,73,0.00,,,0.00,VWS V14.01,2013-01-25 21:20:00,
2013-01-25 13:21:00,63.1,54.3,29.82,NE,45,6.3,6.3,73,0.00,,,0.00,VWS V14.01,2013-01-25 21:21:00,
2013-01-25 13:22:00,63.1,54.3,29.82,NE,45,6.3,6.3,73,0.00,,,0.00,VWS V14.01,2013-01-25 21:22:00,
2013-01-25 13:23:00,62.6,53.5,29.82,NNE,22,4.0,6.3,72,0.00,,,0.00,VWS V14.01,2013-01-25 21:23:00,
2013-01-25 13:24:00,62.6,53.5,29.82,ENE,68,5.6,5.6,72,0.00,,,0.00,VWS V14.01,2013-01-25 21:24:00,
2013-01-25 13:25:00,62.8,53.6,29.82,NNW,338,2.0,5.6,72,0.00,,,0.00,VWS V14.01,2013-01-25 21:25:00,
2013-01-25 13:26:00,62.8,53.6,29.82,NW,315,5.4,5.4,72,0.00,,,0.00,VWS V14.01,2013-01-25 21:26:00,
2013-01-25 13:27:00,63.0,53.4,29.82,NNW,338,8.1,8.1,71,0.00,,,0.00,VWS V14.01,2013-01-25 21:27:00,
2013-01-25 13:28:00,63.0,53.4,29.82,NW,315,8.7,8.7,71,0.00,,,0.00,VWS V14.01,2013-01-25 21:28:00,
2013-01-25 13:29:00,62.6,52.7,29.82,NW,315,8.5,8.7,70,0.00,,,0.00,VWS V14.01,2013-01-25 21:29:00,
2013-01-25 13:30:00,62.6,52.7,29.82,NNW,338,5.8,8.5,70,0.00,,,0.00,VWS V14.01,2013-01-25 21:30:00,
2013-01-25 13:31:00,62.4,52.9,29.82,NNW,338,8.5,8.5,71,0.00,,,0.00,VWS V14.01,2013-01-25 21:31:00,
2013-01-25 13:32:00,62.2,52.3,29.82,NNW,338,7.8,8.5,70,0.00,,,0.00,VWS V14.01,2013-01-25 21:32:00,
2013-01-25 13:33:00,62.2,52.3,29.82,NNW,338,7.4,7.8,70,0.00,,,0.00,VWS V14.01,2013-01-25 21:33:00,
2013-01-25 13:34:00,62.1,52.2,29.82,NNW,338,5.6,7.4,70,0.00,,,0.00,VWS V14.01,2013-01-25 21:34:00,
2013-01-25 13:35:00,62.1,52.2,29.82,NNW,338,8.7,8.7,70,0.00,,,0.00,VWS V14.01,2013-01-25 21:35:00,
2013-01-25 13:36:00,61.9,52.0,29.82,North,0,5.6,8.7,70,0.00,,,0.00,VWS V14.01,2013-01-25 21:36:00,
2013-01-25 13:37:00,62.1,52.6,29.82,NNW,338,8.1,8.1,71,0.00,,,0.00,VWS V14.01,2013-01-25 21:37:00,
2013-01-25 13:38:00,62.1,52.6,29.82,NNW,338,6.5,8.1,71,0.00,,,0.00,VWS V14.01,2013-01-25 21:38:00,
2013-01-25 13:39:00,62.2,53.1,29.82,NNE,22,8.1,8.1,72,0.00,,,0.00,VWS V14.01,2013-01-25 21:39:00,
2013-01-25 13:40:00,62.2,53.1,29.82,North,0,6.5,8.1,72,0.00,,,0.00,VWS V14.01,2013-01-25 21:40:00,
2013-01-25 13:41:00,62.1,52.6,29.82,North,0,8.1,8.1,71,0.00,,,0.00,VWS V14.01,2013-01-25 21:41:00,
2013-01-25 13:42:00,62.1,52.6,29.82,NNW,338,8.5,8.5,71,0.00,,,0.00,VWS V14.01,2013-01-25 21:42:00,
2013-01-25 13:43:00,61.9,52.4,29.82,North,0,6.5,8.5,71,0.00,,,0.00,VWS V14.01,2013-01-25 21:43:00,
2013-01-25 13:44:00,61.9,52.4,29.82,North,0,4.3,6.5,71,0.00,,,0.00,VWS V14.01,2013-01-25 21:44:00,
2013-01-25 13:45:00,62.4,53.3,29.82,NNE,22,2.9,4.3,72,0.00,,,0.00,VWS V14.01,2013-01-25 21:45:00,
2013-01-25 13:46:00,62.6,53.5,29.82,North,0,4.7,4.7,72,0.00,,,0.00,VWS V14.01,2013-01-25 21:46:00,
2013-01-25 13:47:00,62.6,53.5,29.82,NNW,338,4.3,4.7,72,0.00,,,0.00,VWS V14.01,2013-01-25 21:47:00,
2013-01-25 13:48:00,62.8,53.2,29.82,North,0,4.9,4.9,71,0.00,,,0.00,VWS V14.01,2013-01-25 21:48:00,
2013-01-25 13:49:00,62.8,53.2,29.82,NNE,22,5.8,5.8,71,0.00,,,0.00,VWS V14.01,2013-01-25 21:49:00,
2013-01-25 13:50:00,62.8,53.2,29.82,NNE,22,5.4,5.8,71,0.00,,,0.00,VWS V14.01,2013-01-25 21:50:00,
2013-01-25 13:51:00,62.8,53.2,29.82,NNE,22,2.7,5.4,71,0.00,,,0.00,VWS V14.01,2013-01-25 21:51:00,
2013-01-25 13:52:00,62.8,53.2,29.82,NE,45,3.6,3.6,71,0.00,,,0.00,VWS V14.01,2013-01-25 21:52:00,
2013-01-25 13:53:00,62.8,53.2,29.82,NNE,22,0.0,3.6,71,0.00,,,0.00,VWS V14.01,2013-01-25 21:53:00,
2013-01-25 13:54:00,63.0,53.4,29.82,NNW,338,5.8,5.8,71,0.00,,,0.00,VWS V14.01,2013-01-25 21:54:00,
2013-01-25 13:55:00,62.8,52.9,29.82,NNW,338,5.8,5.8,70,0.00,,,0.00,VWS V14.01,2013-01-25 21:55:00,
2013-01-25 13:56:00,62.8,52.9,29.82,WNW,292,2.5,5.8,70,0.00,,,0.00,VWS V14.01,2013-01-25 21:56:00,
2013-01-25 13:57:00,63.0,53.4,29.82,NNW,338,2.5,2.5,71,0.00,,,0.00,VWS V14.01,2013-01-25 21:57:00,
2013-01-25 13:58:00,63.0,53.4,29.82,NW,315,0.0,2.5,71,0.00,,,0.00,VWS V14.01,2013-01-25 21:58:00,
2013-01-25 13:59:00,63.0,53.4,29.82,NW,315,0.0,0.0,71,0.00,,,0.00,VWS V14.01,2013-01-25 21:59:00,
2013-01-25 14:00:00,63.0,53.4,29.82,NW,315,0.0,0.0,71,0.00,,,0.00,VWS V14.01,2013-01-25 22:00:00,
2013-01-25 14:01:00,62.8,52.9,29.82,North,0,3.6,3.6,70,0.00,,,0.00,VWS V14.01,2013-01-25 22:01:00,
2013-01-25 14:02:00,63.1,53.2,29.82,NNW,338,3.8,4.0,70,0.00,,,0.00,VWS V14.01,2013-01-25 22:02:00,
2013-01-25 14:03:00,63.1,53.2,29.82,NNW,338,7.4,7.4,70,0.00,,,0.00,VWS V14.01,2013-01-25 22:03:00,
2013-01-25 14:04:00,63.1,52.8,29.82,NW,315,6.5,7.4,69,0.00,,,0.00,VWS V14.01,2013-01-25 22:04:00,
2013-01-25 14:05:00,63.1,52.8,29.82,NNW,338,5.6,6.5,69,0.00,,,0.00,VWS V14.01,2013-01-25 22:05:00,
2013-01-25 14:06:00,63.1,52.8,29.82,NW,315,0.0,5.6,69,0.00,,,0.00,VWS V14.01,2013-01-25 22:06:00,
2013-01-25 14:07:00,63.0,53.0,29.82,NW,315,4.9,4.9,70,0.00,,,0.00,VWS V14.01,2013-01-25 22:07:00,
2013-01-25 14:08:00,63.0,53.0,29.82,NNW,338,7.4,7.4,70,0.00,,,0.00,VWS V14.01,2013-01-25 22:08:00,
2013-01-25 14:09:00,63.1,53.2,29.82,WNW,292,6.3,7.4,70,0.00,,,0.00,VWS V14.01,2013-01-25 22:09:00,
2013-01-25 14:10:00,63.1,53.2,29.82,NW,315,2.9,6.3,70,0.00,,,0.00,VWS V14.01,2013-01-25 22:10:00,
2013-01-25 14:11:00,63.3,53.4,29.82,WNW,292,4.0,4.0,70,0.00,,,0.00,VWS V14.01,2013-01-25 22:11:00,
2013-01-25 14:12:00,63.3,53.4,29.82,WNW,292,0.0,4.0,70,0.00,,,0.00,VWS V14.01,2013-01-25 22:12:00,
2013-01-25 14:13:00,63.3,53.4,29.82,WNW,292,0.0,0.0,70,0.00,,,0.00,VWS V14.01,2013-01-25 22:13:00,
2013-01-25 14:14:00,63.3,53.4,29.82,NNW,338,0.0,0.0,70,0.00,,,0.00,VWS V14.01,2013-01-25 22:14:00,
2013-01-25 14:15:00,63.1,52.8,29.82,NW,315,6.3,6.3,69,0.00,,,0.00,VWS V14.01,2013-01-25 22:15:00,
2013-01-25 14:16:00,63.1,52.8,29.82,NW,315,2.9,6.3,69,0.00,,,0.00,VWS V14.01,2013-01-25 22:16:00,
2013-01-25 14:17:00,63.1,52.8,29.82,NW,315,5.6,5.6,69,0.00,,,0.00,VWS V14.01,2013-01-25 22:17:00,
2013-01-25 14:18:00,63.3,53.0,29.82,NNW,338,7.2,7.2,69,0.00,,,0.00,VWS V14.01,2013-01-25 22:18:00,
2013-01-25 14:19:00,63.3,53.0,29.82,NNW,338,6.7,7.2,69,0.00,,,0.00,VWS V14.01,2013-01-25 22:19:00,
2013-01-25 14:20:00,63.3,52.6,29.82,North,0,4.3,6.7,68,0.00,,,0.00,VWS V14.01,2013-01-25 22:20:00,
2013-01-25 14:21:00,63.3,52.6,29.82,North,0,6.5,6.5,68,0.00,,,0.00,VWS V14.01,2013-01-25 22:21:00,
2013-01-25 14:22:00,63.3,53.0,29.82,NNW,338,3.8,6.5,69,0.00,,,0.00,VWS V14.01,2013-01-25 22:22:00,
2013-01-25 14:23:00,63.3,53.0,29.82,NNW,338,3.8,3.8,69,0.00,,,0.00,VWS V14.01,2013-01-25 22:23:00,
2013-01-25 14:24:00,63.5,53.2,29.82,NNW,338,6.3,6.3,69,0.00,,,0.00,VWS V14.01,2013-01-25 22:24:00,
2013-01-25 14:25:00,63.5,52.8,29.82,NNW,338,6.3,6.3,68,0.00,,,0.00,VWS V14.01,2013-01-25 22:25:00,
2013-01-25 14:26:00,63.5,52.8,29.82,NW,315,0.0,6.3,68,0.00,,,0.00,VWS V14.01,2013-01-25 22:26:00,
2013-01-25 14:27:00,63.5,52.8,29.82,NNW,338,0.0,0.0,68,0.00,,,0.00,VWS V14.01,2013-01-25 22:27:00,
2013-01-25 14:28:00,63.5,52.8,29.82,NNW,338,0.0,0.0,68,0.00,,,0.00,VWS V14.01,2013-01-25 22:28:00,
2013-01-25 14:29:00,63.5,52.4,29.82,NNW,338,0.0,0.0,67,0.00,,,0.00,VWS V14.01,2013-01-25 22:29:00,
2013-01-25 14:30:00,63.5,52.4,29.82,NNW,338,7.6,7.6,67,0.00,,,0.00,VWS V14.01,2013-01-25 22:30:00,
2013-01-25 14:31:00,63.3,52.2,29.82,NNW,338,8.7,8.7,67,0.00,,,0.00,VWS V14.01,2013-01-25 22:31:00,
2013-01-25 14:32:00,63.3,52.6,29.82,NNW,338,7.4,10.1,68,0.00,,,0.00,VWS V14.01,2013-01-25 22:32:00,
2013-01-25 14:33:00,63.3,52.6,29.82,North,0,7.6,7.6,68,0.00,,,0.00,VWS V14.01,2013-01-25 22:33:00,
2013-01-25 14:34:00,63.5,53.2,29.82,NNW,338,10.5,10.5,69,0.00,,,0.00,VWS V14.01,2013-01-25 22:34:00,
2013-01-25 14:35:00,63.5,53.2,29.82,WNW,292,9.8,10.5,69,0.00,,,0.00,VWS V14.01,2013-01-25 22:35:00,
2013-01-25 14:36:00,63.1,52.4,29.82,NNW,338,10.1,10.1,68,0.00,,,0.00,VWS V14.01,2013-01-25 22:36:00,
2013-01-25 14:37:00,62.6,51.5,29.82,NW,315,10.1,10.1,67,0.00,,,0.00,VWS V14.01,2013-01-25 22:37:00,
2013-01-25 14:38:00,62.6,51.5,29.82,WNW,292,10.5,10.5,67,0.00,,,0.00,VWS V14.01,2013-01-25 22:38:00,
2013-01-25 14:39:00,62.1,51.4,29.82,NW,315,10.7,10.7,68,0.00,,,0.00,VWS V14.01,2013-01-25 22:39:00,
2013-01-25 14:40:00,62.1,51.4,29.82,WNW,292,15.2,15.2,68,0.00,,,0.00,VWS V14.01,2013-01-25 22:40:00,
2013-01-25 14:41:00,61.9,51.6,29.82,WNW,292,10.5,15.2,69,0.00,,,0.00,VWS V14.01,2013-01-25 22:41:00,
2013-01-25 14:42:00,61.9,51.6,29.82,WNW,292,12.5,12.5,69,0.00,,,0.00,VWS V14.01,2013-01-25 22:42:00,
2013-01-25 14:43:00,61.7,51.4,29.82,WNW,292,9.4,10.5,69,0.00,,,0.00,VWS V14.01,2013-01-25 22:43:00,
2013-01-25 14:44:00,61.7,51.4,29.82,WNW,292,9.4,9.4,69,0.00,,,0.00,VWS V14.01,2013-01-25 22:44:00,
2013-01-25 14:45:00,61.7,51.4,29.82,NNW,338,12.5,12.5,69,0.00,,,0.00,VWS V14.01,2013-01-25 22:45:00,
2013-01-25 14:46:00,61.3,51.5,29.82,NNW,338,12.5,12.5,70,0.00,,,0.00,VWS V14.01,2013-01-25 22:46:00,
2013-01-25 14:47:00,61.3,51.5,29.82,WNW,292,10.5,12.5,70,0.00,,,0.00,VWS V14.01,2013-01-25 22:47:00,
2013-01-25 14:48:00,61.5,51.7,29.82,NW,315,8.5,10.5,70,0.00,,,0.00,VWS V14.01,2013-01-25 22:48:00,
2013-01-25 14:49:00,61.5,51.7,29.82,NNW,338,5.4,8.5,70,0.00,,,0.00,VWS V14.01,2013-01-25 22:49:00,
2013-01-25 14:51:00,61.7,52.2,29.82,WNW,292,4.0,5.4,71,0.00,,,0.00,VWS V14.01,2013-01-25 22:51:00,
2013-01-25 14:52:00,61.9,52.0,29.82,NW,315,12.3,12.3,70,0.00,,,0.00,VWS V14.01,2013-01-25 22:52:00,
2013-01-25 14:53:00,61.9,52.0,29.82,NNW,338,2.5,12.3,70,0.00,,,0.00,VWS V14.01,2013-01-25 22:53:00,
2013-01-25 14:54:00,62.1,52.2,29.82,NNW,338,3.4,3.4,70,0.00,,,0.00,VWS V14.01,2013-01-25 22:54:00,
2013-01-25 14:55:00,62.2,52.7,29.82,North,0,3.1,3.4,71,0.00,,,0.00,VWS V14.01,2013-01-25 22:55:00,
2013-01-25 14:56:00,62.2,52.7,29.82,WNW,292,6.5,7.4,71,0.00,,,0.00,VWS V14.01,2013-01-25 22:56:00,
2013-01-25 14:57:00,62.2,52.7,29.82,WNW,292,6.5,6.5,71,0.00,,,0.00,VWS V14.01,2013-01-25 22:57:00,
2013-01-25 14:58:00,62.2,52.7,29.82,NNW,338,10.3,10.3,71,0.00,,,0.00,VWS V14.01,2013-01-25 22:58:00,
2013-01-25 14:59:00,61.7,51.8,29.82,NNW,338,8.5,10.3,70,0.00,,,0.00,VWS V14.01,2013-01-25 22:59:00,
2013-01-25 15:00:00,61.7,51.8,29.80,NNW,338,9.8,9.8,70,0.00,,,0.00,VWS V14.01,2013-01-25 23:00:00,
2013-01-25 15:01:00,61.7,52.2,29.80,NNW,338,9.8,9.8,71,0.00,,,0.00,VWS V14.01,2013-01-25 23:01:00,
2013-01-25 15:02:00,61.7,52.2,29.79,NNW,338,5.6,9.8,71,0.00,,,0.00,VWS V14.01,2013-01-25 23:02:00,
2013-01-25 15:03:00,61.7,52.2,29.80,NW,315,4.0,5.6,71,0.00,,,0.00,VWS V14.01,2013-01-25 23:03:00,
2013-01-25 15:04:00,62.1,52.6,29.80,NW,315,7.8,7.8,71,0.00,,,0.00,VWS V14.01,2013-01-25 23:04:00,
2013-01-25 15:05:00,62.1,52.6,29.80,NW,315,10.3,10.3,71,0.00,,,0.00,VWS V14.01,2013-01-25 23:05:00,
2013-01-25 15:06:00,62.1,52.6,29.80,NW,315,10.1,10.3,71,0.00,,,0.00,VWS V14.01,2013-01-25 23:06:00,
2013-01-25 15:07:00,62.1,52.6,29.79,WNW,292,7.8,10.1,71,0.00,,,0.00,VWS V14.01,2013-01-25 23:07:00,
2013-01-25 15:08:00,61.9,52.4,29.80,West,270,3.1,7.8,71,0.00,,,0.00,VWS V14.01,2013-01-25 23:08:00,
2013-01-25 15:09:00,62.1,52.6,29.80,WNW,292,9.8,9.8,71,0.00,,,0.00,VWS V14.01,2013-01-25 23:09:00,
2013-01-25 15:10:00,62.1,52.6,29.80,WNW,292,6.3,9.8,71,0.00,,,0.00,VWS V14.01,2013-01-25 23:10:00,
2013-01-25 15:11:00,62.1,52.6,29.80,WSW,248,4.0,6.3,71,0.00,,,0.00,VWS V14.01,2013-01-25 23:11:00,
2013-01-25 15:12:00,62.1,52.6,29.79,WSW,248,4.0,4.0,71,0.00,,,0.00,VWS V14.01,2013-01-25 23:12:00,
2013-01-25 15:13:00,62.2,52.7,29.80,WSW,248,5.8,5.8,71,0.00,,,0.00,VWS V14.01,2013-01-25 23:13:00,
2013-01-25 15:14:00,62.2,52.7,29.80,WNW,292,10.3,10.3,71,0.00,,,0.00,VWS V14.01,2013-01-25 23:14:00,
2013-01-25 15:15:00,62.1,52.2,29.80,WNW,292,7.4,10.3,70,0.00,,,0.00,VWS V14.01,2013-01-25 23:15:00,
2013-01-25 15:16:00,62.1,52.2,29.80,WNW,292,7.8,7.8,70,0.00,,,0.00,VWS V14.01,2013-01-25 23:16:00,
2013-01-25 15:17:00,61.9,52.4,29.79,NNW,338,7.8,7.8,71,0.00,,,0.00,VWS V14.01,2013-01-25 23:17:00,
2013-01-25 15:18:00,61.9,52.4,29.80,WNW,292,7.6,7.8,71,0.00,,,0.00,VWS V14.01,2013-01-25 23:18:00,
2013-01-25 15:19:00,61.9,52.4,29.80,WNW,292,10.1,10.1,71,0.00,,,0.00,VWS V14.01,2013-01-25 23:19:00,
2013-01-25 15:20:00,61.9,52.4,29.80,NW,315,4.9,10.1,71,0.00,,,0.00,VWS V14.01,2013-01-25 23:20:00,
2013-01-25 15:21:00,61.9,52.4,29.80,NW,315,4.9,4.9,71,0.00,,,0.00,VWS V14.01,2013-01-25 23:21:00,
2013-01-25 15:22:00,62.1,52.6,29.79,WNW,292,7.6,7.6,71,0.00,,,0.00,VWS V14.01,2013-01-25 23:22:00,
2013-01-25 15:23:00,62.1,52.6,29.80,WNW,292,6.5,7.6,71,0.00,,,0.00,VWS V14.01,2013-01-25 23:23:00,
2013-01-25 15:24:00,61.9,52.4,29.80,WNW,292,7.8,7.8,71,0.00,,,0.00,VWS V14.01,2013-01-25 23:24:00,
2013-01-25 15:25:00,61.9,52.4,29.80,WNW,292,5.8,7.8,71,0.00,,,0.00,VWS V14.01,2013-01-25 23:25:00,
2013-01-25 15:26:00,61.9,52.4,29.80,WNW,292,7.2,7.2,71,0.00,,,0.00,VWS V14.01,2013-01-25 23:26:00,
2013-01-25 15:27:00,62.1,52.6,29.79,WNW,292,7.2,7.2,71,0.00,,,0.00,VWS V14.01,2013-01-25 23:27:00,
2013-01-25 15:28:00,62.1,52.6,29.80,WNW,292,7.4,8.7,71,0.00,,,0.00,VWS V14.01,2013-01-25 23:28:00,
2013-01-25 15:29:00,61.9,52.4,29.80,WNW,292,9.2,9.2,71,0.00,,,0.00,VWS V14.01,2013-01-25 23:29:00,
2013-01-25 15:30:00,61.9,52.4,29.80,NW,315,7.6,9.2,71,0.00,,,0.00,VWS V14.01,2013-01-25 23:30:00,
2013-01-25 15:31:00,61.9,52.4,29.80,NW,315,7.6,7.6,71,0.00,,,0.00,VWS V14.01,2013-01-25 23:31:00,
2013-01-25 15:32:00,61.9,52.4,29.79,WNW,292,6.0,7.6,71,0.00,,,0.00,VWS V14.01,2013-01-25 23:32:00,
2013-01-25 15:33:00,61.9,52.4,29.80,WNW,292,6.0,6.0,71,0.00,,,0.00,VWS V14.01,2013-01-25 23:33:00,
2013-01-25 15:34:00,61.9,52.0,29.80,WNW,292,6.0,6.0,70,0.00,,,0.00,VWS V14.01,2013-01-25 23:34:00,
2013-01-25 15:35:00,61.9,52.0,29.80,WNW,292,6.0,6.0,70,0.00,,,0.00,VWS V14.01,2013-01-25 23:35:00,
2013-01-25 15:36:00,61.9,52.0,29.80,WNW,292,6.0,6.0,70,0.00,,,0.00,VWS V14.01,2013-01-25 23:36:00,
2013-01-25 15:37:00,61.9,52.0,29.79,NW,315,7.6,7.6,70,0.00,,,0.00,VWS V14.01,2013-01-25 23:37:00,
2013-01-25 15:38:00,61.9,52.0,29.80,NNW,338,8.5,8.5,70,0.00,,,0.00,VWS V14.01,2013-01-25 23:38:00,
2013-01-25 15:39:00,61.7,52.2,29.80,NW,315,6.7,8.5,71,0.00,,,0.00,VWS V14.01,2013-01-25 23:39:00,
2013-01-25 15:40:00,61.7,52.2,29.80,NNW,338,9.6,9.6,71,0.00,,,0.00,VWS V14.01,2013-01-25 23:40:00,
2013-01-25 15:41:00,61.7,52.2,29.80,WNW,292,4.0,9.6,71,0.00,,,0.00,VWS V14.01,2013-01-25 23:41:00,
2013-01-25 15:42:00,61.7,52.2,29.79,WNW,292,8.5,8.5,71,0.00,,,0.00,VWS V14.01,2013-01-25 23:42:00,
2013-01-25 15:43:00,61.5,51.7,29.80,NW,315,10.1,10.1,70,0.00,,,0.00,VWS V14.01,2013-01-25 23:43:00,
2013-01-25 15:44:00,61.5,51.7,29.80,NW,315,10.1,10.1,70,0.00,,,0.00,VWS V14.01,2013-01-25 23:44:00,
2013-01-25 15:45:00,61.5,51.7,29.80,NW,315,10.1,10.1,70,0.00,,,0.00,VWS V14.01,2013-01-25 23:45:00,
2013-01-25 15:46:00,61.5,51.7,29.80,WSW,248,6.0,10.1,70,0.00,,,0.00,VWS V14.01,2013-01-25 23:46:00,
2013-01-25 15:47:00,61.5,52.0,29.79,WNW,292,7.4,7.4,71,0.00,,,0.00,VWS V14.01,2013-01-25 23:47:00,
2013-01-25 15:48:00,61.5,52.0,29.80,WNW,292,6.0,7.4,71,0.00,,,0.00,VWS V14.01,2013-01-25 23:48:00,
2013-01-25 15:49:00,61.5,52.0,29.80,West,270,7.4,7.4,71,0.00,,,0.00,VWS V14.01,2013-01-25 23:49:00,
2013-01-25 15:50:00,61.5,52.0,29.80,WNW,292,8.5,8.5,71,0.00,,,0.00,VWS V14.01,2013-01-25 23:50:00,
2013-01-25 15:51:00,61.5,52.0,29.80,WNW,292,5.6,8.5,71,0.00,,,0.00,VWS V14.01,2013-01-25 23:51:00,
2013-01-25 15:52:00,61.7,52.2,29.79,WNW,292,8.7,8.7,71,0.00,,,0.00,VWS V14.01,2013-01-25 23:52:00,
2013-01-25 15:53:00,61.7,52.2,29.80,WSW,248,4.3,8.7,71,0.00,,,0.00,VWS V14.01,2013-01-25 23:53:00,
2013-01-25 15:54:00,61.9,52.4,29.80,WNW,292,8.5,8.5,71,0.00,,,0.00,VWS V14.01,2013-01-25 23:54:00,
2013-01-25 15:55:00,61.9,52.4,29.80,WNW,292,8.5,8.5,71,0.00,,,0.00,VWS V14.01,2013-01-25 23:55:00,
2013-01-25 15:56:00,61.9,52.4,29.80,NNW,338,2.5,8.5,71,0.00,,,0.00,VWS V14.01,2013-01-25 23:56:00,
2013-01-25 15:57:00,62.1,52.6,29.79,WNW,292,2.7,2.7,71,0.00,,,0.00,VWS V14.01,2013-01-25 23:57:00,
2013-01-25 15:58:00,62.1,52.6,29.80,West,270,2.9,2.9,71,0.00,,,0.00,VWS V14.01,2013-01-25 23:58:00,
2013-01-25 15:59:00,62.1,52.6,29.80,WNW,292,4.9,4.9,71,0.00,,,0.00,VWS V14.01,2013-01-25 23:59:00,
2013-01-25 16:00:00,62.1,52.6,29.80,WNW,292,4.9,4.9,71,0.00,,,0.00,VWS V14.01,2013-01-26 00:00:00,
2013-01-25 16:01:00,62.1,52.6,29.80,West,270,3.6,4.9,71,0.00,,,0.00,VWS V14.01,2013-01-26 00:01:00,
2013-01-25 16:02:00,62.2,52.7,29.79,West,270,3.6,3.6,71,0.00,,,0.00,VWS V14.01,2013-01-26 00:02:00,
2013-01-25 16:03:00,62.2,52.7,29.80,WNW,292,4.3,4.3,71,0.00,,,0.00,VWS V14.01,2013-01-26 00:03:00,
2013-01-25 16:04:00,62.2,52.7,29.80,WSW,248,0.0,4.3,71,0.00,,,0.00,VWS V14.01,2013-01-26 00:04:00,
2013-01-25 16:05:00,62.2,52.7,29.80,NW,315,6.5,6.5,71,0.00,,,0.00,VWS V14.01,2013-01-26 00:05:00,
2013-01-25 16:07:00,62.2,52.7,29.79,NW,315,0.0,6.5,71,0.00,,,0.00,VWS V14.01,2013-01-26 00:07:00,
2013-01-25 16:08:00,62.2,52.7,29.80,NNW,338,5.6,5.6,71,0.00,,,0.00,VWS V14.01,2013-01-26 00:08:00,
2013-01-25 16:09:00,62.2,52.7,29.80,NNW,338,5.6,5.6,71,0.00,,,0.00,VWS V14.01,2013-01-26 00:09:00,
2013-01-25 16:10:00,62.2,52.7,29.80,NW,315,4.3,6.0,71,0.00,,,0.00,VWS V14.01,2013-01-26 00:10:00,
2013-01-25 16:11:00,62.1,52.2,29.80,NW,315,7.8,7.8,70,0.00,,,0.00,VWS V14.01,2013-01-26 00:11:00,
2013-01-25 16:12:00,62.1,52.2,29.79,NNW,338,7.6,7.8,70,0.00,,,0.00,VWS V14.01,2013-01-26 00:12:00,
2013-01-25 16:13:00,62.1,52.2,29.80,NNW,338,5.8,7.6,70,0.00,,,0.00,VWS V14.01,2013-01-26 00:13:00,
2013-01-25 16:14:00,62.1,52.2,29.80,NW,315,4.9,5.8,70,0.00,,,0.00,VWS V14.01,2013-01-26 00:14:00,
2013-01-25 16:15:00,62.1,52.2,29.80,WNW,292,3.1,4.9,70,0.00,,,0.00,VWS V14.01,2013-01-26 00:15:00,
2013-01-25 16:16:00,62.1,52.2,29.80,WNW,292,5.4,5.4,70,0.00,,,0.00,VWS V14.01,2013-01-26 00:16:00,
2013-01-25 16:17:00,62.1,52.6,29.79,WSW,248,0.0,5.4,71,0.00,,,0.00,VWS V14.01,2013-01-26 00:17:00,
2013-01-25 16:18:00,62.2,52.7,29.80,West,270,1.6,1.6,71,0.00,,,0.00,VWS V14.01,2013-01-26 00:18:00,
2013-01-25 16:19:00,62.2,52.7,29.80,West,270,1.6,1.6,71,0.00,,,0.00,VWS V14.01,2013-01-26 00:19:00,
2013-01-25 16:20:00,62.2,52.3,29.80,NNW,338,4.3,4.3,70,0.00,,,0.00,VWS V14.01,2013-01-26 00:20:00,
2013-01-25 16:21:00,62.2,52.3,29.80,NNW,338,3.1,4.3,70,0.00,,,0.00,VWS V14.01,2013-01-26 00:21:00,
2013-01-25 16:22:00,62.2,52.3,29.79,NNW,338,3.1,3.1,70,0.00,,,0.00,VWS V14.01,2013-01-26 00:22:00,
2013-01-25 16:23:00,62.2,52.3,29.80,NNW,338,4.0,5.6,70,0.00,,,0.00,VWS V14.01,2013-01-26 00:23:00,
2013-01-25 16:24:00,62.2,52.3,29.80,NNW,338,0.0,4.0,70,0.00,,,0.00,VWS V14.01,2013-01-26 00:24:00,
2013-01-25 16:25:00,62.1,52.2,29.80,NNW,338,0.0,0.0,70,0.00,,,0.00,VWS V14.01,2013-01-26 00:25:00,
2013-01-25 16:26:00,62.1,52.2,29.80,NNW,338,0.0,0.0,70,0.00,,,0.00,VWS V14.01,2013-01-26 00:26:00,
2013-01-25 16:27:00,62.2,52.3,29.79,NNW,338,2.9,2.9,70,0.00,,,0.00,VWS V14.01,2013-01-26 00:27:00,
2013-01-25 16:28:00,62.2,52.3,29.80,NW,315,3.8,3.8,70,0.00,,,0.00,VWS V14.01,2013-01-26 00:28:00,
2013-01-25 16:29:00,62.2,52.3,29.80,WNW,292,3.8,3.8,70,0.00,,,0.00,VWS V14.01,2013-01-26 00:29:00,
2013-01-25 16:30:00,62.2,52.3,29.80,NNW,338,4.7,4.7,70,0.00,,,0.00,VWS V14.01,2013-01-26 00:30:00,
2013-01-25 16:31:00,62.2,52.3,29.80,NNW,338,4.3,4.7,70,0.00,,,0.00,VWS V14.01,2013-01-26 00:31:00,
2013-01-25 16:32:00,62.2,52.3,29.79,NNW,338,6.0,6.0,70,0.00,,,0.00,VWS V14.01,2013-01-26 00:32:00,
2013-01-25 16:33:00,62.2,52.0,29.80,NNW,338,7.8,7.8,69,0.00,,,0.00,VWS V14.01,2013-01-26 00:33:00,
2013-01-25 16:34:00,62.1,51.4,29.80,NNW,338,4.9,7.8,68,0.00,,,0.00,VWS V14.01,2013-01-26 00:34:00,
2013-01-25 16:35:00,62.1,51.4,29.80,North,0,0.0,4.9,68,0.00,,,0.00,VWS V14.01,2013-01-26 00:35:00,
2013-01-25 16:36:00,62.1,51.4,29.80,North,0,0.0,0.0,68,0.00,,,0.00,VWS V14.01,2013-01-26 00:36:00,
2013-01-25 16:37:00,62.1,51.4,29.79,North,0,0.0,0.0,68,0.00,,,0.00,VWS V14.01,2013-01-26 00:37:00,
2013-01-25 16:38:00,62.2,51.6,29.80,NNW,338,5.4,5.4,68,0.00,,,0.00,VWS V14.01,2013-01-26 00:38:00,
2013-01-25 16:39:00,62.2,51.6,29.80,NNW,338,0.0,5.4,68,0.00,,,0.00,VWS V14.01,2013-01-26 00:39:00,
2013-01-25 16:40:00,62.2,51.6,29.80,NNW,338,0.0,0.0,68,0.00,,,0.00,VWS V14.01,2013-01-26 00:40:00,
2013-01-25 16:41:00,62.2,51.6,29.80,NW,315,0.0,0.0,68,0.00,,,0.00,VWS V14.01,2013-01-26 00:41:00,
2013-01-25 16:42:00,62.2,51.6,29.79,NW,315,0.0,0.0,68,0.00,,,0.00,VWS V14.01,2013-01-26 00:42:00,
2013-01-25 16:43:00,62.2,51.6,29.80,NW,315,0.0,0.0,68,0.00,,,0.00,VWS V14.01,2013-01-26 00:43:00,
2013-01-25 16:44:00,62.2,51.6,29.80,NW,315,0.0,0.0,68,0.00,,,0.00,VWS V14.01,2013-01-26 00:44:00,
2013-01-25 16:45:00,62.1,51.4,29.80,NW,315,5.6,8.7,68,0.00,,,0.00,VWS V14.01,2013-01-26 00:45:00,
2013-01-25 16:46:00,62.1,51.4,29.80,NNW,338,6.9,6.9,68,0.00,,,0.00,VWS V14.01,2013-01-26 00:46:00,
2013-01-25 16:47:00,62.1,51.4,29.79,NNW,338,6.9,6.9,68,0.00,,,0.00,VWS V14.01,2013-01-26 00:47:00,
2013-01-25 16:48:00,61.9,51.2,29.80,NNE,22,7.6,7.8,68,0.00,,,0.00,VWS V14.01,2013-01-26 00:48:00,
2013-01-25 16:49:00,61.9,51.2,29.80,NNW,338,0.0,7.6,68,0.00,,,0.00,VWS V14.01,2013-01-26 00:49:00,
2013-01-25 16:50:00,61.9,51.6,29.80,North,0,0.0,0.0,69,0.00,,,0.00,VWS V14.01,2013-01-26 00:50:00,
2013-01-25 16:51:00,61.9,51.6,29.80,NNW,338,7.4,7.4,69,0.00,,,0.00,VWS V14.01,2013-01-26 00:51:00,
2013-01-25 16:52:00,61.9,51.6,29.79,NNW,338,7.4,7.4,69,0.00,,,0.00,VWS V14.01,2013-01-26 00:52:00,
2013-01-25 16:53:00,61.9,51.6,29.80,NNW,338,8.7,8.7,69,0.00,,,0.00,VWS V14.01,2013-01-26 00:53:00,
2013-01-25 16:54:00,61.7,51.8,29.80,NNW,338,8.5,8.7,70,0.00,,,0.00,VWS V14.01,2013-01-26 00:54:00,
2013-01-25 16:55:00,61.7,51.8,29.80,NNW,338,0.0,8.5,70,0.00,,,0.00,VWS V14.01,2013-01-26 00:55:00,
2013-01-25 16:56:00,61.7,51.8,29.80,NNW,338,0.0,0.0,70,0.00,,,0.00,VWS V14.01,2013-01-26 00:56:00,
2013-01-25 16:57:00,61.7,51.8,29.79,NNW,338,8.5,8.5,70,0.00,,,0.00,VWS V14.01,2013-01-26 00:57:00,
2013-01-25 16:58:00,61.7,51.8,29.80,NNW,338,4.9,8.5,70,0.00,,,0.00,VWS V14.01,2013-01-26 00:58:00,
2013-01-25 16:59:00,61.7,51.8,29.80,NNW,338,2.7,4.9,70,0.00,,,0.00,VWS V14.01,2013-01-26 00:59:00,
2013-01-25 17:00:00,61.7,51.8,29.76,NW,315,3.1,3.1,70,0.00,,,0.00,VWS V14.01,2013-01-26 01:00:00,
2013-01-25 17:01:00,61.5,52.0,29.76,NW,315,3.1,3.1,71,0.00,,,0.00,VWS V14.01,2013-01-26 01:01:00,
2013-01-25 17:02:00,61.5,52.0,29.76,NW,315,3.1,3.1,71,0.00,,,0.00,VWS V14.01,2013-01-26 01:02:00,
2013-01-25 17:03:00,61.5,52.0,29.76,NNW,338,0.0,3.1,71,0.00,,,0.00,VWS V14.01,2013-01-26 01:03:00,
2013-01-25 17:04:00,61.5,52.0,29.76,North,0,3.8,3.8,71,0.00,,,0.00,VWS V14.01,2013-01-26 01:04:00,
2013-01-25 17:05:00,61.5,52.0,29.76,North,0,3.8,3.8,71,0.00,,,0.00,VWS V14.01,2013-01-26 01:05:00,
2013-01-25 17:06:00,61.5,52.0,29.76,North,0,4.9,4.9,71,0.00,,,0.00,VWS V14.01,2013-01-26 01:06:00,
2013-01-25 17:07:00,61.5,52.0,29.76,NNE,22,2.9,4.9,71,0.00,,,0.00,VWS V14.01,2013-01-26 01:07:00,
2013-01-25 17:08:00,61.3,52.2,29.76,NNE,22,2.9,2.9,72,0.00,,,0.00,VWS V14.01,2013-01-26 01:08:00,
2013-01-25 17:09:00,61.3,52.2,29.76,NE,45,0.0,2.9,72,0.00,,,0.00,VWS V14.01,2013-01-26 01:09:00,
2013-01-25 17:10:00,61.3,52.2,29.76,NE,45,0.0,0.0,72,0.00,,,0.00,VWS V14.01,2013-01-26 01:10:00,
2013-01-25 17:11:00,61.3,52.6,29.76,NE,45,0.0,0.0,73,0.00,,,0.00,VWS V14.01,2013-01-26 01:11:00,
2013-01-25 17:12:00,61.3,52.6,29.76,NE,45,0.0,0.0,73,0.00,,,0.00,VWS V14.01,2013-01-26 01:12:00,
2013-01-25 17:13:00,61.2,52.5,29.76,NE,45,0.0,0.0,73,0.00,,,0.00,VWS V14.01,2013-01-26 01:13:00,
2013-01-25 17:14:00,61.2,52.5,29.76,NE,45,0.0,0.0,73,0.00,,,0.00,VWS V14.01,2013-01-26 01:14:00,
2013-01-25 17:15:00,61.2,52.5,29.80,NNW,338,5.6,5.6,73,0.00,,,0.00,VWS V14.01,2013-01-26 01:15:00,
2013-01-25 17:16:00,61.2,52.5,29.80,NNE,22,0.0,5.6,73,0.00,,,0.00,VWS V14.01,2013-01-26 01:16:00,
2013-01-25 17:17:00,61.2,52.5,29.79,NNE,22,0.0,0.0,73,0.00,,,0.00,VWS V14.01,2013-01-26 01:17:00,
2013-01-25 17:18:00,61.0,52.7,29.80,NNW,338,0.0,0.0,74,0.00,,,0.00,VWS V14.01,2013-01-26 01:18:00,
2013-01-25 17:19:00,61.0,52.7,29.80,NNW,338,0.0,0.0,74,0.00,,,0.00,VWS V14.01,2013-01-26 01:19:00,
2013-01-25 17:20:00,61.0,52.7,29.80,NNW,338,0.0,0.0,74,0.00,,,0.00,VWS V14.01,2013-01-26 01:20:00,
2013-01-25 17:21:00,61.0,52.7,29.80,NNW,338,0.0,0.0,74,0.00,,,0.00,VWS V14.01,2013-01-26 01:21:00,
2013-01-25 17:22:00,61.0,52.7,29.79,North,0,2.2,2.5,74,0.00,,,0.00,VWS V14.01,2013-01-26 01:22:00,
2013-01-25 17:23:00,61.0,52.7,29.80,North,0,0.0,2.2,74,0.00,,,0.00,VWS V14.01,2013-01-26 01:23:00,
2013-01-25 17:24:00,61.0,53.0,29.80,North,0,0.0,0.0,75,0.00,,,0.00,VWS V14.01,2013-01-26 01:24:00,
2013-01-25 17:25:00,61.0,52.7,29.80,NNE,22,4.3,4.3,74,0.00,,,0.00,VWS V14.01,2013-01-26 01:25:00,
2013-01-25 17:26:00,61.0,52.7,29.79,NNE,22,6.3,6.3,74,0.00,,,0.00,VWS V14.01,2013-01-26 01:26:00,
2013-01-25 17:27:00,61.0,52.7,29.80,NNE,22,6.3,6.3,74,0.00,,,0.00,VWS V14.01,2013-01-26 01:27:00,
2013-01-25 17:28:00,61.0,52.7,29.80,NNE,22,6.3,6.3,74,0.00,,,0.00,VWS V14.01,2013-01-26 01:28:00,
2013-01-25 17:29:00,61.0,52.7,29.80,NNE,22,5.8,6.3,74,0.00,,,0.00,VWS V14.01,2013-01-26 01:29:00,
2013-01-25 17:30:00,61.0,52.7,29.80,NNE,22,4.0,5.8,74,0.00,,,0.00,VWS V14.01,2013-01-26 01:30:00,
2013-01-25 17:31:00,61.0,52.7,29.79,NNE,22,4.3,4.3,74,0.00,,,0.00,VWS V14.01,2013-01-26 01:31:00,
2013-01-25 17:32:00,61.0,52.7,29.80,NNE,22,4.3,4.3,74,0.00,,,0.00,VWS V14.01,2013-01-26 01:32:00,
2013-01-25 17:33:00,61.0,52.7,29.80,NNE,22,4.3,4.3,74,0.00,,,0.00,VWS V14.01,2013-01-26 01:33:00,
2013-01-25 17:34:00,61.0,52.7,29.80,NNE,22,4.7,4.7,74,0.00,,,0.00,VWS V14.01,2013-01-26 01:34:00,
2013-01-25 17:35:00,61.0,52.7,29.80,NNE,22,4.7,4.7,74,0.00,,,0.00,VWS V14.01,2013-01-26 01:35:00,
2013-01-25 17:36:00,60.8,52.8,29.79,ENE,68,6.5,6.5,75,0.00,,,0.00,VWS V14.01,2013-01-26 01:36:00,
2013-01-25 17:37:00,60.8,52.8,29.80,ENE,68,6.5,6.5,75,0.00,,,0.00,VWS V14.01,2013-01-26 01:37:00,
2013-01-25 17:38:00,60.8,52.8,29.80,ENE,68,6.5,6.5,75,0.00,,,0.00,VWS V14.01,2013-01-26 01:38:00,
2013-01-25 17:39:00,60.8,52.8,29.80,ENE,68,6.5,6.5,75,0.00,,,0.00,VWS V14.01,2013-01-26 01:39:00,
2013-01-25 17:40:00,60.8,52.8,29.80,ENE,68,6.5,6.5,75,0.00,,,0.00,VWS V14.01,2013-01-26 01:40:00,
2013-01-25 17:41:00,60.8,52.8,29.79,ENE,68,0.0,0.0,75,0.00,,,0.00,VWS V14.01,2013-01-26 01:41:00,
2013-01-25 17:42:00,60.8,52.8,29.80,ENE,68,0.0,0.0,75,0.00,,,0.00,VWS V14.01,2013-01-26 01:42:00,
2013-01-25 17:43:00,60.8,52.8,29.80,ENE,68,0.0,0.0,75,0.00,,,0.00,VWS V14.01,2013-01-26 01:43:00,
2013-01-25 17:44:00,60.8,52.8,29.80,ENE,68,0.0,0.0,75,0.00,,,0.00,VWS V14.01,2013-01-26 01:44:00,
2013-01-25 17:45:00,60.4,52.8,29.80,NE,45,3.4,3.4,76,0.00,,,0.00,VWS V14.01,2013-01-26 01:45:00,
2013-01-25 17:46:00,60.3,52.7,29.79,NE,45,4.9,4.9,76,0.00,,,0.00,VWS V14.01,2013-01-26 01:46:00,
2013-01-25 17:47:00,60.3,52.7,29.80,NE,45,4.9,4.9,76,0.00,,,0.00,VWS V14.01,2013-01-26 01:47:00,
2013-01-25 17:48:00,60.3,52.7,29.80,NE,45,0.0,4.9,76,0.00,,,0.00,VWS V14.01,2013-01-26 01:48:00,
2013-01-25 17:49:00,60.3,52.7,29.80,NE,45,0.0,0.0,76,0.00,,,0.00,VWS V14.01,2013-01-26 01:49:00,
2013-01-25 17:50:00,60.3,52.7,29.80,NNE,22,0.0,0.0,76,0.00,,,0.00,VWS V14.01,2013-01-26 01:50:00,
2013-01-25 17:51:00,60.3,52.7,29.79,NNE,22,0.0,0.0,76,0.00,,,0.00,VWS V14.01,2013-01-26 01:51:00,
2013-01-25 17:52:00,60.3,52.7,29.80,NNE,22,0.0,0.0,76,0.00,,,0.00,VWS V14.01,2013-01-26 01:52:00,
2013-01-25 17:53:00,60.3,52.7,29.80,NNW,338,1.3,1.3,76,0.00,,,0.00,VWS V14.01,2013-01-26 01:53:00,
2013-01-25 17:54:00,60.1,52.9,29.80,NNW,338,1.3,1.3,77,0.00,,,0.00,VWS V14.01,2013-01-26 01:54:00,
2013-01-25 17:55:00,60.1,52.9,29.80,ENE,68,0.0,1.3,77,0.00,,,0.00,VWS V14.01,2013-01-26 01:55:00,
2013-01-25 17:56:00,60.1,52.5,29.79,ENE,68,0.0,0.0,76,0.00,,,0.00,VWS V14.01,2013-01-26 01:56:00,
2013-01-25 17:57:00,60.1,52.5,29.80,ENE,68,0.0,0.0,76,0.00,,,0.00,VWS V14.01,2013-01-26 01:57:00,
2013-01-25 17:58:00,60.1,52.5,29.80,ENE,68,0.0,0.0,76,0.00,,,0.00,VWS V14.01,2013-01-26 01:58:00,
2013-01-25 17:59:00,60.1,52.5,29.80,ENE,68,0.0,0.0,76,0.00,,,0.00,VWS V14.01,2013-01-26 01:59:00,
2013-01-25 18:00:00,60.1,52.5,29.80,ENE,68,0.0,0.0,76,0.00,,,0.00,VWS V14.01,2013-01-26 02:00:00,
2013-01-25 18:01:00,60.1,52.5,29.79,ENE,68,0.0,0.0,76,0.00,,,0.00,VWS V14.01,2013-01-26 02:01:00,
2013-01-25 18:02:00,60.1,52.5,29.80,ENE,68,0.0,0.0,76,0.00,,,0.00,VWS V14.01,2013-01-26 02:02:00,
2013-01-25 18:03:00,60.3,52.7,29.80,ENE,68,0.0,0.0,76,0.00,,,0.00,VWS V14.01,2013-01-26 02:03:00,
2013-01-25 18:04:00,60.3,52.7,29.80,North,0,0.0,0.0,76,0.00,,,0.00,VWS V14.01,2013-01-26 02:04:00,
2013-01-25 18:05:00,60.3,52.7,29.80,NNE,22,0.0,0.0,76,0.00,,,0.00,VWS V14.01,2013-01-26 02:05:00,
2013-01-25 18:06:00,60.3,52.7,29.79,NNE,22,0.0,0.0,76,0.00,,,0.00,VWS V14.01,2013-01-26 02:06:00,
2013-01-25 18:07:00,60.3,52.7,29.80,NNE,22,0.0,0.0,76,0.00,,,0.00,VWS V14.01,2013-01-26 02:07:00,
2013-01-25 18:08:00,60.3,52.7,29.80,NNE,22,0.0,0.0,76,0.00,,,0.00,VWS V14.01,2013-01-26 02:08:00,
2013-01-25 18:09:00,60.3,52.7,29.80,North,0,0.0,0.0,76,0.00,,,0.00,VWS V14.01,2013-01-26 02:09:00,
2013-01-25 18:10:00,60.1,52.5,29.80,ENE,68,0.0,0.0,76,0.00,,,0.00,VWS V14.01,2013-01-26 02:10:00,
2013-01-25 18:11:00,60.1,52.5,29.79,SE,135,1.1,1.1,76,0.00,,,0.00,VWS V14.01,2013-01-26 02:11:00,
2013-01-25 18:12:00,60.1,52.5,29.80,SE,135,1.1,1.1,76,0.00,,,0.00,VWS V14.01,2013-01-26 02:12:00,
2013-01-25 18:13:00,60.1,52.5,29.80,East,90,2.9,2.9,76,0.00,,,0.00,VWS V14.01,2013-01-26 02:13:00,
2013-01-25 18:14:00,60.1,52.5,29.80,ESE,112,2.5,2.9,76,0.00,,,0.00,VWS V14.01,2013-01-26 02:14:00,
2013-01-25 18:15:00,59.9,52.3,29.80,SE,135,2.5,2.5,76,0.00,,,0.00,VWS V14.01,2013-01-26 02:15:00,
2013-01-25 18:16:00,59.7,52.2,29.79,SE,135,1.3,1.3,76,0.00,,,0.00,VWS V14.01,2013-01-26 02:16:00,
2013-01-25 18:17:00,59.7,52.2,29.80,ESE,112,0.0,1.3,76,0.00,,,0.00,VWS V14.01,2013-01-26 02:17:00,
2013-01-25 18:18:00,59.7,52.2,29.80,SE,135,0.0,0.0,76,0.00,,,0.00,VWS V14.01,2013-01-26 02:18:00,
2013-01-25 18:19:00,59.7,52.2,29.80,SSE,158,0.0,0.0,76,0.00,,,0.00,VWS V14.01,2013-01-26 02:19:00,
2013-01-25 18:20:00,59.5,52.0,29.80,South,180,3.1,3.1,76,0.00,,,0.00,VWS V14.01,2013-01-26 02:20:00,
2013-01-25 18:21:00,59.4,51.8,29.79,ESE,112,4.3,4.3,76,0.00,,,0.00,VWS V14.01,2013-01-26 02:21:00,
2013-01-25 18:22:00,59.4,51.8,29.80,ESE,112,4.3,4.3,76,0.00,,,0.00,VWS V14.01,2013-01-26 02:22:00,
2013-01-25 18:23:00,59.4,51.8,29.80,SE,135,3.4,4.3,76,0.00,,,0.00,VWS V14.01,2013-01-26 02:23:00,
2013-01-25 18:24:00,59.4,51.8,29.80,ESE,112,2.0,3.4,76,0.00,,,0.00,VWS V14.01,2013-01-26 02:24:00,
2013-01-25 18:25:00,59.4,51.8,29.80,ESE,112,2.5,2.5,76,0.00,,,0.00,VWS V14.01,2013-01-26 02:25:00,
2013-01-25 18:26:00,59.2,52.0,29.79,SE,135,0.0,0.0,77,0.00,,,0.00,VWS V14.01,2013-01-26 02:26:00,
2013-01-25 18:27:00,59.2,52.0,29.80,SSE,158,1.6,1.6,77,0.00,,,0.00,VWS V14.01,2013-01-26 02:27:00,
2013-01-25 18:28:00,59.2,52.0,29.80,SSE,158,1.6,1.6,77,0.00,,,0.00,VWS V14.01,2013-01-26 02:28:00,
2013-01-25 18:29:00,59.2,52.0,29.80,SSE,158,1.3,1.6,77,0.00,,,0.00,VWS V14.01,2013-01-26 02:29:00,
2013-01-25 18:30:00,59.2,52.0,29.80,SSE,158,0.0,1.3,77,0.00,,,0.00,VWS V14.01,2013-01-26 02:30:00,
2013-01-25 18:31:00,59.2,52.0,29.79,SSE,158,0.0,0.0,77,0.00,,,0.00,VWS V14.01,2013-01-26 02:31:00,
2013-01-25 18:32:00,59.2,52.0,29.80,SSE,158,0.0,0.0,77,0.00,,,0.00,VWS V14.01,2013-01-26 02:32:00,
2013-01-25 18:33:00,59.2,52.0,29.80,SSE,158,0.0,0.0,77,0.00,,,0.00,VWS V14.01,2013-01-26 02:33:00,
2013-01-25 18:34:00,59.0,51.8,29.80,SSE,158,0.0,0.0,77,0.00,,,0.00,VWS V14.01,2013-01-26 02:34:00,
2013-01-25 18:35:00,59.0,51.8,29.80,SSE,158,0.0,0.0,77,0.00,,,0.00,VWS V14.01,2013-01-26 02:35:00,
2013-01-25 18:36:00,59.0,51.8,29.79,NNW,338,0.9,0.9,77,0.00,,,0.00,VWS V14.01,2013-01-26 02:36:00,
2013-01-25 18:37:00,59.0,51.8,29.80,NNW,338,0.9,0.9,77,0.00,,,0.00,VWS V14.01,2013-01-26 02:37:00,
2013-01-25 18:38:00,59.0,51.8,29.80,NNW,338,0.0,0.9,77,0.00,,,0.00,VWS V14.01,2013-01-26 02:38:00,
2013-01-25 18:39:00,59.0,51.8,29.80,NNW,338,0.0,0.0,77,0.00,,,0.00,VWS V14.01,2013-01-26 02:39:00,
2013-01-25 18:40:00,59.0,51.5,29.80,NNW,338,0.0,0.0,76,0.00,,,0.00,VWS V14.01,2013-01-26 02:40:00,
2013-01-25 18:41:00,59.0,51.5,29.79,NNW,338,0.0,0.0,76,0.00,,,0.00,VWS V14.01,2013-01-26 02:41:00,
2013-01-25 18:42:00,59.0,51.5,29.80,NNW,338,0.0,0.0,76,0.00,,,0.00,VWS V14.01,2013-01-26 02:42:00,
2013-01-25 18:43:00,58.8,51.6,29.80,NNW,338,0.0,0.0,77,0.00,,,0.00,VWS V14.01,2013-01-26 02:43:00,
2013-01-25 18:44:00,58.8,51.6,29.80,NNW,338,0.0,0.0,77,0.00,,,0.00,VWS V14.01,2013-01-26 02:44:00,
2013-01-25 18:45:00,58.8,51.6,29.80,NNW,338,0.0,0.0,77,0.00,,,0.00,VWS V14.01,2013-01-26 02:45:00,
2013-01-25 18:46:00,58.8,51.6,29.79,NNW,338,0.0,0.0,77,0.00,,,0.00,VWS V14.01,2013-01-26 02:46:00,
2013-01-25 18:47:00,58.8,51.6,29.80,NNW,338,0.0,0.0,77,0.00,,,0.00,VWS V14.01,2013-01-26 02:47:00,
2013-01-25 18:48:00,58.8,51.6,29.80,NW,315,0.0,0.0,77,0.00,,,0.00,VWS V14.01,2013-01-26 02:48:00,
2013-01-25 18:49:00,59.0,51.5,29.80,West,270,0.0,0.0,76,0.00,,,0.00,VWS V14.01,2013-01-26 02:49:00,
2013-01-25 18:50:00,59.0,51.5,29.80,West,270,2.9,2.9,76,0.00,,,0.00,VWS V14.01,2013-01-26 02:50:00,
2013-01-25 18:51:00,59.0,51.5,29.79,West,270,3.4,3.4,76,0.00,,,0.00,VWS V14.01,2013-01-26 02:51:00,
2013-01-25 18:52:00,59.0,51.5,29.80,West,270,3.4,3.4,76,0.00,,,0.00,VWS V14.01,2013-01-26 02:52:00,
2013-01-25 18:53:00,59.0,51.5,29.80,WNW,292,3.6,3.6,76,0.00,,,0.00,VWS V14.01,2013-01-26 02:53:00,
2013-01-25 18:54:00,59.0,51.5,29.80,WSW,248,1.6,4.0,76,0.00,,,0.00,VWS V14.01,2013-01-26 02:54:00,
2013-01-25 18:55:00,59.0,51.5,29.80,WSW,248,1.6,1.6,76,0.00,,,0.00,VWS V14.01,2013-01-26 02:55:00,
2013-01-25 18:56:00,59.0,51.8,29.79,WNW,292,4.9,4.9,77,0.00,,,0.00,VWS V14.01,2013-01-26 02:56:00,
2013-01-25 18:57:00,59.0,51.8,29.80,WSW,248,4.7,4.9,77,0.00,,,0.00,VWS V14.01,2013-01-26 02:57:00,
2013-01-25 18:58:00,59.0,51.8,29.80,WSW,248,4.0,4.7,77,0.00,,,0.00,VWS V14.01,2013-01-26 02:58:00,
2013-01-25 18:59:00,58.8,52.0,29.80,SSW,202,7.4,7.4,78,0.00,,,0.00,VWS V14.01,2013-01-26 02:59:00,
2013-01-25 19:00:00,58.8,52.0,29.80,WSW,248,8.5,8.5,78,0.00,,,0.00,VWS V14.01,2013-01-26 03:00:00,
2013-01-25 19:01:00,58.3,51.5,29.79,SW,225,10.3,10.5,78,0.00,,,0.00,VWS V14.01,2013-01-26 03:01:00,
2013-01-25 19:02:00,58.3,51.5,29.80,SW,225,10.3,10.5,78,0.00,,,0.00,VWS V14.01,2013-01-26 03:02:00,
2013-01-25 19:03:00,57.9,51.5,29.80,SW,225,10.3,10.3,79,0.00,,,0.00,VWS V14.01,2013-01-26 03:03:00,
2013-01-25 19:04:00,57.6,51.4,29.80,WSW,248,8.5,10.3,80,0.00,,,0.00,VWS V14.01,2013-01-26 03:04:00,
2013-01-25 19:05:00,57.6,51.4,29.80,WSW,248,7.4,8.5,80,0.00,,,0.00,VWS V14.01,2013-01-26 03:05:00,
2013-01-25 19:06:00,57.2,51.1,29.79,WNW,292,5.8,5.8,80,0.00,,,0.00,VWS V14.01,2013-01-26 03:06:00,
2013-01-25 19:07:00,57.2,51.1,29.80,WNW,292,5.8,5.8,80,0.00,,,0.00,VWS V14.01,2013-01-26 03:07:00,
2013-01-25 19:08:00,57.0,51.3,29.80,West,270,6.0,6.0,81,0.00,,,0.00,VWS V14.01,2013-01-26 03:08:00,
2013-01-25 19:09:00,57.0,51.3,29.80,WSW,248,8.7,8.7,81,0.00,,,0.00,VWS V14.01,2013-01-26 03:09:00,
2013-01-25 19:10:00,56.8,51.1,29.80,WSW,248,6.3,8.7,81,0.00,,,0.00,VWS V14.01,2013-01-26 03:10:00,
2013-01-25 19:11:00,56.8,51.4,29.79,WSW,248,4.0,6.3,82,0.00,,,0.00,VWS V14.01,2013-01-26 03:11:00,
2013-01-25 19:12:00,56.8,51.4,29.80,West,270,5.6,6.3,82,0.00,,,0.00,VWS V14.01,2013-01-26 03:12:00,
2013-01-25 19:13:00,56.5,51.1,29.80,SW,225,5.4,5.6,82,0.00,,,0.00,VWS V14.01,2013-01-26 03:13:00,
2013-01-25 19:14:00,56.5,51.1,29.80,WSW,248,3.4,5.4,82,0.00,,,0.00,VWS V14.01,2013-01-26 03:14:00,
2013-01-25 19:15:00,56.3,50.9,29.80,WSW,248,5.6,5.6,82,0.00,,,0.00,VWS V14.01,2013-01-26 03:15:00,
2013-01-25 19:16:00,56.3,50.9,29.79,SSW,202,4.0,4.3,82,0.00,,,0.00,VWS V14.01,2013-01-26 03:16:00,
2013-01-25 19:17:00,56.3,50.9,29.80,SSW,202,4.0,4.3,82,0.00,,,0.00,VWS V14.01,2013-01-26 03:17:00,
2013-01-25 19:18:00,56.3,50.9,29.80,WSW,248,4.3,4.3,82,0.00,,,0.00,VWS V14.01,2013-01-26 03:18:00,
2013-01-25 19:19:00,56.3,50.9,29.80,WSW,248,4.3,4.3,82,0.00,,,0.00,VWS V14.01,2013-01-26 03:19:00,
2013-01-25 19:20:00,56.3,50.9,29.80,WSW,248,6.0,6.0,82,0.00,,,0.00,VWS V14.01,2013-01-26 03:20:00,
2013-01-25 19:21:00,56.3,50.9,29.79,WSW,248,7.2,7.2,82,0.00,,,0.00,VWS V14.01,2013-01-26 03:21:00,
2013-01-25 19:22:00,56.3,50.9,29.80,WSW,248,7.2,7.2,82,0.00,,,0.00,VWS V14.01,2013-01-26 03:22:00,
2013-01-25 19:23:00,56.3,50.9,29.80,WSW,248,3.4,7.8,82,0.00,,,0.00,VWS V14.01,2013-01-26 03:23:00,
2013-01-25 19:24:00,56.1,51.0,29.80,West,270,3.1,3.4,83,0.00,,,0.00,VWS V14.01,2013-01-26 03:24:00,
2013-01-25 19:25:00,56.1,51.0,29.80,West,270,5.6,5.6,83,0.00,,,0.00,VWS V14.01,2013-01-26 03:25:00,
2013-01-25 19:26:00,56.1,51.0,29.79,WSW,248,4.9,4.9,83,0.00,,,0.00,VWS V14.01,2013-01-26 03:26:00,
2013-01-25 19:27:00,56.1,51.0,29.80,SW,225,6.0,6.0,83,0.00,,,0.00,VWS V14.01,2013-01-26 03:27:00,
2013-01-25 19:28:00,56.1,51.0,29.80,WSW,248,3.6,6.0,83,0.00,,,0.00,VWS V14.01,2013-01-26 03:28:00,
2013-01-25 19:29:00,56.1,51.0,29.80,WSW,248,4.9,4.9,83,0.00,,,0.00,VWS V14.01,2013-01-26 03:29:00,
2013-01-25 19:30:00,56.1,51.0,29.80,West,270,5.6,5.6,83,0.00,,,0.00,VWS V14.01,2013-01-26 03:30:00,
2013-01-25 19:31:00,56.1,51.0,29.79,West,270,5.6,5.6,83,0.00,,,0.00,VWS V14.01,2013-01-26 03:31:00,
2013-01-25 19:32:00,56.1,51.0,29.80,West,270,5.6,5.6,83,0.00,,,0.00,VWS V14.01,2013-01-26 03:32:00,
2013-01-25 19:33:00,56.1,51.0,29.80,West,270,4.9,5.6,83,0.00,,,0.00,VWS V14.01,2013-01-26 03:33:00,
2013-01-25 19:34:00,56.1,51.0,29.80,WSW,248,5.6,5.6,83,0.00,,,0.00,VWS V14.01,2013-01-26 03:34:00,
2013-01-25 19:36:00,56.1,51.0,29.79,SW,225,5.8,5.8,83,0.00,,,0.00,VWS V14.01,2013-01-26 03:36:00,
2013-01-25 19:37:00,56.1,51.0,29.80,West,270,6.5,6.5,83,0.00,,,0.00,VWS V14.01,2013-01-26 03:37:00,
2013-01-25 19:38:00,56.1,51.0,29.80,West,270,6.5,6.5,83,0.00,,,0.00,VWS V14.01,2013-01-26 03:38:00,
2013-01-25 19:39:00,56.1,51.0,29.80,WSW,248,4.3,6.5,83,0.00,,,0.00,VWS V14.01,2013-01-26 03:39:00,
2013-01-25 19:40:00,56.1,51.0,29.80,West,270,6.3,6.3,83,0.00,,,0.00,VWS V14.01,2013-01-26 03:40:00,
2013-01-25 19:41:00,56.3,51.2,29.79,WSW,248,8.7,8.7,83,0.00,,,0.00,VWS V14.01,2013-01-26 03:41:00,
2013-01-25 19:42:00,56.3,51.2,29.80,West,270,8.1,8.7,83,0.00,,,0.00,VWS V14.01,2013-01-26 03:42:00,
2013-01-25 19:43:00,56.3,51.5,29.80,WSW,248,4.9,8.1,84,0.00,,,0.00,VWS V14.01,2013-01-26 03:43:00,
2013-01-25 19:44:00,56.3,51.5,29.80,West,270,6.9,6.9,84,0.00,,,0.00,VWS V14.01,2013-01-26 03:44:00,
2013-01-25 19:45:00,56.5,51.4,29.80,WSW,248,6.7,6.9,83,0.00,,,0.00,VWS V14.01,2013-01-26 03:45:00,
2013-01-25 19:46:00,56.5,51.4,29.79,WSW,248,6.3,6.3,83,0.00,,,0.00,VWS V14.01,2013-01-26 03:46:00,
2013-01-25 19:47:00,56.5,51.4,29.80,SSW,202,6.5,6.5,83,0.00,,,0.00,VWS V14.01,2013-01-26 03:47:00,
2013-01-25 19:48:00,56.5,51.4,29.80,SSW,202,6.5,6.5,83,0.00,,,0.00,VWS V14.01,2013-01-26 03:48:00,
2013-01-25 19:49:00,56.7,51.6,29.80,WSW,248,7.8,7.8,83,0.00,,,0.00,VWS V14.01,2013-01-26 03:49:00,
2013-01-25 19:50:00,56.7,51.6,29.80,WSW,248,7.8,7.8,83,0.00,,,0.00,VWS V14.01,2013-01-26 03:50:00,
2013-01-25 19:51:00,56.7,51.6,29.79,WSW,248,5.6,5.6,83,0.00,,,0.00,VWS V14.01,2013-01-26 03:51:00,
2013-01-25 19:52:00,56.7,51.6,29.80,WSW,248,5.8,5.8,83,0.00,,,0.00,VWS V14.01,2013-01-26 03:52:00,
2013-01-25 19:53:00,56.7,51.6,29.80,WSW,248,4.9,5.8,83,0.00,,,0.00,VWS V14.01,2013-01-26 03:53:00,
2013-01-25 19:54:00,56.7,51.6,29.80,WSW,248,4.9,4.9,83,0.00,,,0.00,VWS V14.01,2013-01-26 03:54:00,
2013-01-25 19:55:00,56.7,51.6,29.80,SW,225,4.9,4.9,83,0.00,,,0.00,VWS V14.01,2013-01-26 03:55:00,
2013-01-25 19:56:00,56.7,51.6,29.79,West,270,6.5,6.5,83,0.00,,,0.00,VWS V14.01,2013-01-26 03:56:00,
2013-01-25 19:57:00,56.7,51.6,29.80,West,270,6.5,6.5,83,0.00,,,0.00,VWS V14.01,2013-01-26 03:57:00,
2013-01-25 19:58:00,56.7,51.6,29.80,WSW,248,5.8,6.5,83,0.00,,,0.00,VWS V14.01,2013-01-26 03:58:00,
2013-01-25 19:59:00,56.8,51.7,29.80,WSW,248,4.0,5.8,83,0.00,,,0.00,VWS V14.01,2013-01-26 03:59:00,
2013-01-25 20:00:00,56.8,51.7,29.80,WSW,248,4.9,4.9,83,0.00,,,0.00,VWS V14.01,2013-01-26 04:00:00,
2013-01-25 20:01:00,57.0,51.6,29.79,SW,225,4.5,5.4,82,0.00,,,0.00,VWS V14.01,2013-01-26 04:01:00,
2013-01-25 20:02:00,57.0,51.6,29.80,SW,225,4.5,5.4,82,0.00,,,0.00,VWS V14.01,2013-01-26 04:02:00,
2013-01-25 20:03:00,57.0,51.6,29.80,WSW,248,5.4,5.4,82,0.00,,,0.00,VWS V14.01,2013-01-26 04:03:00,
2013-01-25 20:04:00,56.8,51.4,29.80,West,270,6.3,6.3,82,0.00,,,0.00,VWS V14.01,2013-01-26 04:04:00,
2013-01-25 20:05:00,56.8,51.4,29.80,WSW,248,4.3,6.3,82,0.00,,,0.00,VWS V14.01,2013-01-26 04:05:00,
2013-01-25 20:06:00,56.8,51.4,29.79,WSW,248,5.4,5.4,82,0.00,,,0.00,VWS V14.01,2013-01-26 04:06:00,
2013-01-25 20:07:00,56.8,51.4,29.80,SSW,202,5.6,5.6,82,0.00,,,0.00,VWS V14.01,2013-01-26 04:07:00,
2013-01-25 20:08:00,56.7,51.2,29.80,WSW,248,8.1,8.1,82,0.00,,,0.00,VWS V14.01,2013-01-26 04:08:00,
2013-01-25 20:09:00,56.7,51.2,29.80,SW,225,6.5,8.1,82,0.00,,,0.00,VWS V14.01,2013-01-26 04:09:00,
2013-01-25 20:10:00,56.3,50.9,29.80,SW,225,5.6,6.5,82,0.00,,,0.00,VWS V14.01,2013-01-26 04:10:00,
2013-01-25 20:11:00,56.3,50.9,29.79,WSW,248,5.6,5.6,82,0.00,,,0.00,VWS V14.01,2013-01-26 04:11:00,
2013-01-25 20:12:00,56.3,50.9,29.80,WSW,248,5.6,5.6,82,0.00,,,0.00,VWS V14.01,2013-01-26 04:12:00,
2013-01-25 20:13:00,56.1,50.7,29.80,SW,225,6.5,6.5,82,0.00,,,0.00,VWS V14.01,2013-01-26 04:13:00,
2013-01-25 20:14:00,56.1,50.7,29.80,SSW,202,6.5,6.5,82,0.00,,,0.00,VWS V14.01,2013-01-26 04:14:00,
2013-01-25 20:15:00,56.1,50.7,29.80,SSW,202,9.8,9.8,82,0.00,,,0.00,VWS V14.01,2013-01-26 04:15:00,
2013-01-25 20:16:00,55.9,50.5,29.79,SW,225,6.5,8.5,82,0.00,,,0.00,VWS V14.01,2013-01-26 04:16:00,
2013-01-25 20:17:00,55.9,50.5,29.80,SW,225,6.5,8.5,82,0.00,,,0.00,VWS V14.01,2013-01-26 04:17:00,
2013-01-25 20:18:00,55.9,50.5,29.80,WSW,248,8.1,8.1,82,0.00,,,0.00,VWS V14.01,2013-01-26 04:18:00,
2013-01-25 20:19:00,55.8,50.7,29.80,WSW,248,8.7,8.7,83,0.00,,,0.00,VWS V14.01,2013-01-26 04:19:00,
2013-01-25 20:20:00,55.8,50.7,29.80,WSW,248,8.7,8.7,83,0.00,,,0.00,VWS V14.01,2013-01-26 04:20:00,
2013-01-25 20:21:00,55.6,50.5,29.79,SW,225,5.4,5.4,83,0.00,,,0.00,VWS V14.01,2013-01-26 04:21:00,
2013-01-25 20:22:00,55.6,50.5,29.80,West,270,5.8,5.8,83,0.00,,,0.00,VWS V14.01,2013-01-26 04:22:00,
2013-01-25 20:23:00,55.6,50.5,29.80,WSW,248,6.3,6.3,83,0.00,,,0.00,VWS V14.01,2013-01-26 04:23:00,
2013-01-25 20:24:00,55.6,50.5,29.80,SW,225,6.3,6.3,83,0.00,,,0.00,VWS V14.01,2013-01-26 04:24:00,
2013-01-25 20:25:00,55.6,50.5,29.80,SW,225,5.4,6.3,83,0.00,,,0.00,VWS V14.01,2013-01-26 04:25:00,
2013-01-25 20:26:00,55.6,50.5,29.79,SW,225,7.8,8.1,83,0.00,,,0.00,VWS V14.01,2013-01-26 04:26:00,
2013-01-25 20:27:00,55.4,50.3,29.80,SW,225,7.8,8.1,83,0.00,,,0.00,VWS V14.01,2013-01-26 04:27:00,
2013-01-25 20:28:00,55.4,50.3,29.80,SW,225,9.2,9.2,83,0.00,,,0.00,VWS V14.01,2013-01-26 04:28:00,
2013-01-25 20:29:00,55.2,50.5,29.80,SSW,202,5.8,9.2,84,0.00,,,0.00,VWS V14.01,2013-01-26 04:29:00,
2013-01-25 20:30:00,55.2,50.5,29.80,SW,225,6.5,6.5,84,0.00,,,0.00,VWS V14.01,2013-01-26 04:30:00,
2013-01-25 20:31:00,55.0,50.3,29.79,WSW,248,5.8,7.6,84,0.00,,,0.00,VWS V14.01,2013-01-26 04:31:00,
2013-01-25 20:32:00,55.0,50.3,29.80,WSW,248,5.8,7.6,84,0.00,,,0.00,VWS V14.01,2013-01-26 04:32:00,
2013-01-25 20:33:00,55.0,50.3,29.80,SSW,202,6.0,7.8,84,0.00,,,0.00,VWS V14.01,2013-01-26 04:33:00,
2013-01-25 20:34:00,55.0,50.3,29.80,SSW,202,6.0,6.0,84,0.00,,,0.00,VWS V14.01,2013-01-26 04:34:00,
2013-01-25 20:35:00,54.9,50.1,29.80,SSW,202,5.6,6.3,84,0.00,,,0.00,VWS V14.01,2013-01-26 04:35:00,
2013-01-25 20:36:00,54.9,50.1,29.79,WSW,248,5.4,5.4,84,0.00,,,0.00,VWS V14.01,2013-01-26 04:36:00,
2013-01-25 20:37:00,54.9,50.1,29.80,WSW,248,8.1,8.1,84,0.00,,,0.00,VWS V14.01,2013-01-26 04:37:00,
2013-01-25 20:38:00,54.7,50.0,29.80,SW,225,8.1,8.1,84,0.00,,,0.00,VWS V14.01,2013-01-26 04:38:00,
2013-01-25 20:39:00,54.7,50.0,29.80,SW,225,8.7,8.7,84,0.00,,,0.00,VWS V14.01,2013-01-26 04:39:00,
2013-01-25 20:40:00,54.7,50.3,29.80,WSW,248,6.5,8.7,85,0.00,,,0.00,VWS V14.01,2013-01-26 04:40:00,
2013-01-25 20:41:00,54.7,50.3,29.79,WSW,248,6.3,6.3,85,0.00,,,0.00,VWS V14.01,2013-01-26 04:41:00,
2013-01-25 20:42:00,54.7,50.3,29.80,WSW,248,6.3,6.3,85,0.00,,,0.00,VWS V14.01,2013-01-26 04:42:00,
2013-01-25 20:43:00,54.5,50.1,29.80,WSW,248,5.8,6.3,85,0.00,,,0.00,VWS V14.01,2013-01-26 04:43:00,
2013-01-25 20:44:00,54.5,50.1,29.80,West,270,6.5,6.5,85,0.00,,,0.00,VWS V14.01,2013-01-26 04:44:00,
2013-01-25 20:45:00,54.5,50.1,29.80,WNW,292,6.5,6.5,85,0.00,,,0.00,VWS V14.01,2013-01-26 04:45:00,
2013-01-25 20:46:00,54.3,49.9,29.79,WSW,248,7.4,7.4,85,0.00,,,0.00,VWS V14.01,2013-01-26 04:46:00,
2013-01-25 20:47:00,54.3,49.9,29.80,WSW,248,5.6,7.4,85,0.00,,,0.00,VWS V14.01,2013-01-26 04:47:00,
2013-01-25 20:48:00,54.3,49.9,29.80,SW,225,6.0,6.0,85,0.00,,,0.00,VWS V14.01,2013-01-26 04:48:00,
2013-01-25 20:49:00,54.3,49.9,29.80,SW,225,3.8,6.0,85,0.00,,,0.00,VWS V14.01,2013-01-26 04:49:00,
2013-01-25 20:50:00,54.3,49.9,29.80,WSW,248,9.0,9.0,85,0.00,,,0.00,VWS V14.01,2013-01-26 04:50:00,
2013-01-25 20:51:00,54.3,50.2,29.79,SW,225,5.6,5.6,86,0.00,,,0.00,VWS V14.01,2013-01-26 04:51:00,
2013-01-25 20:52:00,54.3,50.2,29.80,SW,225,4.0,5.6,86,0.00,,,0.00,VWS V14.01,2013-01-26 04:52:00,
2013-01-25 20:53:00,54.3,50.2,29.80,WSW,248,4.3,4.3,86,0.00,,,0.00,VWS V14.01,2013-01-26 04:53:00,
2013-01-25 20:54:00,54.3,50.2,29.80,WSW,248,3.1,4.3,86,0.00,,,0.00,VWS V14.01,2013-01-26 04:54:00,
2013-01-25 20:55:00,54.3,50.2,29.80,WSW,248,3.1,3.1,86,0.00,,,0.00,VWS V14.01,2013-01-26 04:55:00,
2013-01-25 20:56:00,54.3,50.2,29.79,SW,225,3.4,3.4,86,0.00,,,0.00,VWS V14.01,2013-01-26 04:56:00,
2013-01-25 20:57:00,54.5,50.4,29.80,SW,225,3.4,3.4,86,0.00,,,0.00,VWS V14.01,2013-01-26 04:57:00,
2013-01-25 20:58:00,54.5,50.4,29.80,SW,225,6.0,6.0,86,0.00,,,0.00,VWS V14.01,2013-01-26 04:58:00,
2013-01-25 20:59:00,54.5,50.1,29.80,SW,225,6.0,6.0,85,0.00,,,0.00,VWS V14.01,2013-01-26 04:59:00,
2013-01-25 21:00:00,54.5,50.1,29.79,SW,225,6.0,6.0,85,0.00,,,0.00,VWS V14.01,2013-01-26 05:00:00,
2013-01-25 21:01:00,54.5,50.1,29.79,SW,225,4.3,4.3,85,0.00,,,0.00,VWS V14.01,2013-01-26 05:01:00,
2013-01-25 21:02:00,54.5,50.1,29.80,SW,225,4.3,4.3,85,0.00,,,0.00,VWS V14.01,2013-01-26 05:02:00,
2013-01-25 21:03:00,54.5,50.1,29.80,SW,225,4.3,4.3,85,0.00,,,0.00,VWS V14.01,2013-01-26 05:03:00,
2013-01-25 21:04:00,54.5,50.1,29.80,SW,225,4.3,4.3,85,0.00,,,0.00,VWS V14.01,2013-01-26 05:04:00,
2013-01-25 21:05:00,54.7,50.3,29.80,WSW,248,2.9,5.4,85,0.00,,,0.00,VWS V14.01,2013-01-26 05:05:00,
2013-01-25 21:06:00,54.9,50.4,29.79,WSW,248,5.8,5.8,85,0.00,,,0.00,VWS V14.01,2013-01-26 05:06:00,
2013-01-25 21:07:00,54.9,50.4,29.80,SSW,202,2.9,5.8,85,0.00,,,0.00,VWS V14.01,2013-01-26 05:07:00,
2013-01-25 21:08:00,55.0,50.6,29.80,SSW,202,2.9,2.9,85,0.00,,,0.00,VWS V14.01,2013-01-26 05:08:00,
2013-01-25 21:09:00,55.0,50.6,29.80,SSW,202,2.9,2.9,85,0.00,,,0.00,VWS V14.01,2013-01-26 05:09:00,
2013-01-25 21:10:00,55.0,50.6,29.80,West,270,4.3,4.3,85,0.00,,,0.00,VWS V14.01,2013-01-26 05:10:00,
2013-01-25 21:11:00,55.0,50.6,29.79,WSW,248,5.4,5.6,85,0.00,,,0.00,VWS V14.01,2013-01-26 05:11:00,
2013-01-25 21:12:00,55.0,50.6,29.80,WSW,248,5.4,5.6,85,0.00,,,0.00,VWS V14.01,2013-01-26 05:12:00,
2013-01-25 21:13:00,55.0,50.6,29.80,WNW,292,4.0,5.4,85,0.00,,,0.00,VWS V14.01,2013-01-26 05:13:00,
2013-01-25 21:14:00,55.0,50.6,29.80,WNW,292,4.9,5.6,85,0.00,,,0.00,VWS V14.01,2013-01-26 05:14:00,
2013-01-25 21:15:00,55.0,50.6,29.80,WNW,292,5.8,5.8,85,0.00,,,0.00,VWS V14.01,2013-01-26 05:15:00,
2013-01-25 21:16:00,54.9,50.4,29.79,WNW,292,5.8,5.8,85,0.00,,,0.00,VWS V14.01,2013-01-26 05:16:00,
2013-01-25 21:17:00,54.9,50.4,29.80,WNW,292,5.8,5.8,85,0.00,,,0.00,VWS V14.01,2013-01-26 05:17:00,
2013-01-25 21:18:00,54.9,50.4,29.80,West,270,5.6,5.8,85,0.00,,,0.00,VWS V14.01,2013-01-26 05:18:00,
2013-01-25 21:19:00,54.9,50.4,29.80,West,270,5.6,5.6,85,0.00,,,0.00,VWS V14.01,2013-01-26 05:19:00,
2013-01-25 21:20:00,55.0,50.6,29.80,West,270,5.6,5.6,85,0.00,,,0.00,VWS V14.01,2013-01-26 05:20:00,
2013-01-25 21:21:00,55.0,50.6,29.79,West,270,4.9,4.9,85,0.00,,,0.00,VWS V14.01,2013-01-26 05:21:00,
2013-01-25 21:22:00,55.0,50.6,29.80,WSW,248,3.6,4.9,85,0.00,,,0.00,VWS V14.01,2013-01-26 05:22:00,
2013-01-25 21:23:00,55.0,50.6,29.80,WSW,248,5.4,5.4,85,0.00,,,0.00,VWS V14.01,2013-01-26 05:23:00,
2013-01-25 21:24:00,54.9,50.4,29.80,West,270,5.8,5.8,85,0.00,,,0.00,VWS V14.01,2013-01-26 05:24:00,
2013-01-25 21:25:00,54.9,50.4,29.80,NW,315,4.3,5.8,85,0.00,,,0.00,VWS V14.01,2013-01-26 05:25:00,
2013-01-25 21:26:00,54.9,50.4,29.79,West,270,6.3,6.3,85,0.00,,,0.00,VWS V14.01,2013-01-26 05:26:00,
2013-01-25 21:27:00,54.9,50.4,29.80,West,270,6.3,6.3,85,0.00,,,0.00,VWS V14.01,2013-01-26 05:27:00,
2013-01-25 21:28:00,54.7,50.0,29.80,WSW,248,6.0,6.5,84,0.00,,,0.00,VWS V14.01,2013-01-26 05:28:00,
2013-01-25 21:29:00,54.7,50.0,29.80,WSW,248,6.0,6.0,84,0.00,,,0.00,VWS V14.01,2013-01-26 05:29:00,
2013-01-25 21:30:00,54.7,50.0,29.80,WNW,292,5.4,6.0,84,0.00,,,0.00,VWS V14.01,2013-01-26 05:30:00,
2013-01-25 21:31:00,54.7,50.0,29.79,WSW,248,5.6,5.6,84,0.00,,,0.00,VWS V14.01,2013-01-26 05:31:00,
2013-01-25 21:32:00,54.7,50.0,29.80,SSW,202,10.1,10.1,84,0.00,,,0.00,VWS V14.01,2013-01-26 05:32:00,
2013-01-25 21:33:00,54.5,50.1,29.80,WSW,248,7.6,10.1,85,0.00,,,0.00,VWS V14.01,2013-01-26 05:33:00,
2013-01-25 21:34:00,54.5,50.1,29.80,WSW,248,4.9,7.6,85,0.00,,,0.00,VWS V14.01,2013-01-26 05:34:00,
2013-01-25 21:35:00,54.5,50.1,29.80,West,270,6.3,6.3,85,0.00,,,0.00,VWS V14.01,2013-01-26 05:35:00,
2013-01-25 21:36:00,54.5,50.1,29.79,WSW,248,6.3,6.3,85,0.00,,,0.00,VWS V14.01,2013-01-26 05:36:00,
2013-01-25 21:37:00,54.5,50.1,29.80,SW,225,6.0,6.3,85,0.00,,,0.00,VWS V14.01,2013-01-26 05:37:00,
2013-01-25 21:38:00,54.5,50.1,29.80,West,270,7.2,7.2,85,0.00,,,0.00,VWS V14.01,2013-01-26 05:38:00,
2013-01-25 21:39:00,54.5,50.1,29.80,WSW,248,6.5,7.2,85,0.00,,,0.00,VWS V14.01,2013-01-26 05:39:00,
2013-01-25 21:40:00,54.5,50.1,29.80,WSW,248,11.0,11.0,85,0.00,,,0.00,VWS V14.01,2013-01-26 05:40:00,
2013-01-25 21:41:00,54.3,49.9,29.79,WSW,248,9.0,9.0,85,0.00,,,0.00,VWS V14.01,2013-01-26 05:41:00,
2013-01-25 21:42:00,54.3,49.9,29.80,WSW,248,10.5,10.5,85,0.00,,,0.00,VWS V14.01,2013-01-26 05:42:00,
2013-01-25 21:43:00,54.3,49.9,29.80,WSW,248,10.5,10.5,85,0.00,,,0.00,VWS V14.01,2013-01-26 05:43:00,
2013-01-25 21:44:00,54.3,49.9,29.80,West,270,6.0,10.5,85,0.00,,,0.00,VWS V14.01,2013-01-26 05:44:00,
2013-01-25 21:45:00,54.1,49.7,29.80,WSW,248,12.3,12.3,85,0.00,,,0.00,VWS V14.01,2013-01-26 05:45:00,
2013-01-25 21:46:00,54.0,49.6,29.79,WSW,248,7.8,7.8,85,0.00,,,0.00,VWS V14.01,2013-01-26 05:46:00,
2013-01-25 21:47:00,54.0,49.6,29.80,WSW,248,8.1,8.1,85,0.00,,,0.00,VWS V14.01,2013-01-26 05:47:00,
2013-01-25 21:48:00,54.0,49.6,29.80,WSW,248,7.4,8.1,85,0.00,,,0.00,VWS V14.01,2013-01-26 05:48:00,
2013-01-25 21:49:00,54.0,49.6,29.80,WSW,248,7.4,7.4,85,0.00,,,0.00,VWS V14.01,2013-01-26 05:49:00,
2013-01-25 21:50:00,54.0,49.9,29.80,SSW,202,7.2,7.4,86,0.00,,,0.00,VWS V14.01,2013-01-26 05:50:00,
2013-01-25 21:51:00,54.0,49.9,29.79,WNW,292,7.8,7.8,86,0.00,,,0.00,VWS V14.01,2013-01-26 05:51:00,
2013-01-25 21:52:00,53.8,49.7,29.80,WSW,248,7.4,7.8,86,0.00,,,0.00,VWS V14.01,2013-01-26 05:52:00,
2013-01-25 21:53:00,53.8,49.7,29.80,SW,225,8.7,8.7,86,0.00,,,0.00,VWS V14.01,2013-01-26 05:53:00,
2013-01-25 21:54:00,53.8,49.7,29.80,WSW,248,5.4,8.7,86,0.00,,,0.00,VWS V14.01,2013-01-26 05:54:00,
2013-01-25 21:55:00,53.8,49.7,29.80,SW,225,7.4,7.4,86,0.00,,,0.00,VWS V14.01,2013-01-26 05:55:00,
2013-01-25 21:56:00,53.8,49.7,29.79,WSW,248,6.0,6.0,86,0.00,,,0.00,VWS V14.01,2013-01-26 05:56:00,
2013-01-25 21:57:00,53.8,49.7,29.80,WSW,248,6.0,6.0,86,0.00,,,0.00,VWS V14.01,2013-01-26 05:57:00,
2013-01-25 21:58:00,53.6,49.5,29.80,WSW,248,10.1,10.1,86,0.00,,,0.00,VWS V14.01,2013-01-26 05:58:00,
2013-01-25 21:59:00,53.6,49.5,29.80,WSW,248,6.0,10.1,86,0.00,,,0.00,VWS V14.01,2013-01-26 05:59:00,
2013-01-25 22:00:00,53.6,49.5,29.80,SW,225,5.8,6.0,86,0.00,,,0.00,VWS V14.01,2013-01-26 06:00:00,
2013-01-25 22:01:00,53.6,49.5,29.79,WSW,248,5.6,5.6,86,0.00,,,0.00,VWS V14.01,2013-01-26 06:01:00,
2013-01-25 22:02:00,53.6,49.5,29.80,WNW,292,7.8,7.8,86,0.00,,,0.00,VWS V14.01,2013-01-26 06:02:00,
2013-01-25 22:03:00,53.6,49.5,29.80,SSW,202,8.5,8.5,86,0.00,,,0.00,VWS V14.01,2013-01-26 06:03:00,
2013-01-25 22:04:00,53.6,49.5,29.80,SW,225,10.1,10.1,86,0.00,,,0.00,VWS V14.01,2013-01-26 06:04:00,
2013-01-25 22:05:00,53.6,49.8,29.80,WNW,292,8.5,10.1,87,0.00,,,0.00,VWS V14.01,2013-01-26 06:05:00,
2013-01-25 22:06:00,53.6,49.8,29.79,WSW,248,5.6,5.6,87,0.00,,,0.00,VWS V14.01,2013-01-26 06:06:00,
2013-01-25 22:07:00,53.6,49.8,29.80,SW,225,8.7,8.7,87,0.00,,,0.00,VWS V14.01,2013-01-26 06:07:00,
2013-01-25 22:08:00,53.4,49.7,29.80,SSW,202,6.3,8.7,87,0.00,,,0.00,VWS V14.01,2013-01-26 06:08:00,
2013-01-25 22:09:00,53.4,49.7,29.80,SW,225,5.8,6.3,87,0.00,,,0.00,VWS V14.01,2013-01-26 06:09:00,
2013-01-25 22:10:00,53.4,49.7,29.80,WSW,248,7.4,7.4,87,0.00,,,0.00,VWS V14.01,2013-01-26 06:10:00,
2013-01-25 22:11:00,53.4,49.7,29.79,SW,225,8.7,8.7,87,0.00,,,0.00,VWS V14.01,2013-01-26 06:11:00,
2013-01-25 22:12:00,53.4,49.7,29.80,SSW,202,5.8,8.7,87,0.00,,,0.00,VWS V14.01,2013-01-26 06:12:00,
2013-01-25 22:13:00,53.4,50.0,29.80,SW,225,8.5,8.5,88,0.00,,,0.00,VWS V14.01,2013-01-26 06:13:00,
2013-01-25 22:14:00,53.4,50.0,29.80,WSW,248,10.1,10.1,88,0.00,,,0.00,VWS V14.01,2013-01-26 06:14:00,
2013-01-25 22:15:00,53.2,49.8,29.80,WSW,248,5.4,10.1,88,0.00,,,0.00,VWS V14.01,2013-01-26 06:15:00,
2013-01-25 22:16:00,53.2,49.8,29.79,West,270,8.7,8.7,88,0.00,,,0.00,VWS V14.01,2013-01-26 06:16:00,
2013-01-25 22:17:00,53.2,49.8,29.80,SW,225,5.6,8.7,88,0.00,,,0.00,VWS V14.01,2013-01-26 06:17:00,
2013-01-25 22:18:00,53.2,49.8,29.80,SW,225,6.0,6.0,88,0.00,,,0.00,VWS V14.01,2013-01-26 06:18:00,
2013-01-25 22:19:00,53.2,49.8,29.80,SW,225,6.3,6.3,88,0.00,,,0.00,VWS V14.01,2013-01-26 06:19:00,
2013-01-25 22:20:00,53.2,49.8,29.80,SW,225,7.6,7.6,88,0.00,,,0.00,VWS V14.01,2013-01-26 06:20:00,
2013-01-25 22:21:00,53.2,49.8,29.79,SSW,202,7.6,7.6,88,0.00,,,0.00,VWS V14.01,2013-01-26 06:21:00,
2013-01-25 22:22:00,53.2,49.8,29.80,WSW,248,8.1,8.1,88,0.00,,,0.00,VWS V14.01,2013-01-26 06:22:00,
2013-01-25 22:23:00,53.2,49.8,29.80,WSW,248,7.4,8.1,88,0.00,,,0.00,VWS V14.01,2013-01-26 06:23:00,
2013-01-25 22:24:00,53.1,49.6,29.80,West,270,6.5,8.1,88,0.00,,,0.00,VWS V14.01,2013-01-26 06:24:00,
2013-01-25 22:25:00,53.1,49.6,29.80,WSW,248,9.6,9.6,88,0.00,,,0.00,VWS V14.01,2013-01-26 06:25:00,
2013-01-25 22:26:00,53.1,49.9,29.79,SSW,202,7.6,7.6,89,0.00,,,0.00,VWS V14.01,2013-01-26 06:26:00,
2013-01-25 22:27:00,53.1,49.9,29.80,SSW,202,7.6,7.6,89,0.00,,,0.00,VWS V14.01,2013-01-26 06:27:00,
2013-01-25 22:28:00,53.1,49.9,29.80,SW,225,8.1,8.1,89,0.00,,,0.00,VWS V14.01,2013-01-26 06:28:00,
2013-01-25 22:29:00,53.1,49.9,29.80,WSW,248,9.6,9.6,89,0.00,,,0.00,VWS V14.01,2013-01-26 06:29:00,
2013-01-25 22:30:00,53.1,49.9,29.80,SSW,202,8.5,9.6,89,0.00,,,0.00,VWS V14.01,2013-01-26 06:30:00,
2013-01-25 22:31:00,53.1,49.9,29.79,SW,225,7.8,7.8,89,0.00,,,0.00,VWS V14.01,2013-01-26 06:31:00,
2013-01-25 22:32:00,53.1,49.9,29.80,SW,225,8.5,8.5,89,0.00,,,0.00,VWS V14.01,2013-01-26 06:32:00,
2013-01-25 22:33:00,53.1,49.9,29.80,WSW,248,8.5,8.5,89,0.00,,,0.00,VWS V14.01,2013-01-26 06:33:00,
2013-01-25 22:34:00,53.1,49.9,29.80,West,270,7.8,8.5,89,0.00,,,0.00,VWS V14.01,2013-01-26 06:34:00,
2013-01-25 22:35:00,53.1,49.9,29.80,WSW,248,8.1,8.1,89,0.00,,,0.00,VWS V14.01,2013-01-26 06:35:00,
2013-01-25 22:36:00,53.1,49.9,29.79,WSW,248,6.0,8.1,89,0.00,,,0.00,VWS V14.01,2013-01-26 06:36:00,
2013-01-25 22:37:00,53.1,49.9,29.80,WSW,248,7.6,7.6,89,0.00,,,0.00,VWS V14.01,2013-01-26 06:37:00,
2013-01-25 22:38:00,53.1,49.9,29.80,SW,225,9.8,9.8,89,0.00,,,0.00,VWS V14.01,2013-01-26 06:38:00,
2013-01-25 22:39:00,53.1,49.9,29.80,WSW,248,7.4,9.8,89,0.00,,,0.00,VWS V14.01,2013-01-26 06:39:00,
2013-01-25 22:40:00,53.1,49.9,29.80,WSW,248,10.5,10.5,89,0.00,,,0.00,VWS V14.01,2013-01-26 06:40:00,
2013-01-25 22:41:00,53.1,50.2,29.79,SW,225,7.6,7.6,90,0.00,,,0.00,VWS V14.01,2013-01-26 06:41:00,
2013-01-25 22:42:00,53.1,50.2,29.80,SW,225,7.8,7.8,90,0.00,,,0.00,VWS V14.01,2013-01-26 06:42:00,
2013-01-25 22:43:00,53.1,50.2,29.80,WSW,248,7.8,7.8,90,0.00,,,0.00,VWS V14.01,2013-01-26 06:43:00,
2013-01-25 22:44:00,53.1,50.2,29.80,West,270,9.6,9.6,90,0.00,,,0.00,VWS V14.01,2013-01-26 06:44:00,
2013-01-25 22:45:00,53.1,50.2,29.80,SW,225,7.6,9.6,90,0.00,,,0.00,VWS V14.01,2013-01-26 06:45:00,
2013-01-25 22:46:00,53.1,50.2,29.79,WSW,248,8.7,8.7,90,0.00,,,0.00,VWS V14.01,2013-01-26 06:46:00,
2013-01-25 22:47:00,53.1,50.2,29.80,WSW,248,8.7,8.7,90,0.00,,,0.00,VWS V14.01,2013-01-26 06:47:00,
2013-01-25 22:48:00,53.1,50.2,29.80,SW,225,8.5,8.7,90,0.00,,,0.00,VWS V14.01,2013-01-26 06:48:00,
2013-01-25 22:49:00,53.1,50.2,29.80,SW,225,9.2,9.2,90,0.00,,,0.00,VWS V14.01,2013-01-26 06:49:00,
2013-01-25 22:50:00,53.1,50.2,29.80,SSW,202,8.5,9.2,90,0.00,,,0.00,VWS V14.01,2013-01-26 06:50:00,
2013-01-25 22:51:00,53.1,50.2,29.79,WSW,248,8.7,8.7,90,0.00,,,0.00,VWS V14.01,2013-01-26 06:51:00,
2013-01-25 22:52:00,52.9,50.0,29.80,WSW,248,8.1,8.7,90,0.00,,,0.00,VWS V14.01,2013-01-26 06:52:00,
2013-01-25 22:53:00,52.9,50.0,29.80,SW,225,7.8,8.7,90,0.00,,,0.00,VWS V14.01,2013-01-26 06:53:00,
2013-01-25 22:54:00,52.9,50.3,29.80,WSW,248,4.0,7.8,91,0.00,,,0.00,VWS V14.01,2013-01-26 06:54:00,
2013-01-25 22:55:00,52.9,50.3,29.80,SSW,202,6.3,6.3,91,0.00,,,0.00,VWS V14.01,2013-01-26 06:55:00,
2013-01-25 22:56:00,52.9,50.3,29.79,SW,225,8.7,8.7,91,0.00,,,0.00,VWS V14.01,2013-01-26 06:56:00,
2013-01-25 22:57:00,52.9,50.3,29.80,WNW,292,8.7,8.7,91,0.00,,,0.00,VWS V14.01,2013-01-26 06:57:00,
2013-01-25 22:58:00,52.9,50.3,29.80,WSW,248,8.5,8.7,91,0.00,,,0.00,VWS V14.01,2013-01-26 06:58:00,
2013-01-25 22:59:00,52.7,50.2,29.80,WSW,248,6.5,8.5,91,0.00,,,0.00,VWS V14.01,2013-01-26 06:59:00,
2013-01-25 23:00:00,52.7,50.2,29.80,WSW,248,7.6,7.6,91,0.00,,,0.00,VWS V14.01,2013-01-26 07:00:00,
2013-01-25 23:01:00,52.7,50.2,29.79,WSW,248,7.8,7.8,91,0.00,,,0.00,VWS V14.01,2013-01-26 07:01:00,
2013-01-25 23:02:00,52.7,50.2,29.80,SW,225,7.6,7.8,91,0.00,,,0.00,VWS V14.01,2013-01-26 07:02:00,
2013-01-25 23:03:00,52.7,50.2,29.80,South,180,8.1,8.1,91,0.00,,,0.00,VWS V14.01,2013-01-26 07:03:00,
2013-01-25 23:04:00,52.7,50.2,29.80,SSW,202,7.6,8.1,91,0.00,,,0.00,VWS V14.01,2013-01-26 07:04:00,
2013-01-25 23:05:00,52.7,50.2,29.80,SW,225,6.3,7.6,91,0.00,,,0.00,VWS V14.01,2013-01-26 07:05:00,
2013-01-25 23:06:00,52.7,50.2,29.79,WSW,248,7.8,9.8,91,0.00,,,0.00,VWS V14.01,2013-01-26 07:06:00,
2013-01-25 23:07:00,52.7,50.2,29.80,SW,225,8.7,9.8,91,0.00,,,0.00,VWS V14.01,2013-01-26 07:07:00,
2013-01-25 23:08:00,52.7,50.5,29.80,WSW,248,6.3,8.7,92,0.00,,,0.00,VWS V14.01,2013-01-26 07:08:00,
2013-01-25 23:09:00,52.7,50.5,29.80,WSW,248,10.5,10.5,92,0.00,,,0.00,VWS V14.01,2013-01-26 07:09:00,
2013-01-25 23:10:00,52.7,50.5,29.80,SW,225,10.3,10.5,92,0.00,,,0.00,VWS V14.01,2013-01-26 07:10:00,
2013-01-25 23:11:00,52.7,50.5,29.79,WSW,248,10.3,10.3,92,0.00,,,0.00,VWS V14.01,2013-01-26 07:11:00,
2013-01-25 23:12:00,52.5,50.3,29.80,WSW,248,10.3,10.3,92,0.00,,,0.00,VWS V14.01,2013-01-26 07:12:00,
2013-01-25 23:13:00,52.5,50.3,29.80,SSW,202,10.5,10.5,92,0.00,,,0.00,VWS V14.01,2013-01-26 07:13:00,
2013-01-25 23:14:00,52.5,50.3,29.80,SW,225,10.5,10.5,92,0.00,,,0.00,VWS V14.01,2013-01-26 07:14:00,
2013-01-25 23:15:00,52.5,50.3,29.80,SSW,202,6.3,10.5,92,0.00,,,0.00,VWS V14.01,2013-01-26 07:15:00,
2013-01-25 23:16:00,52.5,50.3,29.79,SW,225,7.8,7.8,92,0.00,,,0.00,VWS V14.01,2013-01-26 07:16:00,
2013-01-25 23:17:00,52.5,50.3,29.80,SSW,202,8.1,8.1,92,0.00,,,0.00,VWS V14.01,2013-01-26 07:17:00,
2013-01-25 23:18:00,52.5,50.3,29.80,WSW,248,8.1,8.1,92,0.00,,,0.00,VWS V14.01,2013-01-26 07:18:00,
2013-01-25 23:19:00,52.5,50.3,29.80,WSW,248,12.8,12.8,92,0.00,,,0.00,VWS V14.01,2013-01-26 07:19:00,
2013-01-25 23:20:00,52.5,50.3,29.80,SW,225,10.7,12.8,92,0.00,,,0.00,VWS V14.01,2013-01-26 07:20:00,
2013-01-25 23:21:00,52.5,50.3,29.79,WSW,248,7.6,10.7,92,0.00,,,0.00,VWS V14.01,2013-01-26 07:21:00,
2013-01-25 23:22:00,52.5,50.3,29.80,WSW,248,7.6,7.6,92,0.00,,,0.00,VWS V14.01,2013-01-26 07:22:00,
2013-01-25 23:23:00,52.5,50.3,29.80,WSW,248,12.8,12.8,92,0.00,,,0.00,VWS V14.01,2013-01-26 07:23:00,
2013-01-25 23:24:00,52.5,50.3,29.80,SW,225,8.7,12.8,92,0.00,,,0.00,VWS V14.01,2013-01-26 07:24:00,
2013-01-25 23:25:00,52.5,50.3,29.80,SW,225,9.2,9.2,92,0.00,,,0.00,VWS V14.01,2013-01-26 07:25:00,
2013-01-25 23:26:00,52.5,50.3,29.79,SW,225,8.5,9.2,92,0.00,,,0.00,VWS V14.01,2013-01-26 07:26:00,
2013-01-25 23:27:00,52.5,50.3,29.80,SSW,202,6.3,8.5,92,0.00,,,0.00,VWS V14.01,2013-01-26 07:27:00,
2013-01-25 23:28:00,52.5,50.3,29.80,WSW,248,8.5,8.5,92,0.00,,,0.00,VWS V14.01,2013-01-26 07:28:00,
2013-01-25 23:29:00,52.5,50.3,29.80,WSW,248,8.5,8.5,92,0.00,,,0.00,VWS V14.01,2013-01-26 07:29:00,
2013-01-25 23:30:00,52.5,50.3,29.80,WSW,248,10.1,10.1,92,0.00,,,0.00,VWS V14.01,2013-01-26 07:30:00,
2013-01-25 23:31:00,52.5,50.3,29.79,WSW,248,9.0,10.1,92,0.00,,,0.00,VWS V14.01,2013-01-26 07:31:00,
2013-01-25 23:32:00,52.5,50.3,29.80,WSW,248,9.0,10.1,92,0.00,,,0.00,VWS V14.01,2013-01-26 07:32:00,
2013-01-25 23:33:00,52.5,50.3,29.80,SW,225,9.8,9.8,92,0.00,,,0.00,VWS V14.01,2013-01-26 07:33:00,
2013-01-25 23:34:00,52.5,50.3,29.80,WSW,248,10.5,10.5,92,0.00,,,0.00,VWS V14.01,2013-01-26 07:34:00,
2013-01-25 23:35:00,52.5,50.3,29.80,WSW,248,9.8,10.5,92,0.00,,,0.00,VWS V14.01,2013-01-26 07:35:00,
2013-01-25 23:36:00,52.5,50.3,29.79,WSW,248,7.8,9.8,92,0.00,,,0.00,VWS V14.01,2013-01-26 07:36:00,
2013-01-25 23:37:00,52.5,50.3,29.80,SW,225,5.6,7.8,92,0.00,,,0.00,VWS V14.01,2013-01-26 07:37:00,
2013-01-25 23:38:00,52.5,50.3,29.80,SW,225,10.5,10.5,92,0.00,,,0.00,VWS V14.01,2013-01-26 07:38:00,
2013-01-25 23:39:00,52.5,50.3,29.80,WSW,248,8.7,10.5,92,0.00,,,0.00,VWS V14.01,2013-01-26 07:39:00,
2013-01-25 23:40:00,52.5,50.3,29.80,SW,225,8.1,8.7,92,0.00,,,0.00,VWS V14.01,2013-01-26 07:40:00,
2013-01-25 23:41:00,52.5,50.3,29.79,WSW,248,6.0,8.1,92,0.00,,,0.00,VWS V14.01,2013-01-26 07:41:00,
2013-01-25 23:42:00,52.5,50.3,29.80,SW,225,6.5,6.5,92,0.00,,,0.00,VWS V14.01,2013-01-26 07:42:00,
2013-01-25 23:43:00,52.5,50.3,29.80,WSW,248,7.6,7.6,92,0.00,,,0.00,VWS V14.01,2013-01-26 07:43:00,
2013-01-25 23:44:00,52.5,50.3,29.80,West,270,7.6,7.6,92,0.00,,,0.00,VWS V14.01,2013-01-26 07:44:00,
2013-01-25 23:45:00,52.3,50.1,29.80,SSW,202,7.8,7.8,92,0.00,,,0.00,VWS V14.01,2013-01-26 07:45:00,
2013-01-25 23:46:00,52.3,50.1,29.79,SW,225,8.7,8.7,92,0.00,,,0.00,VWS V14.01,2013-01-26 07:46:00,
2013-01-25 23:47:00,52.3,50.1,29.80,SW,225,7.6,8.7,92,0.00,,,0.00,VWS V14.01,2013-01-26 07:47:00,
2013-01-25 23:48:00,52.3,50.1,29.80,SW,225,7.6,7.6,92,0.00,,,0.00,VWS V14.01,2013-01-26 07:48:00,
2013-01-25 23:49:00,52.3,50.1,29.80,WSW,248,7.8,7.8,92,0.00,,,0.00,VWS V14.01,2013-01-26 07:49:00,
2013-01-25 23:50:00,52.3,50.1,29.80,WSW,248,7.8,7.8,92,0.00,,,0.00,VWS V14.01,2013-01-26 07:50:00,
2013-01-25 23:51:00,52.5,50.3,29.79,WSW,248,6.5,7.8,92,0.00,,,0.00,VWS V14.01,2013-01-26 07:51:00,
2013-01-25 23:52:00,52.5,50.3,29.80,WSW,248,7.8,7.8,92,0.00,,,0.00,VWS V14.01,2013-01-26 07:52:00,
2013-01-25 23:53:00,52.5,50.3,29.80,SW,225,6.3,7.8,92,0.00,,,0.00,VWS V14.01,2013-01-26 07:53:00,
2013-01-25 23:54:00,52.5,50.3,29.80,SW,225,6.3,6.3,92,0.00,,,0.00,VWS V14.01,2013-01-26 07:54:00,
2013-01-25 23:55:00,52.5,50.3,29.80,WSW,248,5.8,6.3,92,0.00,,,0.00,VWS V14.01,2013-01-26 07:55:00,
2013-01-25 23:56:00,52.3,50.1,29.79,WSW,248,5.8,5.8,92,0.00,,,0.00,VWS V14.01,2013-01-26 07:56:00,
2013-01-25 23:57:00,52.3,50.1,29.80,WSW,248,6.0,6.0,92,0.00,,,0.00,VWS V14.01,2013-01-26 07:57:00,
2013-01-25 23:58:00,52.3,50.1,29.80,WSW,248,6.3,6.3,92,0.00,,,0.00,VWS V14.01,2013-01-26 07:58:00,
2013-01-25 23:59:00,52.3,50.1,29.80,WSW,248,5.8,6.3,92,0.00,,,0.00,VWS V14.01,2013-01-26 07:59:00,